[[{"header":{"parameterUnit":"m.s-1","parameterCategory":1,"la1":30.6,"la2":28.766,"lo1":-90.7593,"lo2":-88.6598,"dy":0.0162,"dx":0.0183,"nx":116,"ny":114,"refTime":"2023-10-08T12:00:00:Z","depth":0,"parameterNumber":2,"parameterNumberName":"U-component_of_WINDS"},"data":[0.0,0.0,0.0,0.0,0.0,0.0,0.0,0.0,0.0,0.0,0.0,0.0,0.0,0.0,0.0,0.0,0.0,0.0,0.0,0.0,0.0,0.0,0.0,0.0,0.0,0.0,0.0,0.0,0.0,0.0,0.0,0.0,0.0,0.0,0.0,0.0,0.0,0.0,0.0,0.0,0.0,0.0,0.0,0.0,0.0,0.0,0.0,0.0,0.0,0.0,0.0,0.0,0.0,0.0,0.0,0.0,0.0,0.0,0.0,0.0,0.0,0.0,0.0,0.0,0.0,0.0,0.0,0.0,0.0,0.0,0.0,0.0,0.0,0.0,0.0,0.0,0.0,0.0,0.0,0.0,0.0,0.0,0.0,0.0,0.0,0.0,0.0,0.0,0.0,0.0,0.0,0.0,0.0,0.0,0.0,0.0,0.0,0.0,0.0,0.0,0.0,0.0,0.0,0.0,0.0,0.0,0.0,0.0,0.0,0.0,0.0,0.0,0.0,0.0,0.0,0.0,0.0,0.0,0.0,0.0,0.0,0.0,0.0,0.0,0.0,0.0,0.0,0.0,0.0,0.0,0.0,0.0,0.0,0.0,0.0,0.0,0.0,0.0,0.0,0.0,0.0,0.0,0.0,0.0,0.0,0.0,0.0,0.0,0.0,0.0,0.0,0.0,0.0,0.0,0.0,0.0,0.0,0.0,0.0,0.0,0.0,0.0,0.0,0.0,0.0,0.0,0.0,0.0,0.0,0.0,0.0,0.0,0.0,0.0,0.0,0.0,0.0,0.0,0.0,0.0,0.0,0.0,0.0,0.0,0.0,0.0,0.0,0.0,0.0,0.0,0.0,0.0,0.0,0.0,0.0,0.0,0.0,0.0,0.0,0.0,0.0,0.0,0.0,0.0,0.0,0.0,0.0,0.0,0.0,0.0,0.0,0.0,0.0,0.0,0.0,0.0,0.0,0.0,0.0,0.0,0.0,0.0,0.0,0.0,0.0,0.0,0.0,0.0,0.0,0.0,0.0,0.0,0.0,0.0,0.0,0.0,0.0,0.0,0.0,0.0,0.0,0.0,0.0,0.0,0.0,0.0,0.0,0.0,0.0,0.0,0.0,0.0,0.0,0.0,0.0,0.0,0.0,0.0,0.0,0.0,0.0,0.0,0.0,0.0,0.0,0.0,0.0,0.0,0.0,0.0,0.0,0.0,0.0,0.0,0.0,0.0,0.0,0.0,0.0,0.0,0.0,0.0,0.0,0.0,0.0,0.0,0.0,0.0,0.0,0.0,0.0,0.0,0.0,0.0,0.0,0.0,0.0,0.0,0.0,0.0,0.0,0.0,0.0,0.0,0.0,0.0,0.0,0.0,0.0,0.0,0.0,0.0,0.0,0.0,0.0,0.0,0.0,0.0,0.0,0.0,0.0,0.0,0.0,0.0,0.0,0.0,0.0,0.0,0.0,0.0,0.0,0.0,0.0,0.0,0.0,0.0,0.0,0.0,0.0,0.0,0.0,0.0,0.0,0.0,0.0,0.0,0.0,0.0,0.0,0.0,0.0,0.0,0.0,0.0,0.0,0.0,0.0,0.0,0.0,0.0,0.0,0.0,0.0,0.0,0.0,0.0,0.0,0.0,0.0,0.0,0.0,0.0,0.0,0.0,0.0,0.0,0.0,0.0,0.0,0.0,0.0,0.0,0.0,0.0,0.0,0.0,0.0,0.0,0.0,0.0,0.0,0.0,0.0,0.0,0.0,0.0,0.0,0.0,0.0,0.0,0.0,0.0,0.0,0.0,0.0,0.0,0.0,0.0,0.0,0.0,0.0,0.0,0.0,0.0,0.0,0.0,0.0,0.0,0.0,0.0,0.0,0.0,0.0,0.0,0.0,0.0,0.0,0.0,0.0,0.0,0.0,0.0,0.0,0.0,0.0,0.0,0.0,0.0,0.0,0.0,0.0,0.0,0.0,0.0,0.0,0.0,0.0,0.0,0.0,0.0,0.0,0.0,0.0,0.0,0.0,0.0,0.0,0.0,0.0,0.0,0.0,0.0,0.0,0.0,0.0,0.0,0.0,0.0,0.0,0.0,0.0,0.0,0.0,0.0,0.0,0.0,0.0,0.0,0.0,0.0,0.0,0.0,0.0,0.0,0.0,0.0,0.0,0.0,0.0,0.0,0.0,0.0,0.0,0.0,0.0,0.0,0.0,0.0,0.0,0.0,0.0,0.0,0.0,0.0,0.0,0.0,0.0,0.0,0.0,0.0,0.0,0.0,0.0,0.0,0.0,0.0,0.0,0.0,0.0,0.0,0.0,0.0,0.0,0.0,0.0,0.0,0.0,0.0,0.0,0.0,0.0,0.0,0.0,0.0,0.0,0.0,0.0,0.0,0.0,0.0,0.0,0.0,0.0,0.0,0.0,0.0,0.0,0.0,0.0,0.0,0.0,0.0,0.0,0.0,0.0,0.0,0.0,0.0,0.0,0.0,0.0,0.0,0.0,0.0,0.0,0.0,0.0,0.0,0.0,0.0,0.0,0.0,0.0,0.0,0.0,0.0,0.0,0.0,0.0,0.0,0.0,0.0,0.0,0.0,0.0,0.0,0.0,0.0,0.0,0.0,0.0,0.0,0.0,0.0,0.0,0.0,0.0,0.0,0.0,0.0,0.0,0.0,0.0,0.0,0.0,0.0,0.0,0.0,0.0,0.0,0.0,0.0,0.0,0.0,0.0,0.0,0.0,0.0,0.0,0.0,0.0,0.0,0.0,0.0,0.0,0.0,0.0,0.0,0.0,0.0,0.0,0.0,0.0,0.0,0.0,0.0,0.0,0.0,0.0,0.0,0.0,0.0,0.0,0.0,0.0,0.0,0.0,0.0,0.0,0.0,0.0,0.0,0.0,0.0,0.0,0.0,0.0,0.0,0.0,0.0,0.0,0.0,0.0,0.0,0.0,0.0,0.0,0.0,0.0,0.0,0.0,0.0,0.0,0.0,0.0,0.0,0.0,0.0,0.0,0.0,0.0,0.0,0.0,0.0,0.0,0.0,0.0,0.0,0.0,0.0,0.0,0.0,0.0,0.0,0.0,0.0,0.0,0.0,0.0,0.0,0.0,0.0,0.0,0.0,0.0,0.0,0.0,0.0,0.0,0.0,0.0,0.0,0.0,0.0,0.0,0.0,0.0,0.0,0.0,0.0,0.0,0.0,0.0,0.0,0.0,0.0,0.0,0.0,0.0,0.0,0.0,0.0,0.0,0.0,0.0,0.0,0.0,0.0,0.0,0.0,0.0,0.0,0.0,0.0,0.0,0.0,0.0,0.0,0.0,0.0,0.0,0.0,0.0,0.0,0.0,0.0,0.0,0.0,0.0,0.0,0.0,0.0,0.0,0.0,0.0,0.0,0.0,0.0,0.0,0.0,0.0,0.0,0.0,0.0,0.0,0.0,0.0,0.0,0.0,0.0,0.0,0.0,0.0,0.0,0.0,0.0,0.0,0.0,0.0,0.0,0.0,0.0,0.0,0.0,0.0,0.0,0.0,0.0,0.0,0.0,0.0,0.0,0.0,0.0,0.0,0.0,0.0,0.0,0.0,0.0,0.0,0.0,0.0,0.0,0.0,0.0,0.0,0.0,0.0,0.0,0.0,0.0,0.0,0.0,0.0,0.0,0.0,0.0,0.0,0.0,0.0,0.0,0.0,0.0,0.0,0.0,0.0,0.0,0.0,0.0,0.0,0.0,0.0,0.0,0.0,0.0,0.0,0.0,0.0,0.0,0.0,0.0,0.0,0.0,0.0,0.0,0.0,0.0,0.0,0.0,0.0,0.0,0.0,0.0,0.0,0.0,0.0,0.0,0.0,0.0,0.0,0.0,0.0,0.0,0.0,0.0,0.0,0.0,0.0,0.0,0.0,0.0,0.0,0.0,0.0,0.0,0.0,0.0,0.0,0.0,0.0,0.0,0.0,0.0,0.0,0.0,0.0,0.0,0.0,0.0,0.0,0.0,0.0,0.0,0.0,0.0,0.0,0.0,0.0,0.0,0.0,0.0,0.0,0.0,0.0,0.0,0.0,0.0,0.0,0.0,0.0,0.0,0.0,0.0,0.0,0.0,0.0,0.0,0.0,0.0,0.0,0.0,0.0,0.0,0.0,0.0,0.0,0.0,0.0,0.0,0.0,0.0,0.0,0.0,0.0,0.0,0.0,0.0,0.0,0.0,0.0,0.0,0.0,0.0,0.0,0.0,0.0,0.0,0.0,0.0,0.0,0.0,0.0,0.0,0.0,0.0,0.0,0.0,0.0,0.0,0.0,0.0,0.0,0.0,0.0,0.0,0.0,0.0,0.0,0.0,0.0,0.0,0.0,0.0,0.0,0.0,0.0,0.0,0.0,0.0,0.0,0.0,0.0,0.0,0.0,0.0,0.0,0.0,0.0,0.0,0.0,0.0,0.0,0.0,0.0,0.0,0.0,0.0,0.0,0.0,0.0,0.0,0.0,0.0,0.0,0.0,0.0,0.0,0.0,0.0,0.0,0.0,0.0,0.0,0.0,0.0,0.0,0.0,0.0,0.0,0.0,0.0,0.0,0.0,0.0,0.0,0.0,0.0,0.0,0.0,0.0,0.0,0.0,0.0,0.0,0.0,0.0,0.0,0.0,0.0,0.0,0.0,0.0,0.0,0.0,0.0,0.0,0.0,0.0,0.0,0.0,0.0,0.0,0.0,0.0,0.0,0.0,0.0,0.0,0.0,0.0,0.0,0.0,0.0,0.0,0.0,0.0,0.0,0.0,0.0,0.0,0.0,0.0,0.0,0.0,0.0,0.0,0.0,0.0,0.0,0.0,0.0,0.0,0.0,0.0,0.0,0.0,0.0,0.0,0.0,0.0,0.0,0.0,0.0,0.0,0.0,0.0,0.0,0.0,0.0,0.0,0.0,0.0,0.0,0.0,0.0,0.0,0.0,0.0,0.0,0.0,0.0,0.0,0.0,0.0,0.0,0.0,0.0,0.0,0.0,0.0,0.0,0.0,0.0,0.0,0.0,0.0,0.0,0.0,0.0,0.0,0.0,0.0,0.0,0.0,0.0,0.0,0.0,0.0,0.0,0.0,0.0,0.0,0.0,0.0,0.0,0.0,0.0,0.0,0.0,0.0,0.0,0.0,0.0,0.0,0.0,0.0,0.0,0.0,0.0,0.0,0.0,0.0,0.0,0.0,0.0,0.0,0.0,0.0,0.0,0.0,0.0,0.0,0.0,0.0,0.0,0.0,0.0,0.0,0.0,0.0,0.0,0.0,0.0,0.0,0.0,0.0,0.0,0.0,0.0,0.0,0.0,0.0,0.0,0.0,0.0,0.0,0.0,0.0,0.0,0.0,0.0,0.0,0.0,0.0,0.0,0.0,0.0,0.0,0.0,0.0,0.0,0.0,0.0,0.0,0.0,0.0,0.0,0.0,0.0,0.0,0.0,0.0,0.0,0.0,0.0,0.0,0.0,0.0,0.0,0.0,0.0,0.0,0.0,0.0,0.0,0.0,0.0,0.0,0.0,0.0,0.0,0.0,0.0,0.0,0.0,0.0,0.0,0.0,0.0,0.0,0.0,0.0,0.0,0.0,0.0,0.0,0.0,0.0,0.0,0.0,0.0,0.0,0.0,0.0,0.0,0.0,0.0,0.0,0.0,0.0,0.0,0.0,0.0,0.0,0.0,0.0,0.0,0.0,0.0,0.0,0.0,0.0,0.0,0.0,0.0,0.0,0.0,0.0,0.0,0.0,0.0,0.0,0.0,0.0,0.0,0.0,0.0,0.0,0.0,0.0,0.0,0.0,0.0,0.0,0.0,0.0,0.0,0.0,0.0,0.0,0.0,0.0,0.0,0.0,0.0,0.0,0.0,0.0,0.0,0.0,0.0,0.0,0.0,0.0,0.0,0.0,0.0,0.0,0.0,0.0,0.0,0.0,0.0,0.0,0.0,0.0,0.0,0.0,0.0,0.0,0.0,0.0,0.0,0.0,0.0,0.0,0.0,0.0,0.0,0.0,0.0,0.0,0.0,0.0,0.0,0.0,0.0,0.0,0.0,0.0,0.0,0.0,0.0,0.0,0.0,0.0,0.0,0.0,0.0,-2.6263,-2.5926,0.0,0.0,0.0,0.0,0.0,0.0,0.0,0.0,0.0,0.0,0.0,0.0,0.0,0.0,0.0,0.0,0.0,0.0,0.0,0.0,0.0,0.0,0.0,0.0,0.0,0.0,0.0,0.0,0.0,0.0,0.0,0.0,0.0,0.0,0.0,0.0,0.0,-2.3112,-2.3179,-2.3385,-2.3717,-2.3494,-2.3516,-2.3696,0.0,0.0,0.0,0.0,0.0,0.0,0.0,0.0,0.0,0.0,0.0,0.0,0.0,0.0,0.0,0.0,0.0,0.0,0.0,0.0,0.0,0.0,0.0,0.0,0.0,0.0,0.0,0.0,0.0,0.0,0.0,0.0,0.0,0.0,0.0,0.0,0.0,0.0,0.0,0.0,0.0,0.0,0.0,0.0,0.0,0.0,0.0,0.0,0.0,0.0,0.0,0.0,0.0,0.0,0.0,0.0,0.0,0.0,0.0,0.0,0.0,0.0,0.0,0.0,0.0,0.0,0.0,0.0,0.0,0.0,-2.6719,-2.6157,0.0,0.0,0.0,0.0,0.0,0.0,0.0,0.0,0.0,0.0,0.0,0.0,0.0,0.0,0.0,0.0,0.0,0.0,0.0,0.0,0.0,0.0,0.0,-2.4891,-2.4612,-2.44,-2.4006,-2.3767,-2.3767,0.0,0.0,0.0,0.0,0.0,-2.306,-2.297,-2.2925,-2.2925,-2.3157,-2.329,-2.3341,-2.3516,-2.3538,-2.3466,-2.3341,0.0,0.0,0.0,0.0,0.0,0.0,0.0,0.0,0.0,0.0,0.0,0.0,0.0,0.0,0.0,0.0,0.0,0.0,0.0,0.0,0.0,0.0,0.0,0.0,0.0,0.0,0.0,0.0,0.0,0.0,0.0,0.0,0.0,0.0,0.0,0.0,0.0,0.0,0.0,0.0,0.0,0.0,0.0,0.0,0.0,0.0,0.0,0.0,0.0,0.0,0.0,0.0,0.0,0.0,0.0,0.0,0.0,0.0,0.0,0.0,0.0,0.0,0.0,-2.6712,-2.7423,-2.815,-2.8616,-2.8818,-2.8755,-2.785,-2.7091,-2.6467,-2.6138,0.0,0.0,0.0,0.0,0.0,0.0,0.0,0.0,0.0,0.0,0.0,0.0,0.0,0.0,0.0,0.0,0.0,0.0,0.0,-2.5198,-2.4359,-2.4527,-2.4369,-2.3545,-2.3312,-2.3201,-2.3201,-2.3045,-2.2955,-2.2955,-2.2947,-2.2925,-2.2925,-2.2925,-2.297,-2.306,-2.3674,-2.3797,-2.3487,-2.3846,-2.376,-2.3319,-2.3319,-2.3501,-2.3794,0.0,0.0,0.0,0.0,0.0,0.0,0.0,0.0,0.0,0.0,0.0,0.0,0.0,0.0,0.0,0.0,0.0,0.0,0.0,0.0,0.0,0.0,0.0,0.0,0.0,0.0,0.0,0.0,0.0,0.0,0.0,0.0,0.0,0.0,0.0,0.0,0.0,0.0,0.0,0.0,0.0,-2.4287,-2.3831,0.0,0.0,0.0,0.0,0.0,0.0,0.0,0.0,0.0,0.0,0.0,0.0,0.0,-2.4515,-2.4641,-2.6043,-2.6857,-2.711,-2.8569,-2.9346,-2.9482,-3.0172,-3.0493,-3.0476,-3.0451,0.0,-2.8099,-2.8042,0.0,0.0,0.0,0.0,0.0,0.0,0.0,0.0,0.0,0.0,0.0,0.0,0.0,0.0,0.0,0.0,0.0,0.0,0.0,0.0,0.0,-2.3973,-2.3681,-2.3377,-2.3304,-2.326,-2.326,-2.3216,-2.3098,-2.2925,-2.2888,-2.2888,-2.2888,-2.2888,-2.297,-2.3105,-2.3588,-2.3674,-2.3385,-2.376,-2.3696,-2.3297,-2.3297,-2.3304,-2.3326,-2.309,0.0,0.0,0.0,0.0,0.0,0.0,0.0,0.0,0.0,0.0,0.0,0.0,0.0,0.0,0.0,0.0,0.0,0.0,0.0,0.0,0.0,0.0,0.0,0.0,0.0,0.0,0.0,0.0,0.0,0.0,0.0,0.0,0.0,0.0,0.0,0.0,0.0,0.0,0.0,-2.4021,-2.3839,-2.3788,-2.3573,-2.3451,0.0,0.0,0.0,0.0,0.0,0.0,0.0,0.0,0.0,-2.4732,-2.5375,-2.5758,-2.5805,-2.708,-2.7983,-2.8536,-2.948,-3.0362,-3.1164,-3.19,-3.2413,-3.2786,-3.3184,-3.2921,-3.2095,-3.0351,-2.9227,-2.8591,0.0,0.0,0.0,0.0,-2.8613,-2.9102,0.0,0.0,0.0,0.0,0.0,0.0,0.0,0.0,0.0,0.0,0.0,0.0,-2.412,-2.3754,-2.3458,-2.345,-2.3493,-2.3471,-2.3334,-2.3268,-2.3091,-2.2843,-2.2752,-2.2752,-2.282,-2.2925,-2.3045,-2.3223,-2.3501,-2.3566,-2.3451,-2.376,-2.3782,-2.3501,-2.3501,-2.337,-2.3142,-2.3,-2.2978,-2.2986,0.0,0.0,0.0,0.0,0.0,0.0,0.0,0.0,0.0,0.0,0.0,0.0,0.0,0.0,0.0,0.0,0.0,0.0,0.0,0.0,0.0,0.0,0.0,0.0,0.0,0.0,0.0,0.0,0.0,0.0,0.0,0.0,0.0,0.0,0.0,0.0,0.0,-2.3674,-2.3689,-2.3745,-2.3501,-2.3437,0.0,0.0,0.0,0.0,0.0,0.0,-2.5005,-2.5514,-2.5905,-2.6108,-2.6752,-2.7186,-2.7375,-2.8459,-2.9392,-3.0207,-3.0842,-3.1706,-3.278,-3.3471,-3.4134,-3.4805,-3.5267,-3.559,-3.5525,-3.2857,-3.1495,-3.1014,-3.0735,-3.0549,-3.0503,-3.0603,-3.1104,-3.171,0.0,0.0,0.0,0.0,0.0,0.0,0.0,0.0,0.0,0.0,0.0,-2.3837,-2.3659,-2.4173,-2.4277,-2.3638,-2.3752,-2.3659,-2.3149,-2.2881,-2.2686,-2.2615,-2.237,-2.2347,-2.2615,-2.2925,-2.3246,-2.3573,-2.3717,-2.3782,-2.3782,-2.4114,-2.4198,-2.4057,-2.4057,-2.3979,-2.3815,-2.3312,-2.3187,-2.3312,-2.2518,0.0,0.0,0.0,0.0,0.0,0.0,0.0,0.0,0.0,0.0,0.0,0.0,0.0,0.0,0.0,0.0,0.0,0.0,0.0,0.0,0.0,0.0,0.0,0.0,0.0,0.0,0.0,0.0,0.0,0.0,0.0,0.0,0.0,0.0,0.0,0.0,0.0,0.0,-2.3385,-2.3407,0.0,0.0,0.0,0.0,-2.4713,-2.5013,-2.5451,-2.6076,-2.6268,-2.6713,-2.748,-2.8143,-2.8801,-2.9457,-3.0586,-3.1486,-3.2173,-3.333,-3.3947,-3.4026,-3.4758,-3.5434,-3.6007,-3.6166,-3.6605,-3.7086,-3.5575,-3.4768,-3.4451,-3.4427,-3.4218,-3.4007,-3.4442,-3.4631,-3.4765,0.0,0.0,0.0,0.0,0.0,0.0,0.0,0.0,-2.3709,-2.3758,-2.4,-2.4015,-2.3638,-2.3921,-2.4006,-2.3638,-2.3852,-2.3809,-2.3326,-2.3458,-2.3304,-2.282,-2.2706,-2.2706,-2.2797,-2.2925,-2.3142,-2.3471,-2.3782,-2.4152,-2.4576,-2.4927,-2.5164,-2.5323,-2.5323,-2.505,-2.4574,-2.3949,-2.3566,-2.3363,-2.2957,-2.2586,0.0,0.0,0.0,0.0,0.0,0.0,0.0,0.0,0.0,0.0,0.0,0.0,0.0,0.0,0.0,0.0,0.0,0.0,0.0,0.0,0.0,0.0,0.0,0.0,0.0,0.0,0.0,0.0,0.0,0.0,0.0,0.0,0.0,0.0,0.0,0.0,0.0,-2.3727,-2.4139,0.0,-2.4677,-2.5097,-2.5458,-2.5692,-2.6545,-2.717,-2.7406,-2.8255,-2.8843,-2.9134,-3.0199,-3.0894,-3.1146,-3.199,-3.2512,-3.2751,-3.3562,-3.4196,-3.468,-3.6349,-3.7468,-3.8102,-3.9137,-3.9715,-3.9889,-3.9385,-3.798,-3.6125,-3.6125,-3.6083,-3.6083,-3.6257,-3.6543,-3.6848,0.0,0.0,0.0,0.0,0.0,0.0,0.0,-2.3392,-2.3551,-2.3595,-2.3867,-2.3994,-2.3788,-2.3852,-2.3894,-2.3846,-2.3958,-2.3873,-2.3493,-2.3458,-2.3231,-2.2684,-2.2737,-2.2873,-2.312,-2.3187,-2.3511,-2.4105,-2.4371,-2.4845,-2.5525,-2.5874,-2.6165,-2.6363,-2.6363,-2.6116,-2.5678,-2.5216,-2.4499,-2.3573,-2.337,-2.3105,-2.2814,0.0,0.0,0.0,0.0,0.0,0.0,0.0,0.0,0.0,0.0,0.0,0.0,0.0,0.0,0.0,0.0,0.0,0.0,0.0,0.0,0.0,0.0,0.0,0.0,0.0,0.0,0.0,0.0,0.0,0.0,0.0,0.0,0.0,0.0,-2.4043,-2.444,-2.4525,-2.5005,-2.5491,-2.5879,-2.6301,-2.6791,-2.7308,-2.8167,-2.8869,-2.931,-3.0176,-3.0778,-3.1029,-3.1883,-3.2545,-3.2972,-3.3414,-3.3841,-3.4283,-3.471,-3.5104,-3.5598,-3.7393,-3.8401,-3.8855,-4.0415,-4.1079,-4.1079,-4.1324,-4.0255,-3.8533,-3.8533,-3.8595,-3.8726,-3.8726,-3.8949,-3.9244,0.0,0.0,0.0,0.0,0.0,0.0,-2.3406,-2.3384,-2.3551,-2.394,-2.3782,-2.3745,-2.4063,-2.3985,-2.4021,-2.4261,-2.4042,-2.3794,-2.3573,-2.2859,-2.237,-2.2231,-2.2411,-2.2852,-2.3573,-2.3747,-2.4365,-2.5495,-2.5511,-2.5868,-2.6534,-2.6926,-2.7146,-2.7162,-2.7162,-2.7162,-2.713,-2.713,-2.595,-2.4064,-2.3784,-2.3581,-2.337,0.0,0.0,0.0,0.0,0.0,0.0,0.0,0.0,0.0,0.0,0.0,0.0,0.0,0.0,0.0,0.0,0.0,0.0,0.0,0.0,0.0,0.0,0.0,0.0,0.0,0.0,0.0,0.0,0.0,0.0,0.0,0.0,0.0,-2.4897,-2.5005,-2.5262,-2.5803,-2.6006,-2.6546,-2.7637,-2.7797,-2.8333,-2.9566,-2.9799,-3.0441,-3.1743,-3.1982,-3.2383,-3.3017,-3.3075,-3.3694,-3.4946,-3.496,-3.5545,-3.6781,-3.681,-3.681,-3.688,-3.7812,-3.8246,-3.8279,-3.9875,-4.0526,-4.0526,-4.1173,-4.1564,-4.1755,-4.1705,-4.1783,-4.1904,-4.1904,-4.1904,-4.1904,0.0,0.0,0.0,0.0,0.0,0.0,-2.312,-2.3246,-2.3493,-2.3752,-2.3973,-2.4147,-2.4302,-2.4266,-2.4137,-2.3809,-2.3937,-2.3702,-2.2941,-2.2904,-2.2859,-2.2709,-2.2844,-2.3135,-2.3595,-2.4205,-2.4787,-2.529,-2.576,-2.6478,-2.7377,-2.7588,-2.7938,-2.8416,-2.8523,-2.8284,-2.7826,-2.7826,-2.7196,-2.617,-2.5311,-2.4811,-2.446,0.0,0.0,0.0,0.0,0.0,0.0,0.0,0.0,0.0,0.0,0.0,0.0,0.0,0.0,0.0,0.0,0.0,0.0,0.0,0.0,0.0,0.0,0.0,0.0,0.0,0.0,0.0,0.0,0.0,0.0,0.0,-2.5579,-2.6008,-2.5626,-2.6003,-2.6515,-2.7113,-2.8041,-2.8738,-2.9044,-2.99,-3.0596,-3.0944,-3.1469,-3.1936,-3.2285,-3.322,-3.3802,-3.401,-3.4913,-3.5569,-3.5918,-3.5918,-3.6093,-3.6443,-3.6938,-3.7373,-3.7792,-3.9169,-4.0013,-4.0497,-4.1564,-4.2156,-4.237,-4.2567,-4.2809,-4.2991,-4.2076,-4.1783,-4.1904,-4.1904,-4.1904,-4.1904,0.0,0.0,0.0,0.0,0.0,0.0,-2.3444,-2.3523,-2.3745,-2.4,-2.4141,-2.4287,-2.4461,-2.422,-2.4006,-2.3809,-2.3909,-2.3653,-2.2873,-2.2822,-2.2934,-2.3113,-2.3246,-2.362,-2.4297,-2.4822,-2.5463,-2.6262,-2.6648,-2.7434,-2.8568,-2.8724,-2.9132,-2.9799,-2.9919,-2.9761,-2.9406,-2.9406,-2.9185,-2.8704,-2.75,-2.6485,-2.5606,-2.4576,-2.4123,-2.3947,-2.3532,-2.343,-2.3584,-2.413,0.0,0.0,0.0,0.0,0.0,0.0,0.0,0.0,0.0,0.0,0.0,0.0,0.0,0.0,0.0,0.0,0.0,0.0,0.0,0.0,0.0,0.0,0.0,0.0,-2.626,-2.6933,-2.7298,-2.7579,-2.8063,-2.8812,-2.9784,-3.0494,-3.0784,-3.1743,-3.244,-3.2716,-3.334,-3.3833,-3.4095,-3.4806,-3.5212,-3.5212,-3.5923,-3.6446,-3.6722,-3.6722,-3.6852,-3.7114,-3.7491,-3.785,-3.8186,-3.9727,-4.0432,-4.0585,-4.1981,-4.2554,-4.2507,-4.2912,-4.3204,-4.332,0.0,0.0,0.0,0.0,-4.2599,-4.2599,0.0,0.0,0.0,0.0,0.0,0.0,-2.4046,-2.4024,-2.4172,-2.4498,-2.4302,-2.4287,-2.463,-2.4099,-2.3809,-2.412,-2.3967,-2.3653,-2.3172,-2.2762,-2.2807,-2.3428,-2.3626,-2.4239,-2.5281,-2.5574,-2.6348,-2.7673,-2.775,-2.8467,-2.9775,-2.9882,-3.0315,-3.0948,-3.1124,-3.1173,-3.1173,-3.1198,-3.1182,-3.1088,-2.984,-2.8385,-2.6829,-2.5681,-2.5089,-2.4791,-2.4219,-2.4104,-2.4322,-2.471,0.0,0.0,0.0,0.0,0.0,0.0,0.0,0.0,0.0,0.0,0.0,0.0,0.0,0.0,0.0,0.0,0.0,0.0,0.0,0.0,0.0,0.0,0.0,0.0,-2.6774,-2.7604,-2.926,-2.945,-2.974,-3.0637,-3.1348,-3.2014,-3.264,-3.3336,-3.3989,-3.4588,-3.5189,-3.5755,-3.6272,-3.6373,0.0,0.0,0.0,-3.6809,-3.7404,-3.7404,-3.768,-3.8202,-3.8202,-3.8277,-3.8449,-3.9768,-4.01,-3.9743,-4.1591,-4.2126,-4.172,-4.2554,-4.2974,-4.3127,-4.3462,-4.3598,-4.3598,-4.3598,-4.3598,-4.3598,0.0,0.0,0.0,0.0,0.0,0.0,-2.4067,-2.4234,-2.4482,-2.471,-2.4564,-2.4605,-2.5103,-2.4666,-2.4359,-2.4421,-2.4297,-2.3952,-2.3377,-2.3024,-2.3091,-2.3696,-2.4272,-2.4795,-2.5296,-2.65,-2.7234,-2.745,-2.8006,-2.8684,-2.9487,-2.9596,-3.0043,-3.0695,-3.0923,-3.0974,-3.0888,-3.1099,-3.1149,-3.1017,-3.0849,-2.9927,-2.8493,-2.7199,-2.6663,-2.6604,-2.6463,-2.6451,-2.6473,-2.6458,-2.6625,-2.6815,-2.6682,-2.6361,0.0,0.0,0.0,0.0,0.0,0.0,0.0,0.0,0.0,0.0,0.0,0.0,0.0,0.0,0.0,0.0,0.0,0.0,0.0,-2.6927,-2.7911,-2.881,-2.9411,-3.0527,-3.1385,-3.1611,-3.2663,-3.3523,-3.4003,-3.479,-3.5475,-3.5903,-3.6054,-3.6185,-3.6301,-3.6823,-3.7114,-3.7114,-3.7593,-3.7897,-3.8028,-3.8028,-3.8086,-3.8202,-3.8202,0.0,-3.957,-3.9854,-4.0428,-4.1174,-4.114,-4.1474,-4.198,-4.1754,-4.2221,-4.3127,-4.3462,-4.3598,-4.3598,-4.3598,-4.3598,-4.3598,0.0,0.0,0.0,0.0,0.0,0.0,-2.4251,-2.4354,-2.4523,-2.4851,-2.4666,-2.4641,-2.5001,-2.4666,-2.438,-2.4302,-2.4015,-2.3852,-2.3852,-2.3545,-2.3588,-2.413,-2.4734,-2.5319,-2.5892,-2.6925,-2.7596,-2.7904,-2.8581,-2.9258,-2.9894,-3.0387,-3.0949,-3.1599,-3.1852,-3.192,-3.1857,-3.1998,-3.2024,-3.1914,-3.1616,-3.0873,-2.9791,-2.8449,-2.7704,-2.7293,-2.6882,-2.6969,-2.7228,-2.7183,-2.7458,-2.7738,-2.7095,-2.6715,-2.6428,0.0,0.0,0.0,0.0,0.0,0.0,0.0,0.0,0.0,0.0,0.0,0.0,0.0,0.0,-2.5534,-2.5833,0.0,-2.7212,-2.78,-2.8662,-2.9534,-3.0303,-3.1454,-3.2347,-3.254,-3.3587,-3.4509,-3.5,-3.5942,-3.6577,-3.6773,-3.7085,-3.7259,-3.7259,-3.7578,-3.7752,-3.7752,-3.8043,-3.8202,-3.8202,-3.8202,-3.8202,-3.8202,-3.8202,-3.8486,-3.9045,-3.9349,-3.9955,-4.0737,-4.0783,-4.1189,-4.1851,-4.1737,-4.2142,-4.2865,-4.3235,-4.3462,-4.3598,-4.3598,-4.3598,-4.3598,0.0,0.0,0.0,0.0,0.0,0.0,-2.432,-2.441,-2.4569,-2.4946,-2.4726,-2.462,-2.4782,-2.4544,-2.4302,-2.4183,-2.3852,-2.3831,-2.4302,-2.4094,-2.4094,-2.4477,-2.5145,-2.5817,-2.6461,-2.7211,-2.7857,-2.8411,-2.9064,-2.9725,-3.0417,-3.1211,-3.1928,-3.2578,-3.2746,-3.2843,-3.2816,-3.287,-3.287,-3.2796,-3.2246,-3.154,-3.0682,-2.9574,-2.8607,-2.7736,-2.7117,-2.7226,-2.7666,-2.7643,-2.7997,-2.8259,-2.7327,-2.6875,-2.652,-2.5605,-2.516,0.0,0.0,0.0,0.0,0.0,0.0,0.0,0.0,-2.521,-2.5208,-2.5331,-2.5738,-2.6145,-2.6375,-2.7216,-2.8112,-2.8831,-2.9442,-3.0174,-3.1151,-3.2157,-3.2925,-3.33,-3.4326,-3.5231,-3.5693,-3.6718,-3.7329,-3.7255,-3.7852,-3.8165,-3.8089,-3.8165,-3.8202,-3.8202,-3.8202,-3.8202,-3.8202,-3.8202,-3.8202,-3.8202,-3.8202,-3.8315,-3.856,-3.9038,-3.96,-4.0255,-4.0888,-4.1359,-4.1694,-4.22,-4.2607,-4.2943,-4.3211,-4.357,-4.3889,-4.3668,-4.3598,-4.3598,0.0,0.0,0.0,0.0,0.0,0.0,0.0,0.0,-2.4946,-2.4985,-2.4862,-2.4782,-2.4802,-2.4666,-2.4544,-2.4462,-2.4467,-2.4467,-2.4477,-2.4436,-2.4457,-2.4498,-2.5645,-2.6325,-2.6402,-2.7626,-2.8319,-2.8411,-2.9064,-2.9725,-3.0402,-3.11,-3.1778,-3.2425,-3.2578,-3.2578,-3.248,-3.2773,-3.28,-3.2648,-3.2749,-3.1977,-3.0775,-3.0509,-2.967,-2.8646,-2.8568,-2.8576,-2.8638,-2.8528,-2.8511,-2.8525,-2.8284,-2.7519,-2.6678,-2.6546,-2.5783,-2.5005,-2.5005,-2.5285,-2.555,-2.555,-2.555,-2.5647,0.0,-2.5966,-2.5955,-2.6511,-2.6644,-2.704,-2.8098,-2.8397,-2.8872,-3.0011,-3.0703,-3.1137,-3.1273,-3.2323,-3.3271,-3.3751,-3.5024,-3.5883,-3.5953,-3.695,-3.7434,-3.7035,-3.7744,-3.8052,-3.7687,-3.8028,-3.8202,-3.8202,-3.8202,-3.8202,-3.8202,-3.8202,-3.8202,-3.8202,-3.8202,-3.873,-3.9713,-3.9799,-4.0393,-4.1454,-4.2167,-4.2231,-4.1887,-4.3028,-4.3709,-4.4015,-4.4048,-4.4512,-4.4993,-4.3971,-4.3598,-4.3598,0.0,0.0,0.0,0.0,0.0,0.0,0.0,0.0,-2.4866,-2.4866,-2.4842,-2.4762,-2.4641,-2.4503,-2.4405,-2.438,-2.4482,-2.4503,-2.438,-2.4457,-2.4477,-2.438,-2.5278,-2.5964,-2.6402,-2.7334,-2.8011,-2.8411,-2.9064,-2.9525,-2.9833,-3.0505,-3.1182,-3.184,-3.1867,-3.2083,-3.2425,-3.2551,-3.2334,-3.1894,-3.199,-3.1212,-2.9964,-2.9929,-2.9342,-2.858,-2.858,-2.858,0.0,-2.8493,-2.8493,-2.8356,-2.7645,-2.7082,-2.6573,-2.5906,-2.537,-2.5132,-2.5824,-2.5974,-2.6087,-2.6591,-2.6594,-2.6498,-2.6589,-2.6489,-2.6511,-2.6738,-2.7379,-2.8003,-2.8505,-2.9455,-3.0337,-3.0839,-3.1422,-3.1938,-3.2314,-3.305,-3.3758,-3.4355,-3.5501,-3.6239,-3.6239,-3.6852,-3.7264,-3.7341,-3.7649,-3.7877,-3.7953,-3.8089,-3.8202,-3.8202,-3.8202,-3.8202,-3.8202,-3.8538,-3.8538,-3.8202,-3.8877,-3.9277,-3.9451,-4.0187,-4.1188,-4.2375,-4.2638,-4.2798,-4.2918,-4.311,-4.3481,-4.3915,-4.412,-4.439,-4.4641,-4.4603,-4.4702,-4.4887,0.0,0.0,0.0,0.0,0.0,0.0,0.0,0.0,0.0,0.0,-2.4762,-2.4641,-2.4462,-2.4359,-2.4302,-2.4302,-2.4421,-2.4436,-2.4302,-2.4421,-2.4436,-2.4302,-2.4927,-2.5564,-2.6072,-2.6765,-2.7442,-2.8119,-2.8812,-2.9218,-2.9402,-3.0079,-3.0674,-3.112,-3.112,-3.1382,-3.1859,-3.1859,-3.1567,-3.112,-3.112,-3.032,-2.9125,-2.9335,-2.8889,-2.815,-2.8334,-2.8411,-2.8411,-2.8411,-2.8411,-2.821,-2.7236,-2.6808,-2.6493,-2.5536,-2.5118,-2.5229,-2.6212,-2.6405,-2.6479,-2.7201,-2.7301,-2.7171,-2.707,-2.7037,-2.7131,-2.7488,-2.8234,-2.894,-2.9279,-3.0405,-3.1341,-3.1504,-3.2069,-3.2612,-3.3047,-3.3715,-3.4314,-3.4748,-3.5609,-3.6192,-3.6192,-3.6679,-3.7017,-3.707,-3.7303,-3.7534,-3.7672,-3.7825,-3.7863,-3.7863,-3.7863,-3.7863,-3.7863,-3.8315,-3.8352,-3.8052,-3.8863,-3.9294,-3.9423,-4.0834,-4.2007,-4.288,-4.3209,-4.3588,-4.3936,-4.372,-4.387,-4.4294,-4.4554,-4.471,-4.4831,-4.5371,-4.5554,-4.5498,0.0,0.0,0.0,0.0,0.0,0.0,0.0,0.0,0.0,0.0,-2.462,-2.4457,-2.4317,-2.4302,-2.4302,-2.4302,-2.4421,-2.4436,-2.4302,-2.4421,-2.4436,-2.4302,-2.4927,-2.5312,-2.5327,-2.6041,-2.6749,-2.7426,-2.8104,-2.8765,-2.9402,-3.0079,-3.0402,-3.0432,-3.0432,-3.0432,-3.0463,-3.0463,-3.0448,-3.0432,-3.0432,-2.9617,-2.8504,-2.9166,-2.8581,-2.7519,-2.8165,-2.8411,-2.8411,-2.8411,-2.8411,-2.8299,-2.768,-2.7119,-2.6587,-2.6042,-2.5453,-2.5127,-2.5768,-2.6121,-2.6388,-2.6737,-2.701,-2.7267,-2.7591,-2.7678,-2.8003,-2.919,-2.9461,-2.9841,-3.0988,-3.126,-3.1477,-3.2096,-3.268,-3.3074,-3.3101,-3.4068,-3.4775,-3.4788,-3.5357,-3.571,-3.571,-3.6508,-3.6665,-3.5831,-3.6547,-3.6836,-3.647,-3.6797,-3.7017,-3.7017,-3.7017,-3.7017,-3.7017,-3.7056,-3.725,-3.7625,-3.7649,-3.8484,-4.0048,-4.1918,-4.2777,-4.286,-4.4102,-4.465,-4.4733,-4.5408,-4.5708,-4.5744,-4.5744,-4.5965,-4.6221,-4.6256,-4.5615,-4.4804,0.0,0.0,0.0,0.0,0.0,0.0,0.0,0.0,0.0,0.0,0.0,0.0,0.0,0.0,0.0,0.0,-2.4338,-2.4359,-2.4302,-2.4338,-2.4359,-2.4302,-2.4533,-2.4835,-2.5281,-2.5527,-2.6026,-2.6734,-2.6949,-2.7165,-2.7342,-2.7572,-2.7941,-2.8411,-2.8411,-2.8673,-2.9064,-2.9064,-2.8827,-2.8411,-2.8411,-2.7873,-2.7149,-2.7811,-2.7796,-2.7426,0.0,-2.7795,-2.7795,-2.7795,-2.7555,-2.7251,-2.7016,-2.6587,-2.6069,-2.5467,-2.5447,-2.5716,-2.6268,-2.6656,-2.7067,-2.7751,-2.7873,-2.7886,-2.8216,-2.8302,-2.841,-2.8804,-2.9536,-3.0215,-3.0635,-3.1355,-3.1938,-3.2191,-3.2721,-3.3237,-3.3593,-3.4301,-3.4938,-3.5331,-3.5601,-3.571,-3.571,-3.5951,-3.6151,-3.6138,-3.6431,-3.6654,-3.6797,-3.6915,-3.6978,-3.6978,-3.6978,-3.6978,-3.6978,-3.7337,-3.7414,-3.7226,-3.8693,-4.0643,-4.2942,-4.3711,-4.4338,-4.4772,-4.4778,-4.5034,-4.5372,-4.4765,-4.4783,-4.5104,-4.4708,-4.4617,-4.4699,-4.4699,-4.448,-4.4387,0.0,0.0,0.0,0.0,0.0,0.0,0.0,0.0,0.0,0.0,0.0,0.0,0.0,0.0,0.0,0.0,0.0,-2.4302,-2.4302,-2.4302,-2.4302,-2.4302,-2.4302,-2.4502,-2.4927,-2.4927,-2.5302,-2.601,-2.601,-2.6118,-2.6349,-2.6349,-2.6595,-2.7026,-2.7026,-2.7272,-2.7688,-2.7673,-2.7411,-2.7011,-2.7026,-2.6626,-2.6072,-2.678,-2.7026,0.0,-2.6882,-2.7003,-2.7246,-2.7439,-2.7144,-2.6704,-2.6704,-2.6176,-2.555,-2.5363,-2.5602,-2.607,-2.6832,-2.7216,-2.758,-2.8343,-2.8415,-2.8351,-2.8556,-2.8587,-2.8655,-2.8872,-2.9536,-3.0215,-3.0649,-3.1355,-3.1938,-3.2178,-3.2861,-3.3512,-3.3853,-3.4612,-3.5249,-3.5669,-3.571,-3.571,-3.571,-3.571,-3.5844,-3.6138,-3.6138,-3.6244,-3.6508,-3.6547,-3.6547,-3.6547,-3.6547,-3.6547,-3.6547,-3.6858,-3.7243,-3.7576,-3.9078,-4.1152,-4.3689,-4.3942,-4.4499,-4.5241,-4.4896,-4.4971,-4.53,-4.4328,-4.4105,-4.4434,-4.4028,-4.3888,-4.3888,-4.3888,-4.3888,-4.4105,0.0,0.0,0.0,0.0,0.0,0.0,0.0,0.0,0.0,0.0,0.0,0.0,0.0,0.0,0.0,0.0,0.0,0.0,-2.4302,-2.4302,-2.4302,-2.4302,-2.4302,-2.4302,-2.4302,-2.4302,-2.4604,-2.525,-2.525,-2.561,-2.6287,-2.6287,-2.6287,-2.6287,-2.6287,-2.6287,-2.6287,-2.6219,-2.6204,-2.6204,-2.6272,-2.5872,-2.5327,-2.6057,-2.6334,-2.6252,-2.585,-2.6086,-2.6686,-2.7272,-2.7119,-2.6678,-2.6625,-2.5892,-2.5168,-2.5724,-2.5928,-2.624,-2.7393,-2.7732,-2.7881,-2.8451,-2.8587,-2.8587,-2.8587,-2.8587,-2.875,-2.9352,-2.9488,-2.9869,-3.0988,-3.126,-3.1477,-3.2083,-3.3132,-3.388,-3.3908,-3.4897,-3.5683,-3.571,-3.571,-3.571,-3.571,-3.571,-3.571,-3.571,-3.571,-3.571,-3.571,-3.571,-3.571,-3.571,-3.571,-3.571,-3.571,-3.571,-3.6693,-3.8592,-3.8767,-4.0078,-4.2378,-4.2748,-4.3388,-4.4228,-4.4419,-4.448,-4.4442,-4.4004,-4.381,-4.381,-4.381,-4.381,-4.381,-4.381,-4.381,-4.3849,0.0,0.0,0.0,0.0,0.0,0.0,0.0,0.0,0.0,0.0,0.0,0.0,0.0,0.0,0.0,0.0,0.0,0.0,-2.4302,-2.4302,-2.4302,-2.4302,-2.4302,-2.4302,-2.4302,-2.4302,-2.4374,-2.4564,-2.4564,-2.4656,-2.4841,-2.4841,-2.4841,-2.4841,-2.4841,-2.4841,-2.4841,-2.4825,-2.4804,-2.4804,-2.4841,-2.4733,-2.4641,-2.5333,-2.536,-2.5115,-2.555,-2.5581,-2.5588,-2.657,-2.6808,-2.6546,-2.5687,-2.5546,-2.5697,-2.5846,-2.6538,-2.7311,-2.7623,-2.803,-2.841,-2.8546,-2.8587,-2.8587,-2.8587,-2.8587,-2.8627,-2.879,-2.9203,-2.9597,-2.9909,-3.0676,-3.1341,-3.149,-3.2521,-3.3444,-3.384,-3.4545,-3.5181,-3.5669,-3.571,-3.571,-3.571,-3.571,-3.571,-3.571,-3.571,-3.571,-3.571,-3.571,-3.571,-3.571,-3.571,-3.571,-3.571,-3.571,-3.674,-3.874,-3.8922,-4.017,-4.2269,-4.2482,-4.2717,-4.2971,-4.2996,-4.3036,-4.3011,-4.2801,-4.2695,-4.271,-4.2607,-4.2555,-4.2555,-4.2555,-4.2555,-4.2596,0.0,0.0,0.0,0.0,0.0,0.0,0.0,0.0,0.0,0.0,0.0,0.0,0.0,0.0,0.0,0.0,0.0,0.0,0.0,-2.4302,-2.4302,-2.4302,-2.4302,-2.4302,-2.4302,-2.4302,-2.4302,-2.4302,-2.4302,-2.4302,-2.4302,-2.4302,-2.4302,-2.4302,-2.4302,-2.4302,-2.4302,-2.4302,-2.4302,0.0,0.0,-2.4177,-2.4061,-2.4633,-2.4615,-2.4353,-2.4742,-2.4905,-2.5101,-2.5748,-2.6295,-2.6493,-2.5342,-2.5412,-2.5941,-2.6212,-2.6972,-2.7773,-2.8017,-2.8343,-2.8587,-2.8587,-2.8587,-2.8587,-2.8587,-2.8587,-2.8587,-2.8587,-2.8858,-2.9203,-2.9461,-3.0059,-3.0676,-3.1205,-3.211,-3.2969,-3.3786,-3.4423,-3.5005,-3.5642,-3.571,-3.571,-3.571,-3.571,-3.571,-3.571,-3.571,-3.571,-3.571,-3.571,-3.571,-3.571,-3.571,-3.571,-3.571,-3.571,-3.6728,-3.8804,-3.8531,-3.9698,-4.2097,-4.178,-4.1903,-4.2246,-4.2068,-4.2082,-4.226,-4.2017,-4.202,-4.2184,-4.2119,-4.2092,-4.2092,-4.2092,-4.2092,-4.2092,0.0,0.0,0.0,0.0,0.0,0.0,0.0,0.0,0.0,0.0,0.0,0.0,0.0,0.0,0.0,0.0,0.0,0.0,0.0,0.0,-2.4302,-2.4302,-2.4302,-2.4302,-2.4302,-2.4302,-2.4302,-2.4302,-2.4302,-2.4302,-2.4302,-2.4302,-2.4302,-2.4302,-2.4302,-2.4302,-2.4302,-2.4302,-2.4302,-2.4302,-2.4302,-2.4015,-2.3638,0.0,-2.3998,-2.3661,-2.3616,-2.4195,-2.4982,-2.4901,-2.5645,-2.6402,-2.5356,-2.5466,-2.6117,-2.663,-2.7298,-2.7936,-2.8451,-2.8587,-2.8587,-2.8587,-2.8587,-2.8587,-2.8587,-2.8587,-2.8587,-2.8587,-2.8587,-2.875,-2.9298,-2.9461,-2.9882,-3.0988,-3.168,-3.2508,-3.3731,-3.4355,-3.4924,-3.5642,-3.571,-3.571,-3.571,-3.571,-3.571,-3.571,-3.571,-3.571,-3.571,-3.571,-3.571,-3.571,-3.571,-3.571,-3.571,-3.5791,-3.6783,-3.8613,-3.7962,-3.9046,-4.1603,-4.0788,-4.0873,-4.1617,-4.1226,-4.1268,-4.1617,-4.1325,-4.1438,-4.1829,-4.1885,-4.1926,-4.1926,-4.1926,-4.1968,-4.2009,0.0,0.0,0.0,0.0,0.0,0.0,0.0,0.0,0.0,0.0,-2.3533,-2.4302,0.0,0.0,0.0,0.0,0.0,0.0,0.0,0.0,0.0,-2.4302,-2.4302,-2.4302,-2.4302,-2.4302,-2.4302,-2.4302,-2.4302,-2.4302,-2.4302,-2.4302,-2.4302,-2.4302,-2.4302,-2.4302,-2.4302,-2.4302,-2.4302,-2.4302,-2.4302,-2.4015,-2.3595,-2.3696,0.0,0.0,-2.2536,-2.3592,-2.4926,-2.4409,-2.5052,-2.5907,-2.5216,-2.5765,-2.6657,-2.6766,-2.7596,-2.8465,-2.856,-2.8587,-2.8587,-2.8587,-2.8587,-2.8587,-2.8587,-2.8587,-2.8587,-2.8587,-2.8587,-2.8627,-2.8736,-2.9176,-2.9746,-3.0446,-3.1056,-3.2033,-3.3677,-3.4002,-3.4463,-3.5588,-3.571,-3.571,-3.571,-3.571,-3.571,-3.571,-3.571,-3.571,-3.571,-3.571,-3.571,-3.571,-3.571,-3.571,-3.571,-3.6198,-3.6892,-3.7725,-3.8073,-3.8801,-3.9763,-3.9587,-3.9631,-3.9763,-3.9675,-3.9675,-3.9807,-4.0126,-4.03,-4.0386,-4.0787,-4.0958,-4.0958,-4.0958,-4.1185,-4.1522,0.0,0.0,0.0,0.0,0.0,0.0,0.0,-2.1134,-2.1904,-2.2259,-2.3163,-2.3917,-2.4271,-2.4302,-2.4302,0.0,0.0,0.0,0.0,0.0,0.0,-2.4302,-2.4302,-2.4302,-2.4302,-2.4302,-2.4302,-2.4302,0.0,-2.4302,-2.4302,-2.4302,-2.4302,-2.4302,-2.4302,-2.4302,-2.4302,-2.4302,-2.4302,-2.4302,-2.4302,-2.3831,-2.3179,-2.3486,0.0,0.0,-2.2237,-2.2824,-2.3568,-2.396,-2.4464,-2.4957,-2.4994,-2.5846,-2.6793,-2.6793,-2.7664,-2.8587,-2.8587,-2.8587,-2.8587,-2.8587,-2.8587,-2.8587,-2.8587,-2.8587,-2.8587,-2.8587,-2.8587,-2.8587,-2.8587,-2.8831,-2.9319,-3.0256,-3.0649,-3.1558,-3.3609,-3.3908,-3.4355,-3.5574,-3.571,-3.571,-3.571,-3.571,-3.571,-3.571,-3.571,-3.571,-3.571,-3.571,-3.571,-3.571,-3.571,-3.571,-3.571,-3.6307,-3.6917,-3.7499,-3.8095,-3.8735,-3.9305,-3.9305,-3.9305,-3.9305,-3.9305,-3.9438,-3.9689,-3.9908,-4.0126,-4.0386,-4.0616,-4.083,-4.1043,-4.1043,-4.1354,-4.1745,0.0,0.0,0.0,0.0,0.0,0.0,0.0,-2.0875,-2.1553,-2.2212,-2.2871,-2.3563,-2.4241,-2.4302,-2.4302,0.0,0.0,0.0,0.0,0.0,0.0,0.0,0.0,0.0,-2.4302,0.0,0.0,-2.4302,-2.4302,0.0,0.0,0.0,0.0,0.0,-2.4302,-2.4302,-2.4281,-2.4198,-2.4156,0.0,0.0,-2.3508,-2.2595,0.0,0.0,0.0,0.0,-2.2046,-2.2225,-2.3311,-2.3852,-2.4122,-2.4582,-2.5679,-2.6793,-2.6793,-2.7664,-2.8587,-2.8587,-2.8587,-2.8587,-2.8587,-2.8587,-2.856,-2.8438,-2.8505,-2.8546,-2.8424,-2.8505,-2.8587,-2.8587,-2.8587,-2.894,-3.0025,-3.0323,-3.1192,-3.3406,-3.3826,-3.4355,-3.5574,-3.571,-3.571,-3.571,-3.571,-3.571,-3.571,-3.571,-3.571,-3.571,-3.571,-3.571,-3.571,-3.571,-3.571,-3.571,-3.6442,-3.7053,-3.7499,-3.826,-3.8844,-3.9305,-3.9305,-3.9305,-3.9305,-3.9305,-3.9526,-3.9865,-3.9865,-4.0083,-4.0386,-4.0386,-4.0616,-4.0958,-4.0958,-4.1269,-4.1662,0.0,0.0,0.0,0.0,0.0,0.0,0.0,-2.0912,-2.161,-2.2212,-2.2871,-2.3563,-2.4241,-2.4302,-2.4302,0.0,0.0,0.0,0.0,0.0,0.0,0.0,0.0,0.0,0.0,0.0,0.0,-2.4302,-2.4302,0.0,0.0,0.0,0.0,0.0,0.0,-2.4302,-2.4261,-2.3846,0.0,0.0,0.0,0.0,0.0,0.0,0.0,0.0,0.0,-2.1584,-2.1951,-2.2211,-2.3016,-2.3918,-2.3833,-2.5181,-2.6793,-2.6793,-2.7664,-2.8587,-2.8587,-2.8587,-2.8587,-2.8587,-2.8587,-2.8451,-2.7908,-2.8207,-2.8438,-2.7908,-2.822,-2.8587,-2.8587,-2.8587,-2.8804,-2.9488,-3.0038,-3.1042,-3.2925,-3.3607,-3.4355,-3.5574,-3.571,-3.571,-3.571,-3.571,-3.571,-3.571,-3.571,-3.571,-3.571,-3.571,-3.571,-3.571,-3.571,-3.571,-3.571,-3.6821,-3.7431,-3.7499,-3.8681,-3.9251,-3.9305,-3.9305,-3.9305,-3.9305,-3.9305,-3.9305,-3.9349,-3.9349,-3.9394,-3.9438,-3.9438,-3.9482,-3.9482,-3.9482,-3.9777,-4.017,0.0,0.0,0.0,0.0,0.0,0.0,-2.0356,-2.0605,-2.1007,-2.1612,-2.227,-2.2948,-2.3625,-2.4071,-2.4302,-2.4302,0.0,0.0,0.0,0.0,0.0,0.0,0.0,0.0,0.0,0.0,-2.3888,-2.3888,-2.4156,0.0,0.0,0.0,0.0,0.0,0.0,-2.4302,-2.4261,-2.3803,0.0,0.0,0.0,0.0,0.0,0.0,0.0,0.0,0.0,0.0,-2.1432,-2.1931,-2.2374,-2.2817,-2.3498,-2.453,-2.5571,-2.601,-2.7047,-2.8058,-2.8058,-2.8315,-2.8587,-2.8587,-2.8329,-2.8003,-2.7759,-2.7547,-2.7444,-2.7646,-2.7832,-2.8071,-2.8532,-2.8587,-2.879,-2.9407,-2.9998,-3.0907,-3.2368,-3.3349,-3.4219,-3.5046,-3.5506,-3.571,-3.571,-3.571,-3.571,-3.571,-3.571,-3.571,-3.571,-3.571,-3.571,-3.571,-3.571,-3.5886,-3.6252,-3.7065,-3.7662,-3.8027,-3.8912,-3.9305,-3.9305,-3.9305,-3.9305,-3.9305,-3.9305,-3.9305,-3.9305,-3.9305,-3.9305,-3.9305,-3.9305,-3.9482,-3.9733,-3.9733,-3.9996,-4.043,0.0,0.0,0.0,0.0,0.0,-2.046,-2.0373,-2.0388,-2.0619,-2.1229,-2.1889,-2.2567,-2.3225,-2.3902,-2.4302,-2.4302,-2.4302,0.0,0.0,0.0,0.0,0.0,0.0,0.0,0.0,0.0,-2.353,-2.3399,-2.3724,-2.3952,0.0,0.0,-2.4177,-2.4302,0.0,0.0,0.0,0.0,0.0,0.0,0.0,0.0,0.0,0.0,0.0,0.0,0.0,0.0,0.0,0.0,0.0,-2.1981,-2.2844,-2.3656,-2.45,-2.5437,-2.6512,-2.7385,-2.7416,-2.7746,-2.8071,-2.8071,-2.7759,-2.7393,-2.7216,-2.6894,-2.6823,-2.7335,-2.7489,-2.7755,-2.8368,-2.8554,-2.8722,-2.911,-2.9842,-3.0758,-3.1775,-3.3091,-3.4124,-3.4721,-3.5317,-3.571,-3.571,-3.571,-3.571,-3.571,-3.571,-3.571,-3.571,-3.571,-3.571,-3.571,-3.5886,-3.6171,-3.6605,-3.7392,-3.796,-3.8423,-3.902,-3.9305,-3.9305,-3.9305,-3.9305,-3.9305,-3.9305,-3.9305,-3.9305,-3.9305,-3.9305,-3.9305,-3.9305,-3.9526,-3.9777,-3.9777,-3.9996,-4.03,0.0,0.0,0.0,0.0,0.0,0.0,-2.0321,-2.0371,-2.0619,-2.1229,-2.1889,-2.2567,-2.3225,-2.3902,-2.4302,-2.4302,-2.4302,0.0,0.0,0.0,0.0,0.0,0.0,0.0,0.0,0.0,-2.3377,-2.2912,-2.2912,-2.3157,-2.3595,-2.3595,-2.3867,-2.4302,0.0,0.0,0.0,0.0,0.0,0.0,0.0,0.0,-2.2114,0.0,0.0,0.0,0.0,0.0,0.0,0.0,0.0,0.0,0.0,-2.2644,-2.3979,-2.5316,-2.6139,-2.6654,-2.6776,-2.6806,-2.682,-2.682,-2.6806,-2.6644,-2.605,-2.6375,-2.6793,-2.6806,-2.7267,-2.7818,-2.8212,-2.8476,-2.8554,-2.8333,-2.9504,-3.0622,-3.1219,-3.2796,-3.4124,-3.4721,-3.5317,-3.571,-3.571,-3.571,-3.571,-3.571,-3.571,-3.571,-3.571,-3.571,-3.571,-3.571,-3.628,-3.6592,-3.6605,-3.7799,-3.841,-3.8423,-3.902,-3.9305,-3.9305,-3.9305,-3.9305,-3.9305,-3.9305,-3.9305,-3.9305,-3.9305,-3.9305,-3.9305,-3.9305,-3.9305,-3.9305,-3.9305,-3.9305,-3.9305,0.0,0.0,0.0,0.0,0.0,0.0,0.0,-2.0388,-2.0448,-2.0597,-2.1596,-2.2382,-2.2578,-2.3625,-2.4302,-2.4302,-2.4302,0.0,0.0,0.0,0.0,0.0,0.0,0.0,0.0,-2.329,-2.3046,-2.2889,-2.2889,-2.2979,-2.3113,-2.3113,-2.3377,-2.3824,-2.3486,-2.3399,0.0,0.0,0.0,0.0,0.0,-2.1326,-2.1496,0.0,0.0,0.0,0.0,0.0,0.0,0.0,0.0,0.0,0.0,0.0,0.0,-2.4044,-2.511,-2.6007,-2.6156,-2.6407,-2.6671,-2.6671,-2.6347,-2.5953,-2.5617,-2.5504,-2.5673,-2.6509,-2.6819,-2.722,-2.8145,-2.8476,-2.849,-2.8197,-2.9417,-3.0438,-3.0462,-3.2438,-3.3975,-3.4165,-3.5073,-3.571,-3.571,-3.571,-3.571,-3.571,-3.571,-3.571,-3.571,-3.6103,-3.6144,-3.5723,-3.6293,-3.6809,-3.7187,-3.8016,-3.8627,-3.902,-3.921,-3.9305,-3.9305,-3.9305,-3.9305,-3.9305,-3.9305,-3.9305,-3.9305,-3.9305,-3.9305,-3.9305,-3.9305,-3.9305,-3.9305,-3.9305,-3.9305,-3.9305,0.0,0.0,0.0,0.0,0.0,0.0,0.0,-2.0371,-2.0354,-2.0304,-2.1473,-2.2305,-2.2305,-2.3502,-2.4302,-2.4302,-2.4135,0.0,0.0,0.0,0.0,0.0,0.0,0.0,-2.3334,-2.3046,-2.2799,-2.2655,-2.2434,-2.2434,-2.2655,-2.2655,-2.2867,-2.3246,-2.2957,-2.2807,0.0,0.0,0.0,0.0,-2.1253,-2.1253,-2.1204,0.0,0.0,0.0,0.0,0.0,0.0,0.0,0.0,0.0,0.0,0.0,0.0,0.0,-2.4086,-2.496,-2.5378,-2.567,-2.5848,-2.5848,-2.5553,-2.5242,-2.5125,-2.4903,-2.507,-2.6338,-2.6549,-2.6836,-2.8002,-2.8379,-2.8392,-2.8033,-2.9336,-3.0336,-3.0123,-3.228,-3.407,-3.4517,-3.5222,-3.571,-3.571,-3.571,-3.571,-3.571,-3.571,-3.571,-3.571,-3.628,-3.6429,-3.6062,-3.6849,-3.7473,-3.7824,-3.845,-3.8939,-3.9305,-3.9305,-3.9305,-3.9305,-3.9305,-3.9305,-3.9305,-3.9305,-3.9305,0.0,-3.9305,-3.9305,-3.9305,-3.9305,-3.9305,-3.9305,-3.9305,-3.9305,-3.9305,0.0,0.0,0.0,0.0,0.0,0.0,0.0,-2.0304,-2.0304,-2.0304,-2.1473,-2.2305,-2.2305,-2.3502,-2.4302,-2.4302,0.0,0.0,0.0,0.0,0.0,0.0,0.0,0.0,-2.2912,-2.2889,-2.2663,-2.2208,-2.1664,-2.1664,-2.2137,-2.2137,-2.231,-2.2626,-2.2603,-2.2273,-2.1722,-2.1326,-2.118,-2.1204,-2.1326,-2.1302,0.0,0.0,0.0,0.0,0.0,0.0,0.0,0.0,0.0,0.0,0.0,0.0,0.0,0.0,0.0,0.0,0.0,-2.4664,-2.4578,-2.4578,-2.4578,-2.4591,-2.4563,-2.4591,0.0,-2.6307,-2.6444,-2.6667,-2.7899,-2.8216,-2.8203,-2.7895,-2.9295,-3.0363,-3.021,-3.2374,-3.4395,-3.5574,-3.571,-3.571,-3.571,-3.571,-3.571,-3.571,-3.571,-3.571,-3.571,-3.628,-3.6619,-3.6659,-3.7799,-3.8423,-3.8423,-3.9007,-3.9305,-3.9305,-3.9305,-3.9305,-3.9305,-3.9305,-3.9305,-3.9305,-3.9305,-3.9305,-3.9305,-3.9305,-3.9305,-3.9305,-3.9305,-3.9305,-3.9305,-3.9305,-3.9305,-3.9305,0.0,0.0,0.0,0.0,0.0,0.0,0.0,0.0,0.0,0.0,-2.1473,-2.2305,-2.2305,-2.3502,-2.4302,0.0,0.0,0.0,0.0,0.0,0.0,0.0,0.0,0.0,-2.2912,-2.2889,-2.2663,-2.2208,-2.1664,-2.1423,-2.1447,-2.1447,-2.1626,-2.1992,-2.1565,-2.1313,-2.118,-2.1035,-2.1059,-2.118,-2.1106,-2.1131,0.0,0.0,0.0,0.0,-2.1033,-2.0997,0.0,0.0,0.0,0.0,0.0,0.0,0.0,0.0,-2.2944,-2.3439,-2.4204,0.0,-2.4379,-2.4379,-2.4379,-2.4334,0.0,-2.4505,-2.507,-2.6159,-2.6417,-2.6792,-2.7899,-2.8216,-2.8271,-2.8268,-2.9461,-3.0613,-3.1168,-3.3176,-3.4856,-3.5628,-3.571,-3.571,-3.571,-3.571,-3.571,-3.571,-3.571,-3.571,-3.571,-3.628,-3.6822,-3.7255,-3.803,-3.8423,-3.8423,-3.9007,-3.9305,-3.9305,-3.9305,-3.9305,-3.9305,-3.9305,-3.9305,-3.9305,-3.9305,-3.9305,-3.9305,-3.9305,-3.9305,-3.9305,-3.9305,-3.9305,-3.9305,-3.9305,-3.9305,-3.9305,0.0,0.0,0.0,0.0,0.0,0.0,0.0,0.0,0.0,0.0,0.0,-2.2748,-2.2748,-2.3686,0.0,0.0,0.0,0.0,0.0,0.0,0.0,0.0,0.0,-2.2844,-2.2572,-2.2586,-2.2449,-2.2208,-2.1616,-2.1277,-2.1204,-2.1131,-2.1218,-2.1364,-2.1021,-2.0923,-2.0997,-2.0924,-2.1048,-2.1277,-2.1155,0.0,0.0,0.0,0.0,0.0,-2.1033,-2.0972,0.0,-2.0762,-2.0699,-2.0699,0.0,0.0,0.0,0.0,-2.2651,-2.3027,-2.395,-2.4203,-2.4203,-2.4203,-2.4203,-2.4203,-2.4203,-2.4405,-2.4898,-2.6054,-2.6263,-2.6636,-2.7866,-2.8164,-2.8318,-2.8635,-2.9657,-3.0945,-3.2428,-3.3887,-3.5005,-3.5642,-3.571,-3.571,-3.571,-3.571,-3.571,-3.571,-3.571,-3.571,-3.571,-3.628,-3.689,-3.7472,-3.8068,-3.8545,-3.8817,-3.9142,-3.9305,-3.9305,-3.9305,-3.9305,-3.9305,-3.9305,-3.9305,-3.9305,-3.9305,-3.9305,-3.9305,-3.9305,-3.9305,-3.9305,-3.9305,-3.9305,-3.9332,-3.9604,-3.9699,-3.9753,0.0,0.0,0.0,0.0,0.0,0.0,0.0,0.0,0.0,0.0,0.0,0.0,0.0,0.0,0.0,0.0,0.0,0.0,0.0,0.0,0.0,0.0,-2.1973,-2.2161,-2.2091,-2.2161,-2.2161,-2.2067,-2.1496,-2.118,-2.1144,-2.1046,-2.0936,-2.0863,-2.0737,-2.0799,-2.0972,-2.0924,-2.1097,-2.135,-2.1229,0.0,0.0,0.0,0.0,0.0,0.0,0.0,0.0,-2.0737,-2.0699,-2.0699,-2.0699,0.0,0.0,0.0,0.0,0.0,-2.3796,-2.4112,-2.4141,-2.4112,-2.4112,-2.4157,-2.4263,-2.4321,-2.4723,-2.6024,-2.6153,-2.6479,-2.7833,-2.8112,-2.8372,-2.9005,-3.0123,-3.1617,-3.3623,-3.4504,-3.5114,-3.5655,-3.571,-3.571,-3.571,-3.571,-3.571,-3.571,-3.571,-3.571,-3.571,-3.6185,-3.6795,-3.7472,-3.7987,-3.8613,-3.9292,-3.9305,-3.9305,-3.9305,-3.9305,-3.9305,-3.9305,-3.9305,-3.9305,-3.9305,-3.9305,-3.9305,-3.9305,-3.9305,-3.9305,-3.9305,-3.9305,-3.9359,-3.9495,-3.9997,-4.0241,-4.0418,0.0,0.0,0.0,0.0,0.0,0.0,0.0,0.0,0.0,0.0,0.0,0.0,0.0,0.0,0.0,0.0,0.0,0.0,0.0,0.0,0.0,-2.2091,-2.2161,-2.1996,-2.1544,-2.1973,-2.1926,-2.135,-2.1253,-2.1095,-2.0938,-2.0913,-2.085,-2.0737,-2.0712,-2.0787,-2.0913,-2.0888,-2.1023,-2.1229,-2.1082,0.0,0.0,0.0,0.0,0.0,0.0,0.0,0.0,-2.0737,-2.0699,-2.0699,-2.0699,0.0,0.0,0.0,0.0,0.0,-2.39,-2.4187,-2.4247,-2.4141,-2.4187,-2.4263,-2.4292,-2.4421,-2.4896,-2.6054,-2.6263,-2.6636,-2.7866,-2.8183,-2.8564,-2.9504,-3.1656,-3.3349,-3.3815,-3.4856,-3.5615,-3.571,-3.571,-3.571,-3.571,-3.571,-3.571,-3.571,-3.571,-3.571,-3.571,-3.5805,-3.6375,-3.7458,-3.758,-3.8149,-3.9292,-3.9305,-3.9305,-3.9305,-3.9305,-3.9305,-3.9305,-3.9305,-3.9305,-3.9305,-3.9305,-3.9305,-3.9305,-3.9305,-3.9305,-3.9305,-3.9305,-3.9604,-4.0051,-4.016,-4.0526,-4.1055,0.0,0.0,0.0,0.0,0.0,0.0,0.0,0.0,0.0,0.0,0.0,0.0,0.0,0.0,0.0,0.0,0.0,0.0,0.0,0.0,-2.1769,-2.1769,-2.1712,-2.1592,-2.1399,-2.1568,-2.152,-2.1204,-2.1084,-2.0999,-2.0901,-2.0838,-2.0762,-2.0699,-2.0699,-2.0762,-2.0901,-2.0825,-2.0911,-2.1082,0.0,0.0,0.0,0.0,0.0,0.0,0.0,0.0,0.0,0.0,-2.0699,-2.0699,-2.0699,0.0,0.0,0.0,0.0,0.0,-2.3926,-2.4203,-2.4292,-2.4218,-2.4347,-2.4571,-2.4965,-2.5132,-2.551,-2.6644,-2.6885,-2.7153,-2.8055,-2.8504,-2.9282,-3.085,-3.262,-3.3939,-3.4341,-3.5127,-3.571,-3.571,-3.571,-3.571,-3.571,-3.571,-3.571,-3.571,-3.571,-3.571,-3.571,-3.571,-3.6225,-3.7458,-3.7485,-3.8055,-3.9292,-3.9305,-3.9305,-3.9305,-3.9305,-3.9305,-3.9305,-3.9305,-3.9305,-3.9305,-3.9305,-3.9305,-3.9305,-3.9305,-3.9305,-3.9305,-3.9305,-3.9671,-4.0268,-4.092,-4.1557,-4.2114,0.0,0.0,0.0,0.0,0.0,0.0,0.0,0.0,0.0,0.0,0.0,0.0,0.0,0.0,0.0,0.0,0.0,0.0,0.0,-2.1447,-2.1423,-2.1544,-2.1302,-2.1229,-2.135,-2.1229,-2.1144,-2.112,-2.0987,-2.0888,-2.0863,-2.0737,-2.0699,-2.0699,-2.0699,-2.0762,-2.0838,-2.0775,-2.0837,-2.0972,0.0,0.0,0.0,0.0,0.0,0.0,0.0,0.0,0.0,0.0,0.0,0.0,0.0,0.0,0.0,-2.2414,-2.2975,-2.3496,-2.3965,-2.4232,-2.4379,-2.4379,-2.4614,-2.4998,-2.5558,-2.5803,-2.6193,-2.7198,-2.7413,-2.7642,-2.8368,-2.9154,-3.0233,-3.1938,-3.3173,-3.4111,-3.4707,-3.5303,-3.571,-3.571,-3.571,-3.571,-3.571,-3.571,-3.571,-3.571,-3.571,-3.571,-3.571,-3.571,-3.6225,-3.7458,-3.7485,-3.8055,-3.9292,-3.9305,-3.9305,-3.9305,-3.9305,-3.9305,-3.9305,-3.9305,-3.9305,-3.9305,-3.9305,-3.9305,-3.9305,-3.9305,-3.9305,-3.9305,-3.9305,-3.9753,-4.054,-4.1612,-4.2371,-4.2887,0.0,0.0,0.0,0.0,0.0,0.0,0.0,0.0,0.0,0.0,0.0,0.0,0.0,0.0,0.0,0.0,0.0,0.0,0.0,-2.1568,-2.1447,-2.1949,-2.135,-2.1082,-2.1204,-2.1082,-2.0985,-2.0913,-2.0926,-2.0838,-2.0699,-2.0699,-2.0699,-2.0699,-2.0699,-2.0712,-2.0712,-2.0838,-2.0888,-2.0913,-2.0985,0.0,0.0,0.0,0.0,0.0,0.0,0.0,0.0,0.0,0.0,0.0,0.0,0.0,-2.244,-2.2988,-2.3576,-2.4031,-2.4083,-2.4332,-2.4578,-2.4578,-2.5108,-2.5641,-2.5681,-2.6139,-2.6687,-2.7292,-2.744,-2.7835,-2.8932,-3.024,-3.1382,-3.211,-3.3173,-3.4111,-3.4707,-3.5303,-3.571,-3.571,-3.571,-3.571,-3.571,-3.571,-3.571,-3.571,-3.571,-3.571,-3.571,-3.571,-3.6225,-3.7458,-3.7485,-3.8055,-3.9292,-3.9305,-3.9305,-3.9305,-3.9305,-3.9305,-3.9305,-3.9305,-3.9305,-3.9305,-3.9305,-3.9305,-3.9305,-3.9305,-3.9305,-3.9305,-3.9305,-4.0024,-4.1123,-4.1774,-4.2371,-4.2887,0.0,0.0,0.0,0.0,0.0,0.0,0.0,0.0,0.0,0.0,0.0,0.0,0.0,0.0,0.0,0.0,0.0,0.0,0.0,-2.1399,-2.1302,-2.1496,-2.1133,-2.0949,-2.1023,-2.0949,-2.0938,-2.0901,-2.0825,-2.0737,-2.0699,-2.0699,-2.0699,-2.0699,-2.0699,-2.0699,-2.0699,-2.0737,-2.0775,-2.0775,-2.0812,-2.0799,0.0,0.0,0.0,0.0,0.0,0.0,0.0,0.0,-2.0923,-2.1224,-2.1446,-2.2152,-2.2936,-2.313,-2.3642,-2.4083,-2.4083,-2.4345,-2.4642,-2.4898,-2.5668,-2.638,-2.638,-2.6748,-2.7297,-2.7985,-2.8481,-2.9104,-3.0288,-3.1251,-3.2155,-3.3081,-3.3921,-3.4666,-3.5249,-3.5574,-3.571,-3.571,-3.571,-3.571,-3.571,-3.571,-3.571,-3.571,-3.571,-3.571,-3.571,-3.571,-3.6225,-3.7458,-3.7485,-3.8055,-3.9292,-3.9305,-3.9305,-3.9305,-3.9305,-3.9305,-3.9305,-3.9305,-3.9305,-3.9305,-3.9305,-3.9305,-3.9305,-3.9305,-3.9305,-3.9346,-3.9699,-4.0377,-4.1191,-4.1788,-4.2371,-4.2887,0.0,0.0,0.0,0.0,0.0,0.0,0.0,0.0,0.0,0.0,0.0,0.0,0.0,0.0,0.0,0.0,0.0,0.0,-2.135,-2.1193,-2.1109,-2.1109,-2.0974,-2.0888,-2.0838,-2.0888,-2.0888,-2.0838,-2.0737,-2.0699,-2.0699,-2.0699,-2.0699,-2.0699,-2.0699,-2.0699,-2.0699,-2.0699,-2.0699,-2.0699,-2.0699,-2.0699,0.0,0.0,0.0,0.0,0.0,0.0,0.0,0.0,-2.1315,-2.1799,-2.1968,-2.2556,-2.3221,-2.3446,-2.3814,-2.4157,-2.4157,-2.4493,-2.4922,-2.5276,-2.6149,-2.6995,-2.7308,-2.7733,-2.8228,-2.879,-2.9529,-3.0398,-3.1382,-3.2096,-3.2847,-3.4002,-3.4531,-3.4992,-3.5642,-3.571,-3.571,-3.571,-3.571,-3.571,-3.571,-3.571,-3.571,-3.571,-3.571,-3.571,-3.571,-3.571,-3.6185,-3.716,-3.739,-3.7973,-3.902,-3.921,-3.9305,-3.9305,-3.9305,-3.9305,-3.9305,-3.9305,-3.9305,-3.9305,-3.9305,-3.9305,-3.9305,-3.9305,-3.9305,-3.9346,-3.9739,-4.0404,-4.1164,-4.1571,-4.2222,-4.2887,0.0,0.0,0.0,0.0,0.0,0.0,0.0,0.0,0.0,0.0,0.0,0.0,0.0,0.0,0.0,0.0,0.0,0.0,-2.1204,-2.1023,-2.0901,-2.0901,-2.0901,-2.0838,-2.0699,-2.0825,-2.0825,-2.0699,-2.0699,-2.0699,-2.0699,-2.0699,-2.0699,-2.0699,-2.0699,-2.0699,-2.0699,-2.0699,-2.0699,-2.0699,-2.0699,-2.0699,-2.0699,0.0,0.0,0.0,0.0,0.0,0.0,0.0,-2.1917,-2.2505,-2.3013,-2.3182,-2.3313,-2.3913,-2.4203,-2.4292,-2.4292,-2.4845,-2.5458,-2.5636,-2.6457,-2.7469,-2.84,-2.9081,-2.9515,-2.9529,-3.0459,-3.1477,-3.211,-3.2707,-3.3495,-3.4599,-3.4788,-3.5005,-3.5642,-3.571,-3.571,-3.571,-3.571,-3.571,-3.571,-3.571,-3.571,-3.571,-3.571,-3.571,-3.571,-3.571,-3.5995,-3.6578,-3.7216,-3.777,-3.841,-3.9007,-3.9305,-3.9305,-3.9305,-3.9305,-3.9305,-3.9305,-3.9305,-3.9305,-3.9305,-3.9305,-3.9305,-3.9305,-3.9305,-3.9305,-3.9305,-4.0051,-4.1123,-4.1123,-4.1869,-4.2887,0.0,0.0,0.0,0.0,0.0,0.0,0.0,0.0,0.0,0.0,0.0,0.0,0.0,0.0,0.0,0.0,0.0,0.0,-2.1057,-2.0997,-2.0985,-2.0985,-2.0938,-2.0888,-2.0838,-2.08,-2.0737,-2.0699,-2.0699,-2.0699,-2.0699,-2.0699,-2.0699,-2.0699,-2.0699,-2.0699,-2.0699,-2.0699,-2.0699,-2.0699,-2.0699,-2.0699,-2.0751,0.0,0.0,0.0,0.0,0.0,0.0,0.0,0.0,0.0,-2.313,-2.3483,-2.3861,-2.4031,-2.4141,-2.4157,-2.4157,-2.4783,-2.5492,-2.5874,-2.6783,-2.7818,-2.8797,-2.9147,-2.9558,-3.0581,-3.1042,-3.1599,-3.2653,-3.3281,-3.3894,-3.4666,-3.5141,-3.552,-3.5683,-3.571,-3.571,-3.571,-3.571,-3.571,-3.571,-3.571,-3.571,-3.571,-3.571,-3.571,-3.571,-3.571,-3.5995,-3.6578,-3.7216,-3.777,-3.841,-3.9007,-3.9305,-3.9305,-3.9305,-3.9305,-3.9305,-3.9305,-3.9305,-3.9305,-3.9305,-3.9305,-3.9305,-3.9305,-3.9305,-3.9305,-3.9305,-4.0051,-4.1123,-4.1123,-4.1869,-4.2887,0.0,0.0,0.0,0.0,0.0,0.0,0.0,0.0,0.0,0.0,-2.1616,-2.1375,0.0,0.0,0.0,0.0,0.0,0.0,-2.1082,-2.0997,-2.0961,-2.0961,-2.0949,-2.0949,-2.1023,-2.085,-2.0775,-2.0775,-2.0737,-2.0699,-2.0699,-2.0699,-2.0699,-2.0699,-2.0699,-2.0699,-2.0699,-2.0699,-2.0805,-2.0989,-2.0733,-2.0914,-2.1368,0.0,0.0,0.0,0.0,0.0,0.0,0.0,0.0,0.0,-2.3548,-2.3825,-2.4112,-2.4157,-2.4245,-2.4355,-2.4651,-2.5276,-2.5982,-2.6569,-2.7346,-2.8228,-2.941,-2.9855,-3.0335,-3.1436,-3.1829,-3.2291,-3.324,-3.3892,-3.4463,-3.5046,-3.5439,-3.571,-3.571,-3.571,-3.571,-3.571,-3.571,-3.571,-3.571,-3.571,-3.571,-3.571,-3.571,-3.571,-3.571,-3.571,-3.5886,-3.6239,-3.6849,-3.7418,-3.8027,-3.8654,-3.9061,-3.9305,-3.9305,-3.9305,-3.9305,-3.9305,-3.9305,-3.9305,-3.9305,-3.9305,-3.9305,-3.9305,-3.9305,-3.9305,-3.9305,-4.0051,-4.1123,-4.1123,-4.1869,-4.2887,0.0,0.0,0.0,0.0,0.0,0.0,0.0,0.0,0.0,0.0,-2.1375,-2.1326,0.0,0.0,0.0,0.0,0.0,0.0,0.0,-2.101,-2.0938,-2.0938,-2.0985,-2.1057,-2.118,-2.0974,-2.0901,-2.0901,-2.0775,-2.0699,-2.0699,-2.0699,-2.0699,-2.0699,-2.0751,-2.0777,-2.0791,-2.0818,-2.1094,-2.1446,-2.0903,-2.1342,-2.2252,-2.1756,0.0,0.0,0.0,0.0,0.0,0.0,0.0,0.0,-2.4083,-2.4083,-2.4112,-2.4247,-2.4461,-2.4807,-2.5459,-2.6092,-2.6754,-2.7507,-2.8093,-2.8824,-3.0113,-3.0907,-3.1531,-3.211,-3.268,-3.3278,-3.3799,-3.4395,-3.4992,-3.5615,-3.571,-3.571,-3.571,-3.571,-3.571,-3.571,-3.571,-3.571,-3.571,-3.571,-3.571,-3.571,-3.571,-3.571,-3.571,-3.571,-3.571,-3.571,-3.6293,-3.6904,-3.7485,-3.8082,-3.8708,-3.9305,-3.9305,-3.9305,-3.9305,-3.9305,-3.9305,-3.9305,-3.9305,-3.9305,-3.9305,-3.9305,-3.9305,-3.9305,-3.9305,-4.0051,-4.1123,-4.1123,-4.1869,-4.2887,0.0,0.0,0.0,0.0,0.0,0.0,0.0,0.0,0.0,0.0,0.0,0.0,0.0,0.0,0.0,0.0,0.0,0.0,0.0,-2.1095,-2.1144,-2.1144,-2.1046,-2.1021,-2.1033,-2.0861,-2.08,-2.0901,-2.0775,-2.0699,-2.0699,-2.0699,-2.0699,-2.0725,-2.1145,-2.1328,-2.1355,-2.1838,-2.1805,-2.1445,-2.1841,-2.1851,-2.1688,-2.251,-2.2888,0.0,0.0,0.0,0.0,0.0,0.0,0.0,-2.4083,-2.4083,-2.4112,-2.4128,-2.4573,-2.5104,-2.5253,-2.6276,-2.7323,-2.749,-2.8774,-3.0011,-3.0351,-3.1219,-3.2055,-3.2191,-3.268,-3.3278,-3.3799,-3.4395,-3.4992,-3.5615,-3.571,-3.571,-3.571,-3.571,-3.571,-3.571,-3.571,-3.571,-3.571,-3.571,-3.571,-3.571,-3.571,-3.571,-3.571,-3.571,-3.571,-3.571,-3.6293,-3.6904,-3.7485,-3.8082,-3.8708,-3.9305,-3.9305,-3.9305,-3.9305,-3.9305,-3.9305,-3.9305,-3.9305,-3.9305,-3.9305,-3.9305,-3.9305,-3.9305,-3.9305,-4.0051,-4.1123,-4.1123,-4.1869,-4.2887,0.0,0.0,0.0,0.0,0.0,0.0,0.0,0.0,0.0,0.0,0.0,0.0,0.0,0.0,0.0,0.0,0.0,0.0,0.0,0.0,-2.1106,-2.1106,-2.1033,-2.0997,-2.0997,-2.0861,-2.0838,-2.0901,-2.0775,-2.0699,-2.0712,-2.0962,-2.1093,-2.1119,-2.1695,-2.1744,-2.1488,-2.2134,-2.2146,-2.1816,-2.2155,-2.2447,-2.2728,-2.3039,-2.3357,-2.3652,-2.4008,0.0,0.0,0.0,0.0,0.0,0.0,0.0,-2.4547,-2.4606,-2.5073,-2.5678,-2.6126,-2.6845,-2.7539,-2.7931,-2.9212,-3.0405,-3.0405,-3.1327,-3.2218,-3.2218,-3.2874,-3.358,-3.3853,-3.4626,-3.5317,-3.5669,-3.571,-3.571,-3.571,-3.571,-3.571,-3.571,-3.571,-3.571,-3.571,-3.571,-3.571,-3.571,-3.571,-3.571,-3.571,-3.571,-3.571,-3.571,-3.6022,-3.6619,-3.7485,-3.7797,-3.8437,-3.9305,-3.9305,-3.9305,-3.9305,-3.9305,-3.9305,-3.9305,-3.9305,-3.9305,-3.9305,-3.9305,-3.9305,-3.9305,-3.9305,-4.0051,-4.1123,-4.1123,-4.1869,-4.2887,0.0,0.0,0.0,0.0,0.0,0.0,0.0,0.0,0.0,0.0,0.0,0.0,0.0,0.0,0.0,0.0,0.0,0.0,0.0,0.0,0.0,-2.1033,-2.0997,-2.0972,-2.0972,-2.0899,-2.0916,-2.1008,-2.0894,-2.0883,-2.1013,-2.1328,-2.1564,-2.1694,-2.2135,-2.2108,-2.1746,-2.2292,-2.2403,-2.2205,-2.2439,-2.3034,-2.3704,-2.3412,-2.3632,-2.4083,-2.4083,-2.4083,-2.4083,-2.4083,0.0,0.0,0.0,0.0,-2.5179,-2.5257,-2.5695,-2.6311,-2.7103,-2.7431,-2.7714,-2.8432,-2.9509,-3.0405,-3.0405,-3.1327,-3.2218,-3.2218,-3.3118,-3.3908,-3.3908,-3.4883,-3.571,-3.571,-3.571,-3.571,-3.571,-3.571,-3.571,-3.571,-3.571,-3.571,-3.571,-3.571,-3.571,-3.571,-3.571,-3.571,-3.571,-3.571,-3.571,-3.571,-3.571,-3.6211,-3.7323,-3.7431,-3.8027,-3.9156,-3.9251,-3.9305,-3.9305,-3.9305,-3.9305,-3.9305,-3.9305,-3.9305,-3.9305,-3.9305,-3.9305,-3.9305,-3.9305,-4.0051,-4.1123,-4.1123,-4.1869,-4.2935,0.0,0.0,0.0,0.0,0.0,0.0,0.0,0.0,0.0,0.0,-2.0913,-2.0888,0.0,0.0,0.0,0.0,0.0,0.0,-2.1204,0.0,0.0,-2.118,-2.1023,-2.0913,-2.0913,-2.08,-2.0948,-2.1433,-2.1394,-2.1642,-2.2152,-2.1707,-2.1786,-2.2282,-2.2245,-2.2515,-2.295,-2.2996,-2.2673,-2.2219,-2.3369,-2.3259,-2.2482,-2.3543,-2.4024,-2.4083,-2.4083,-2.4083,-2.4083,-2.4083,-2.4452,0.0,0.0,0.0,-2.5707,-2.5707,-2.6238,-2.6826,-2.6924,-2.7565,-2.8271,-2.8527,-2.9509,-3.0405,-3.0405,-3.1327,-3.2218,-3.2218,-3.3118,-3.3908,-3.3908,-3.4883,-3.571,-3.571,-3.571,-3.571,-3.571,-3.571,-3.571,-3.571,-3.571,-3.571,-3.571,-3.571,-3.571,-3.571,-3.571,-3.571,-3.571,-3.571,-3.571,-3.571,-3.571,-3.6035,-3.6714,-3.7228,-3.7824,-3.8545,-3.9061,-3.9305,-3.9305,-3.9305,-3.9305,-3.9305,-3.9305,-3.9305,-3.9305,-3.9305,-3.9305,-3.9305,-3.9305,-4.0051,-4.1123,-4.1123,-4.1869,-4.3032,0.0,0.0,0.0,0.0,0.0,0.0,0.0,0.0,0.0,0.0,0.0,-2.08,0.0,0.0,0.0,-2.0974,-2.1046,-2.1071,-2.1035,-2.1071,-2.1071,-2.1035,-2.0938,-2.0863,-2.08,-2.1026,-2.125,-2.1511,-2.1851,-2.2296,-2.2831,-2.2583,-2.2582,-2.2856,-2.3132,-2.3231,-2.3173,-2.3517,-2.3263,-2.2743,-2.3704,-2.3734,-2.333,-2.4244,-2.4596,-2.4635,-2.4931,-2.5036,-2.5036,-2.5036,-2.5236,-2.5445,-2.5445,0.0,0.0,0.0,-2.6732,-2.7289,-2.7517,-2.7918,-2.8365,-2.8554,-2.9509,-3.0405,-3.0405,-3.1327,-3.2218,-3.2218,-3.2861,-3.3552,-3.384,-3.4883,-3.571,-3.571,-3.571,-3.571,-3.571,-3.571,-3.571,-3.571,-3.571,-3.571,-3.571,-3.571,-3.571,-3.571,-3.571,-3.571,-3.571,-3.571,-3.571,-3.571,-3.571,-3.5995,-3.6592,-3.7216,-3.7946,-3.8925,-3.9169,-3.9305,-3.9305,-3.9305,-3.9305,-3.9305,-3.9305,-3.9305,-3.9305,-3.9305,-3.9305,-3.9305,-3.9305,-4.0051,-4.1123,-4.1123,-4.1869,-4.2984,0.0,0.0,0.0,0.0,0.0,0.0,0.0,0.0,0.0,0.0,0.0,0.0,0.0,0.0,0.0,0.0,-2.0947,-2.0961,-2.0924,-2.0974,-2.1002,-2.1099,-2.1074,-2.1089,-2.1131,-2.1524,-2.1799,-2.1943,-2.2387,-2.2882,-2.3446,-2.3446,-2.3446,-2.343,-2.3729,-2.3662,-2.3382,-2.3704,-2.3663,-2.3362,-2.3887,-2.4164,-2.4318,-2.4827,-2.5083,-2.528,-2.5667,-2.5793,-2.5793,-2.5793,-2.5884,-2.6046,-2.6046,-2.6425,0.0,0.0,0.0,-2.7603,-2.7934,-2.8085,-2.8235,-2.8444,-2.9429,-3.0336,-3.037,-3.1327,-3.2218,-3.2218,-3.268,-3.3278,-3.3799,-3.4748,-3.5533,-3.5696,-3.571,-3.571,-3.571,-3.571,-3.571,-3.571,-3.571,-3.571,-3.571,-3.571,-3.571,-3.571,-3.571,-3.571,-3.571,-3.571,-3.571,-3.571,-3.571,-3.5927,-3.6375,-3.7106,-3.8095,-3.9305,-3.9305,-3.9305,-3.9305,-3.9305,-3.9305,-3.9305,-3.9305,-3.9305,-3.9305,-3.9305,-3.9305,-3.9305,-3.9305,-4.0051,-4.1123,-4.1123,-4.1869,-4.2935,0.0,0.0,0.0,0.0,0.0,0.0,0.0,0.0,0.0,0.0,0.0,0.0,-2.0712,-2.0699,-2.0724,-2.0724,-2.0825,-2.0924,-2.0997,-2.0949,-2.1125,-2.1653,-2.1537,0.0,-2.2283,-2.2336,-2.261,-2.3104,-2.313,-2.3485,-2.4044,-2.4044,-2.4044,-2.4044,-2.3429,-2.3501,-2.4024,-2.3412,-2.3462,-2.3946,-2.4055,-2.4365,-2.4785,-2.4931,-2.5301,-2.5754,-2.578,-2.5793,-2.5793,-2.5793,-2.6177,-2.6654,-2.6654,-2.7027,-2.7451,0.0,0.0,0.0,-2.7756,-2.7809,-2.7908,-2.8222,-2.9235,-3.0171,-3.037,-3.1327,-3.2218,-3.2218,-3.268,-3.3278,-3.3799,-3.4423,-3.5019,-3.5628,-3.571,-3.571,-3.571,-3.571,-3.571,-3.571,-3.571,-3.571,-3.571,-3.571,-3.571,-3.571,-3.571,-3.571,-3.571,-3.571,-3.571,-3.571,-3.571,-3.5737,-3.5764,-3.6903,-3.8095,-3.9305,-3.9305,-3.9305,-3.9305,-3.9305,-3.9305,-3.9305,-3.9305,-3.9305,-3.9305,-3.9305,-3.9305,-3.9305,-3.9305,-4.0051,-4.1123,-4.1123,-4.1869,-4.3018,0.0,0.0,0.0,0.0,0.0,0.0,0.0,0.0,0.0,0.0,0.0,0.0,0.0,-2.0775,-2.0838,-2.0838,-2.1192,-2.1548,-2.1878,-2.1891,-2.1957,-2.2154,-2.2101,-2.2192,-2.2387,-2.2727,-2.3014,-2.3182,-2.3574,-2.3903,-2.4083,-2.4083,-2.4083,-2.4083,-2.3865,-2.4088,-2.4631,-2.3885,-2.4171,-2.5112,-2.4657,-2.4873,-2.5497,-2.5931,-2.6222,-2.6412,-2.6759,-2.6889,-2.6889,-2.6889,-2.702,-2.7223,-2.7223,-2.7333,-2.749,-2.749,-2.749,-2.7523,-2.7756,-2.7809,-2.7855,-2.8118,-2.8866,-2.9631,-3.009,-3.0945,-3.1721,-3.2137,-3.2381,-3.2707,-3.3268,-3.4177,-3.4992,-3.5615,-3.571,-3.571,-3.571,-3.571,-3.571,-3.571,-3.571,-3.571,-3.571,-3.571,-3.571,-3.571,-3.571,-3.571,-3.571,-3.571,-3.571,-3.571,-3.571,-3.59,-3.628,-3.7079,-3.7892,-3.8735,-3.9115,-3.9305,-3.9305,-3.9305,-3.9305,-3.9305,-3.9305,-3.9305,-3.9305,-3.9305,-3.9305,-3.9305,-3.9305,-4.0051,-4.1123,-4.1123,-4.1869,-4.3018,0.0,0.0,0.0,0.0,0.0,0.0,0.0,0.0,-2.0699,-2.0699,0.0,0.0,0.0,0.0,-2.1168,-2.1391,-2.1746,-2.2062,-2.2375,-2.2414,-2.2465,-2.2663,-2.2676,-2.2753,-2.2975,-2.3313,-2.3496,-2.3496,-2.3887,-2.4083,-2.4083,-2.4321,-2.44,-2.4413,-2.4579,-2.4628,-2.4584,-2.4517,-2.4943,-2.5646,-2.5243,-2.5589,-2.638,-2.6641,-2.6824,-2.7013,-2.7359,-2.749,-2.749,-2.749,-2.749,-2.749,-2.749,-2.749,-2.749,-2.749,-2.749,-2.7523,-2.7656,-2.7689,-2.7756,-2.7934,-2.8519,-2.9207,-2.992,-3.0664,-3.1378,-3.2046,-3.2218,-3.2395,-3.2993,-3.3878,-3.4694,-3.5276,-3.5588,-3.571,-3.571,-3.571,-3.571,-3.571,-3.571,-3.571,-3.571,-3.571,-3.571,-3.571,-3.571,-3.571,-3.571,-3.571,-3.571,-3.571,-3.571,-3.5995,-3.6592,-3.7216,-3.7783,-3.8423,-3.902,-3.9305,-3.9305,-3.9305,-3.9305,-3.9305,-3.9305,-3.9305,-3.9305,-3.9305,-3.9305,-3.9305,-3.9305,-4.0051,-4.1123,-4.1123,-4.2045,-4.3471,0.0,0.0,0.0,0.0,0.0,0.0,0.0,0.0,-2.0712,-2.0725,0.0,0.0,0.0,0.0,0.0,-2.2362,-2.2414,-2.244,-2.2452,-2.2467,-2.2689,-2.3182,-2.3221,-2.3483,-2.4083,-2.4083,-2.4083,-2.4083,-2.4109,-2.4122,-2.4122,-2.4726,-2.5018,-2.5044,-2.5589,-2.5106,-2.3942,-2.5246,-2.5692,-2.5569,-2.5755,-2.6498,-2.7438,-2.6909,-2.704,-2.749,-2.749,-2.749,-2.749,-2.749,-2.749,-2.749,-2.749,-2.749,-2.749,-2.749,-2.749,-2.749,0.0,0.0,0.0,-2.7769,-2.8251,-2.8947,-2.9877,-3.0559,-3.1209,-3.201,-3.2182,-3.2359,-3.2966,-3.3525,-3.407,-3.468,-3.5276,-3.571,-3.571,-3.571,-3.571,-3.571,-3.571,-3.571,-3.571,-3.571,-3.571,-3.571,-3.571,-3.571,-3.571,-3.571,-3.571,-3.571,-3.571,-3.5995,-3.6564,-3.7174,-3.777,-3.8396,-3.9007,-3.9305,-3.9305,-3.9305,-3.9305,-3.9305,-3.9305,-3.9292,-3.9349,-3.9305,-3.9305,-3.9305,-3.9305,-4.0038,-4.1156,-4.1156,-4.2471,-4.4359,0.0,0.0,0.0,0.0,0.0,-2.0699,-2.0699,-2.0699,-2.0831,0.0,0.0,0.0,-2.1878,-2.2061,-2.2375,-2.2936,-2.2975,-2.3171,-2.3587,-2.3642,-2.3707,-2.3835,-2.3835,-2.3913,-2.4083,-2.4083,-2.4083,-2.4083,-2.453,-2.4756,-2.4739,-2.5315,-2.5589,-2.5615,-2.6177,-2.5936,-2.5043,-2.5436,-2.6105,-2.6884,-2.6429,-2.6737,-2.7477,-2.7353,-2.7359,-2.749,-2.749,-2.749,-2.749,-2.749,-2.749,-2.749,-2.749,-2.749,-2.749,-2.749,-2.749,-2.749,-2.749,0.0,0.0,0.0,0.0,0.0,-3.0082,-3.057,-3.1007,-3.1842,-3.1963,-3.209,-3.2399,-3.2952,-3.3498,-3.4057,-3.5005,-3.571,-3.571,-3.571,-3.571,-3.571,-3.571,-3.571,-3.571,-3.571,-3.571,-3.571,-3.571,-3.571,-3.571,-3.571,-3.571,-3.571,-3.571,-3.5791,-3.5967,-3.697,-3.7567,-3.7743,-3.8817,-3.9305,-3.9305,-3.9305,-3.9305,-3.9305,-3.9305,-3.9675,-4.0187,-3.9543,-3.9305,-3.9305,-3.9305,-4.046,-4.2095,-4.2095,-4.3486,-4.5494,0.0,0.0,0.0,-2.0699,-2.0699,-2.0791,-2.1001,-2.104,-2.125,0.0,0.0,0.0,-2.2662,-2.2714,-2.2949,-2.3537,-2.3561,-2.3704,-2.4099,-2.4083,-2.4083,-2.4083,-2.4083,-2.4083,-2.4083,-2.4347,-2.4478,-2.4478,-2.504,-2.5328,-2.5341,-2.5903,-2.6177,-2.6203,-2.6778,-2.6784,-2.6327,-2.6327,-2.6632,-2.704,-2.6905,-2.7108,-2.749,-2.749,-2.749,-2.749,-2.759,-2.7556,-2.749,-2.759,-2.7556,-2.749,-2.749,-2.7659,-2.7889,-2.7889,-2.8059,-2.8255,-2.8255,-2.8255,-2.8347,-2.8673,0.0,0.0,-3.0275,-3.0618,-3.0935,-3.1842,-3.2036,-3.2073,-3.2182,-3.2694,-3.321,-3.3525,-3.457,-3.5385,-3.5683,-3.571,-3.571,-3.571,-3.571,-3.571,-3.571,-3.571,-3.571,-3.571,-3.571,-3.571,-3.571,-3.571,-3.571,-3.571,-3.571,-3.571,-3.571,-3.6673,-3.7228,-3.7499,-3.8491,-3.9267,-3.9823,-3.9823,-4.0041,-4.0445,-4.0445,-4.0717,-4.1113,-4.0645,-4.0445,-4.0445,-4.0445,-4.1535,-4.3093,-4.3093,-4.45,-4.6447,0.0,0.0,-2.0725,-2.0791,-2.0804,-2.0975,-2.1525,-2.1603,-2.1812,0.0,-2.2544,-2.2752,-2.3263,-2.3287,-2.3537,-2.4044,-2.4178,-2.4217,-2.4217,-2.4269,-2.4279,-2.4279,-2.4279,-2.4279,-2.4279,-2.4805,-2.5097,-2.5097,-2.5641,-2.5884,-2.5897,-2.6504,-2.6798,-2.6824,-2.7301,-2.749,-2.749,-2.749,-2.7108,-2.6586,-2.7255,-2.749,-2.749,-2.749,-2.749,-2.7523,-2.7689,-2.7696,-2.7674,-2.796,-2.792,-2.7719,-2.7719,-2.8106,-2.8512,-2.8512,-2.8891,-2.931,-2.931,-2.931,-2.9287,-2.9353,-2.9379,0.0,-3.0519,-3.0711,-3.0979,-3.1915,-3.2096,-3.2096,-3.2146,-3.2579,-3.2945,-3.3013,-3.3908,-3.4829,-3.548,-3.5683,-3.571,-3.571,-3.571,-3.571,-3.571,-3.571,-3.571,-3.571,-3.571,-3.571,-3.571,-3.571,-3.571,-3.571,-3.571,-3.571,-3.571,-3.6307,-3.6917,-3.7499,-3.8095,-3.9159,-4.0603,-4.0603,-4.1113,-4.199,-4.199,-4.2032,-4.2155,-4.2155,-4.2073,-4.199,-4.199,-4.2844,-4.4064,-4.4064,-4.5472,-4.7377,0.0,-2.0699,-2.0831,-2.1263,-2.1342,-2.1538,-2.2139,-2.2217,-2.2427,-2.2975,-2.3485,-2.3825,-2.39,-2.3913,-2.3965,-2.4083,-2.453,-2.4822,-2.4822,-2.5236,-2.5467,-2.5467,-2.5467,-2.5467,-2.5467,-2.5589,-2.5654,-2.5654,-2.6229,-2.6536,-2.6549,-2.7092,-2.732,-2.7333,-2.7438,-2.749,-2.749,-2.749,-2.7423,-2.7289,-2.7423,-2.749,-2.749,-2.749,-2.749,-2.749,-2.7523,-2.7938,-2.8581,-2.9249,-2.9374,-2.9201,-2.9201,-2.9153,-2.914,-2.914,-2.9231,-2.931,-2.931,-2.931,-2.9392,-2.9849,-2.9931,0.0,-3.0797,-3.0928,-3.1029,-3.1394,-3.1495,-3.1545,-3.1669,-3.18,-3.2041,-3.2546,-3.2928,-3.3592,-3.4816,-3.5371,-3.571,-3.571,-3.571,-3.571,-3.571,-3.571,-3.571,-3.571,-3.571,-3.571,-3.571,-3.571,-3.571,-3.571,-3.571,-3.571,-3.571,-3.6307,-3.6917,-3.7499,-3.8095,-3.9159,-4.0603,-4.0603,-4.1113,-4.199,-4.199,-4.24,-4.3046,-4.3046,-4.2629,-4.199,-4.199,-4.3219,-4.5037,-4.5037,-4.6418,-4.8355,-2.1106,-2.1354,-2.1616,-2.1904,-2.1943,-2.2126,-2.2699,-2.2805,-2.3001,-2.3561,-2.39,-2.4217,-2.4517,-2.4543,-2.4661,-2.4905,-2.5223,-2.5393,-2.5393,-2.5667,-2.5793,-2.5793,-2.5793,-2.5793,-2.5793,-2.6099,-2.6242,-2.6242,-2.6817,-2.7105,-2.7105,-2.7359,-2.749,-2.749,-2.749,-2.749,-2.7516,-2.7837,-2.7954,-2.7928,-2.7607,-2.749,-2.7529,-2.7964,-2.8103,-2.8142,-2.8622,-2.9063,-2.9459,-2.9787,-2.9754,-2.9614,-2.9719,-2.9719,-2.9706,-2.9813,-2.9974,-3.0137,-3.0137,-3.0137,-3.0202,-3.049,-3.0555,0.0,0.0,-3.1161,-3.1211,-3.1397,-3.1434,-3.1485,-3.1559,-3.1609,-3.1702,-3.1995,-3.2401,-3.2903,-3.3571,-3.4562,-3.5344,-3.5683,-3.571,-3.571,-3.571,-3.571,-3.571,-3.571,-3.571,-3.571,-3.571,-3.571,-3.571,-3.571,-3.571,-3.571,-3.571,-3.6399,-3.7234,-3.8159,-3.8866,-4.0176,-4.1932,-4.1932,-4.2438,-4.3284,-4.3284,-4.3521,-4.3966,-4.3966,-4.3693,-4.3284,-4.3284,-4.4374,-4.5956,-4.5956,-4.7068,-4.862,-2.1694,-2.2073,-2.2439,-2.2544,-2.2544,-2.2754,-2.3302,-2.3365,-2.3574,-2.4204,-2.4282,-2.4504,-2.5097,-2.5162,-2.5315,-2.5754,-2.5916,-2.5981,-2.5994,-2.6117,-2.6183,-2.6119,-2.6119,-2.6119,-2.6119,-2.6595,-2.6831,-2.6831,-2.7301,-2.749,-2.749,-2.749,-2.749,-2.749,-2.749,-2.7555,-2.7699,-2.8177,-2.8486,-2.8551,-2.8046,-2.7842,-2.7915,-2.857,-2.8823,-2.8924,-2.984,-3.0159,-3.0172,-3.0187,-3.0086,-2.9958,-3.0122,-3.0239,-3.0294,-3.0477,-3.0769,-3.0986,-3.0986,-3.0986,-3.0986,-3.0986,-3.0986,-3.1061,0.0,0.0,0.0,-3.1447,-3.1485,-3.1485,-3.1485,-3.1485,-3.1485,-3.1485,-3.192,-3.2304,-3.2423,-3.3545,-3.4642,-3.5345,-3.5561,-3.5669,-3.5642,-3.5642,-3.5669,-3.571,-3.5669,-3.5669,-3.571,-3.571,-3.571,-3.571,-3.571,-3.571,-3.571,-3.6362,-3.734,-3.8635,-3.9393,-4.0933,-4.3105,-4.3225,-4.3771,-4.461,-4.461,-4.461,-4.461,-4.461,-4.461,-4.461,-4.461,-4.5403,-4.6603,-4.6603,-4.745,-4.862,-2.2388,-2.2349,-2.2558,-2.3041,-2.3119,-2.3315,-2.3916,-2.3992,-2.4217,-2.4822,-2.49,-2.5092,-2.5667,-2.5702,-2.5715,-2.578,-2.6409,-2.673,-2.6614,-2.7216,-2.7492,-2.7307,-2.7307,-2.7307,-2.7307,-2.7359,-2.7398,-2.7398,-2.7464,-2.749,-2.749,-2.749,-2.749,-2.749,-2.749,-2.7811,-2.8281,-2.8381,-2.8721,-2.9205,-2.9104,-2.9114,-2.9127,-2.9192,-2.9218,-2.9319,-3.0111,-3.0381,-3.0461,-3.1186,-3.1272,-3.1111,-3.1148,-3.1016,-3.0882,-3.0932,-3.0972,-3.0986,-3.0986,-3.0986,-3.0986,-3.0986,-3.0986,-3.1024,-3.1024,0.0,-3.1061,-3.1061,0.0,-3.1061,-3.1061,0.0,0.0,-3.1061,-3.1264,-3.1638,-3.218,-3.2557,-3.3151,-3.426,-3.5157,-3.5642,-3.544,-3.544,-3.5521,-3.5669,-3.5521,-3.5521,-3.5669,-3.571,-3.571,-3.571,-3.571,-3.571,-3.571,-3.579,-3.6547,-3.7922,-3.8617,-4.0169,-4.2432,-4.3015,-4.3771,-4.461,-4.461,-4.461,-4.461,-4.461,-4.461,-4.461,-4.461,-4.5403,-4.6603,-4.6603,-4.745,-4.862,-2.2975,-2.3145,-2.3459,-2.3665,-2.3704,-2.3796,-2.4044,-2.44,-2.4818,-2.5393,-2.5458,-2.568,-2.6255,-2.6321,-2.6452,-2.6759,-2.7059,-2.7236,-2.717,-2.7459,-2.759,-2.749,-2.749,-2.749,-2.749,-2.749,-2.749,-2.749,-2.749,-2.7659,-2.802,-2.802,-2.8216,-2.8543,-2.8543,-2.8673,-2.8922,-2.9261,-2.9536,-2.9797,-3.0137,-3.0304,-3.0265,-3.0033,-3.0233,-3.0672,-3.1129,-3.1259,-3.1336,-3.1796,-3.1743,-3.1508,-3.1767,-3.1434,-3.1061,-3.1299,-3.1174,-3.0986,-3.0986,-3.0986,-3.0986,-3.0986,-3.0986,-3.0986,-3.0986,-3.0986,-3.0986,-3.0986,0.0,0.0,0.0,0.0,0.0,0.0,-3.1061,-3.1215,-3.1478,-3.1997,-3.2799,-3.4033,-3.458,-3.4982,-3.5359,-3.5399,-3.548,-3.5669,-3.5521,-3.548,-3.5669,-3.571,-3.571,-3.571,-3.571,-3.571,-3.571,-3.661,-3.7388,-3.7932,-3.9452,-4.0969,-4.2366,-4.3024,-4.3771,-4.461,-4.461,-4.461,-4.461,-4.461,-4.461,-4.461,-4.461,-4.5172,-4.6065,-4.6449,-4.7204,-4.8081,-2.3785,-2.3916,-2.4083,-2.4083,-2.4243,-2.44,-2.4527,-2.4936,-2.5406,-2.5981,-2.6059,-2.6269,-2.6844,-2.6909,-2.7079,-2.7464,-2.7556,-2.7556,-2.749,-2.7556,-2.7556,-2.749,-2.749,-2.7568,-2.7758,-2.7771,-2.785,-2.8007,-2.8007,-2.8216,-2.8656,-2.8656,-2.8891,-2.931,-2.931,-2.9366,-2.9536,-2.9918,-3.0192,-3.0361,-3.0817,-3.1024,-3.1046,-3.0774,-3.099,-3.1522,-3.1656,-3.1743,-3.1767,-3.1913,-3.1767,-3.1596,-3.1927,-3.1619,-3.1224,-3.1522,-3.1373,-3.1136,-3.1099,-3.1099,-3.1061,-3.1024,-3.0986,-3.0986,-3.0986,-3.0986,-3.0986,-3.0986,-3.0986,0.0,0.0,0.0,-3.0986,-3.0986,0.0,-3.0986,-3.0986,-3.1504,-3.2302,-3.341,-3.3754,-3.4193,-3.4982,-3.4995,-3.5143,-3.5588,-3.544,-3.544,-3.5669,-3.571,-3.571,-3.571,-3.571,-3.571,-3.571,-3.7063,-3.7868,-3.8058,-4.0018,-4.1498,-4.247,-4.3119,-4.3837,-4.461,-4.461,-4.461,-4.461,-4.461,-4.461,-4.461,-4.461,-4.4918,-4.5418,-4.628,-4.7019,-4.7711,-2.494,-2.4491,-2.4083,-2.4083,-2.457,-2.5162,-2.568,-2.5754,-2.6007,-2.6601,-2.668,-2.687,-2.7411,-2.7464,-2.7477,-2.749,-2.7689,-2.7723,-2.749,-2.7689,-2.7689,-2.749,-2.749,-2.7785,-2.8381,-2.8381,-2.8669,-2.9222,-2.9222,-2.9235,-2.9284,-2.9284,-2.9297,-2.931,-2.931,-2.9588,-3.0074,-3.0087,-3.0451,-3.096,-3.0973,-3.1123,-3.1272,-3.1283,-3.1296,-3.131,-3.131,-3.131,-3.131,-3.131,-3.131,-3.136,-3.1559,-3.1609,-3.1559,-3.1609,-3.1609,-3.1522,-3.1347,-3.1272,-3.1235,-3.1061,-3.0986,-3.0986,-3.0986,-3.0986,-3.0986,-3.0986,-3.0986,-3.0986,-3.0986,-3.0986,-3.0986,-3.0986,-3.0986,0.0,0.0,-3.1037,-3.1235,-3.1823,-3.2567,-3.3331,-3.418,-3.4046,-3.4352,-3.5359,-3.5236,-3.5277,-3.5669,-3.571,-3.571,-3.571,-3.571,-3.571,-3.571,-3.652,-3.7347,-3.8107,-3.9691,-4.12,-4.2627,-4.3273,-4.3956,-4.461,-4.461,-4.461,-4.461,-4.461,-4.461,-4.461,-4.461,-4.4625,-4.481,-4.6095,-4.7019,-4.7711,-2.5537,-2.538,-2.5219,-2.5219,-2.5375,-2.5733,-2.6295,-2.6386,-2.6595,-2.717,-2.7236,-2.7314,-2.7477,-2.749,-2.749,-2.749,-2.7556,-2.7556,-2.749,-2.7943,-2.8153,-2.8085,-2.8477,-2.8778,-2.9009,-2.9009,-2.9114,-2.931,-2.931,-2.947,-2.9849,-2.9849,-3.0045,-3.0411,-3.0411,-3.0516,-3.0699,-3.0699,-3.0803,-3.0986,-3.0986,-3.1061,-3.1099,-3.1099,-3.1161,-3.131,-3.1434,-3.1485,-3.1559,-3.1803,-3.1803,-3.173,-3.1927,-3.1817,-3.1646,-3.1743,-3.172,-3.1609,-3.1522,-3.1485,-3.154,-3.1672,-3.1726,-3.1793,-3.2071,-3.2123,-3.2123,-3.2123,-3.2123,-3.2123,-3.2123,-3.2123,-3.2123,-3.2123,-3.1797,-3.151,0.0,-3.1222,-3.1052,-3.1248,-3.2291,-3.3106,-3.3397,-3.3821,-3.4286,-3.4768,-3.5103,-3.544,-3.5669,-3.571,-3.571,-3.571,-3.571,-3.571,-3.571,-3.652,-3.7039,-3.7333,-3.8783,-4.0291,-4.1835,-4.2433,-4.3419,-4.461,-4.461,-4.461,-4.461,-4.461,-4.461,-4.461,-4.461,-4.461,-4.4779,-4.6095,-4.6742,-4.7096,-2.6125,-2.625,-2.6276,-2.5858,-2.5994,-2.6321,-2.6896,-2.6974,-2.7105,-2.7438,-2.749,-2.749,-2.749,-2.749,-2.7581,-2.7811,-2.7837,-2.7915,-2.8137,-2.849,-2.8734,-2.8734,-2.91,-2.9379,-2.9575,-2.9588,-2.968,-2.9889,-2.9889,-3.0072,-3.0438,-3.0438,-3.0634,-3.0986,-3.0986,-3.0986,-3.0986,-3.0986,-3.0986,-3.0986,-3.0986,-3.1099,-3.1224,-3.1136,-3.1248,-3.1434,-3.1559,-3.1646,-3.1743,-3.2,-3.2,-3.1927,-3.2146,-3.2098,-3.2014,-3.2149,-3.2235,-3.2297,-3.2208,-3.2284,-3.239,-3.2521,-3.2562,-3.263,-3.2883,-3.2935,-3.2935,-3.2843,-3.2804,-3.2765,-3.2685,-3.2685,-3.2685,-3.2685,-3.2385,-3.2032,0.0,-3.1484,-3.1209,-3.1013,-3.1742,-3.2383,-3.2658,-3.3265,-3.39,-3.4472,-3.4982,-3.5399,-3.5669,-3.571,-3.571,-3.571,-3.571,-3.5831,-3.6137,-3.6922,-3.7486,-3.7753,-3.8964,-4.0211,-4.1472,-4.2138,-4.3069,-4.4271,-4.4517,-4.461,-4.461,-4.461,-4.461,-4.461,-4.461,-4.461,-4.4779,-4.6095,-4.6896,-4.7434,-2.6745,-2.7157,-2.715,-2.6067,-2.636,-2.6896,-2.7411,-2.749,-2.749,-2.749,-2.7529,-2.7529,-2.7529,-2.7555,-2.7837,-2.8373,-2.8459,-2.8708,-2.9284,-2.9301,-2.9327,-2.9327,-2.9388,-2.9614,-3.0127,-3.014,-3.0451,-3.0986,-3.0986,-3.0986,-3.0986,-3.0986,-3.0986,-3.0986,-3.0986,-3.0986,-3.0986,-3.0986,-3.0986,-3.0986,-3.0986,-3.1261,-3.1559,-3.1347,-3.1397,-3.1609,-3.1609,-3.172,-3.189,-3.189,-3.1904,-3.1967,-3.215,-3.2469,-3.2726,-3.2726,-3.3143,-3.356,-3.3378,-3.3508,-3.3651,-3.3498,-3.3459,-3.3472,-3.3499,-3.346,-3.3421,-3.3159,-3.3119,-3.3041,-3.2856,-3.2817,-3.2817,-3.2777,-3.2751,-3.2542,-3.1928,-3.1823,-3.1602,-3.1091,-3.1037,-3.1309,-3.1961,-3.245,-3.3199,-3.4352,-3.4848,-3.5277,-3.5669,-3.5669,-3.5669,-3.571,-3.571,-3.6097,-3.6897,-3.7663,-3.8473,-3.932,-4.0076,-4.0858,-4.1617,-4.2294,-4.2971,-4.3639,-4.4317,-4.461,-4.461,-4.461,-4.461,-4.461,-4.461,-4.4656,-4.4872,-4.6126,-4.745,-4.862,-2.7301,-2.7398,-2.7411,-2.7111,-2.7177,-2.732,-2.7477,-2.749,-2.749,-2.749,-2.7902,-2.8164,-2.8164,-2.8556,-2.8882,-2.9074,-2.9087,-2.9118,-2.931,-2.968,-2.9879,-2.9879,-3.032,-3.062,-3.0764,-3.0764,-3.083,-3.0986,-3.0986,-3.0986,-3.0986,-3.0986,-3.0986,-3.0986,-3.0986,-3.0986,-3.0986,-3.0986,-3.0986,-3.0986,-3.0986,-3.1136,-3.136,-3.1161,-3.1286,-3.1609,-3.1609,-3.1646,-3.1683,-3.1683,-3.195,-3.2284,-3.2321,-3.2812,-3.3371,-3.3371,-3.3594,-3.3792,-3.3754,-3.3792,-3.39,-3.415,-3.4218,-3.4299,-3.462,-3.4673,-3.4633,-3.4592,-3.4538,-3.4511,-3.4307,-3.4266,-3.4185,-3.4007,-3.3626,-3.3156,-3.2555,-3.2071,-3.1745,-3.1602,-3.1386,-3.1226,-3.1296,-3.2459,-3.3355,-3.3671,-3.4701,-3.544,-3.5669,-3.5562,-3.5562,-3.571,-3.571,-3.6097,-3.6897,-3.7116,-3.789,-3.9305,-3.9499,-4.0299,-4.1617,-4.2294,-4.2971,-4.3639,-4.4317,-4.461,-4.461,-4.461,-4.461,-4.461,-4.461,-4.5187,-4.6126,-4.6465,-4.745,-4.862,-2.749,-2.7699,-2.7902,-2.7902,-2.8124,-2.8203,-2.7941,-2.8124,-2.8294,-2.8294,-2.8569,-2.8778,-2.8778,-2.9114,-2.9379,-2.9627,-2.9725,-2.9866,-3.0043,-3.0393,-3.0614,-3.0614,-3.0891,-3.1061,-3.1123,-3.1061,-3.0986,-3.0986,-3.0986,-3.0986,-3.0986,-3.0986,-3.0986,-3.0986,-3.0986,-3.0986,-3.0986,-3.0986,-3.1061,-3.1123,-3.1123,-3.1248,0.0,-3.1299,-3.141,-3.1599,-3.1777,-3.1734,-3.1649,-3.1875,-3.2219,-3.2602,-3.2856,-3.3428,-3.3989,-3.3989,-3.4242,-3.4576,-3.4576,-3.4601,-3.4722,-3.4981,-3.5022,-3.5063,-3.5318,-3.5358,-3.5358,-3.5236,-3.5236,-3.5154,-3.4962,-3.4839,-3.4714,-3.4439,-3.4149,-3.3744,-3.3169,-3.2803,-3.2502,-3.2202,-3.2043,-3.1885,-3.177,-3.2709,-3.3473,-3.374,-3.4687,-3.5358,-3.5562,-3.548,-3.548,-3.5669,-3.571,-3.6243,-3.7396,-3.7396,-3.8227,-3.9799,-3.9799,-4.0274,-4.117,-4.2155,-4.2802,-4.3202,-4.4156,-4.461,-4.461,-4.461,-4.461,-4.461,-4.461,-4.5403,-4.6603,-4.6603,-4.745,-4.862,-2.7712,-2.8164,-2.8538,-2.8538,-2.9,-2.9209,-2.8686,-2.9022,-2.931,-2.931,-2.934,-2.9392,-2.9392,-2.9493,-2.9706,-3.0166,-3.0388,-3.0635,-3.0985,-3.1161,-3.1272,-3.1272,-3.1099,-3.1099,-3.1272,-3.1099,-3.0986,-3.0986,-3.0986,-3.0986,-3.0986,-3.0986,-3.0986,-3.0986,-3.0986,-3.0986,-3.0986,-3.0986,-3.1123,-3.131,-3.1272,-3.1397,-3.1596,-3.1535,-3.1535,-3.1601,-3.1983,-3.1902,-3.1758,-3.2279,-3.2684,-3.3011,-3.3482,-3.4084,-3.4593,-3.4606,-3.4996,-3.544,-3.544,-3.5562,-3.571,-3.571,-3.571,-3.571,-3.571,-3.571,-3.5642,-3.548,-3.544,-3.5399,-3.5195,-3.4962,-3.4756,-3.4481,-3.4439,-3.4282,-3.3852,-3.3721,-3.3432,-3.2908,-3.2817,0.0,-3.2803,-3.3146,-3.3594,-3.414,-3.4712,-3.5154,-3.5399,-3.5399,-3.548,-3.5669,-3.579,-3.6531,-3.7913,-3.8138,-3.8964,-4.0335,-4.0455,-4.0489,-4.0551,-4.1971,-4.2602,-4.2679,-4.4002,-4.461,-4.461,-4.461,-4.461,-4.461,-4.461,-4.5403,-4.6603,-4.6603,-4.745,-4.862,-2.8882,-2.9087,-2.9153,-2.9153,-2.9601,-2.9918,-2.9813,-2.9523,-2.931,-2.931,-2.9693,-2.9944,-2.9944,-3.0398,-3.0725,-3.083,-3.0867,-3.0906,-3.1024,-3.1024,-3.1061,-3.1061,-3.1024,-3.1024,-3.1061,-3.1024,-3.0986,-3.0986,-3.0986,-3.0986,-3.0986,-3.0986,-3.0986,-3.0986,-3.0986,-3.0986,-3.0986,-3.0986,-3.1123,-3.1272,-3.1123,-3.1261,-3.1572,-3.1224,-3.1211,-3.1439,-3.1997,-3.209,-3.2115,-3.2697,-3.3251,-3.3728,-3.3834,-3.45,-3.5197,-3.5048,-3.5318,-3.5642,-3.5642,-3.5669,-3.571,-3.571,-3.571,-3.571,-3.571,-3.571,-3.5669,-3.5642,-3.5642,-3.5602,-3.5399,-3.5195,-3.4962,-3.4756,-3.4714,-3.4771,-3.4829,-3.4283,-3.3831,-3.3713,-3.341,-3.3265,-3.3432,-3.3673,-3.382,-3.3925,-3.4521,-3.5003,-3.5399,-3.5236,-3.5318,-3.5669,-3.6362,-3.6819,-3.7116,-3.8413,-3.9233,-3.9499,-4.0181,-4.0489,-4.0551,-4.1971,-4.2602,-4.2679,-4.4002,-4.461,-4.461,-4.461,-4.461,-4.461,-4.461,-4.5403,-4.6603,-4.6603,-4.745,-4.862,-2.9222,-2.9523,-2.9719,-2.9719,-3.0189,-3.0581,-3.0581,-3.0346,-3.0163,-3.0163,-3.0411,-3.0581,-3.0581,-3.083,-3.0986,-3.0986,-3.1099,-3.1099,-3.1024,-3.1099,-3.1161,-3.1161,-3.1061,-3.1061,-3.1161,-3.1061,-3.0986,-3.0986,-3.0986,-3.0986,-3.0986,-3.0986,-3.0986,-3.0986,-3.0986,-3.0986,-3.1024,-3.1099,-3.1286,-3.1434,-3.1373,-3.141,-3.1599,-3.1578,-3.1583,-3.1688,-3.2711,-3.3067,-3.3093,-3.3489,-3.3887,-3.426,-3.4566,-3.509,-3.5562,-3.544,-3.5562,-3.571,-3.571,-3.571,-3.571,-3.571,-3.571,-3.571,-3.571,-3.571,-3.571,-3.571,-3.571,-3.5642,-3.544,-3.5236,-3.5086,-3.4962,-3.488,-3.488,-3.5086,-3.4764,-3.4497,-3.4497,-3.4366,-3.4219,-3.4198,-3.4306,-3.4347,-3.4347,-3.4652,-3.4962,-3.5399,-3.5195,-3.5277,-3.5669,-3.648,-3.6897,-3.6897,-3.8487,-3.9305,-3.932,-4.0111,-4.0489,-4.0551,-4.1971,-4.2602,-4.2679,-4.4002,-4.461,-4.461,-4.461,-4.461,-4.4618,-4.4972,-4.5711,-4.6634,-4.6988,-4.7758,-4.862,-2.9663,-3.0006,-3.0283,-3.0283,-3.0686,-3.0986,-3.0986,-3.0986,-3.0986,-3.0986,-3.0986,-3.0986,-3.0986,-3.0986,-3.0986,-3.0986,-3.1123,-3.1161,-3.1024,-3.1161,-3.1235,-3.1235,-3.1099,-3.1099,-3.131,-3.1099,-3.1024,-3.1061,-3.1024,-3.0986,-3.0986,-3.0986,-3.0986,-3.0986,-3.0986,-3.1024,-3.1061,-3.1235,-3.1434,-3.1622,-3.1668,-3.1708,-3.1724,-3.2104,-3.2174,-3.2227,-3.3476,-3.3979,-3.4073,-3.4393,-3.4594,-3.4781,-3.5251,-3.5562,-3.5669,-3.5642,-3.5669,-3.571,-3.571,-3.571,-3.571,-3.571,-3.571,-3.571,-3.571,-3.571,-3.571,-3.571,-3.571,-3.5642,-3.544,-3.5318,-3.5195,-3.5154,-3.5044,-3.5003,-3.5195,-3.5154,-3.5127,-3.5154,-3.5086,-3.5003,-3.488,-3.4756,-3.4756,-3.4839,-3.4797,-3.4962,-3.5318,-3.5195,-3.5277,-3.5642,-3.6441,-3.6741,-3.6584,-3.8376,-3.9196,-3.9052,-4.0041,-4.0489,-4.0551,-4.1971,-4.2602,-4.2679,-4.4002,-4.461,-4.461,-4.461,-4.461,-4.4687,-4.5326,-4.6003,-4.668,-4.7357,-4.8035,-4.862,-3.0725,-3.0869,-3.0908,-3.0908,-3.0947,-3.0986,-3.0986,-3.0986,-3.0986,-3.0986,-3.0986,-3.0986,-3.0986,-3.0986,-3.0986,-3.0986,-3.1024,-3.1024,-3.0986,-3.1024,-3.1024,-3.1024,-3.1024,-3.1099,-3.131,-3.1099,-3.1099,-3.1272,-3.1099,-3.0986,-3.0986,-3.0986,-3.0986,-3.0986,-3.0986,-3.1099,-3.1272,-3.1272,-3.1434,-3.1612,-3.1929,-3.2051,-3.2092,-3.2502,-3.2765,-3.3001,-3.3861,-3.4286,-3.4566,-3.5291,-3.544,-3.5332,-3.5372,-3.5562,-3.5669,-3.548,-3.5562,-3.571,-3.571,-3.571,-3.571,-3.571,-3.571,-3.571,-3.571,-3.571,-3.571,-3.571,-3.571,-3.5642,-3.544,-3.5521,-3.5602,-3.5399,-3.5358,-3.5399,-3.5642,-3.5318,-3.5154,-3.5358,-3.5044,-3.488,-3.5044,-3.4701,-3.4605,-3.5044,-3.488,-3.488,-3.5127,-3.5127,-3.5195,-3.544,-3.6203,-3.6269,-3.5548,-3.804,-3.8928,-3.8213,-3.9763,-4.0489,-4.0551,-4.1971,-4.2602,-4.2679,-4.4002,-4.461,-4.461,-4.461,-4.461,-4.4687,-4.5326,-4.6003,-4.668,-4.7357,-4.8035,-4.862,-3.0934,-3.0986,-3.0986,-3.0986,-3.0986,-3.0986,-3.0986,-3.0986,-3.0986,-3.0986,-3.0986,-3.0986,-3.0986,-3.0986,-3.0986,-3.0986,-3.0986,-3.0986,-3.0986,-3.0986,-3.0986,-3.0986,-3.0986,-3.1061,-3.1123,-3.1061,-3.1194,-3.161,-3.1534,-3.1679,-3.2006,-3.2006,-3.2083,-3.2199,-3.2083,-3.2122,-3.2302,-3.2302,-3.2353,-3.2456,-3.2604,-3.2645,-3.2672,-3.3079,-3.3355,-3.3621,-3.4324,-3.4766,-3.5076,-3.54,-3.5562,-3.5602,-3.5602,-3.5642,-3.5669,-3.5602,-3.5642,-3.571,-3.571,-3.571,-3.571,-3.571,-3.571,-3.571,-3.571,-3.571,-3.571,-3.571,-3.571,-3.5669,-3.5602,-3.5562,-3.5521,-3.5562,-3.548,-3.548,-3.5669,-3.5562,-3.548,-3.5562,-3.544,-3.5318,-3.5277,-3.499,-3.4867,-3.4921,-3.4714,-3.4701,-3.5086,-3.5086,-3.5113,-3.5236,-3.6229,-3.6584,-3.6123,-3.8227,-3.916,-3.8818,-3.9955,-4.072,-4.1201,-4.2171,-4.3048,-4.3818,-4.4356,-4.461,-4.461,-4.461,-4.461,-4.4733,-4.5772,-4.6357,-4.6726,-4.7804,-4.8389,-4.862,-3.1653,-3.1468,-3.1334,-3.1334,-3.1161,-3.1048,-3.1296,-3.1123,-3.1099,-3.1296,-3.1268,-3.1169,-3.0999,-3.0986,-3.1052,-3.1222,-3.1235,-3.1313,-3.1483,-3.1483,-3.1521,-3.1597,-3.1521,-3.1597,-3.1787,-3.1597,-3.1756,-3.2239,-3.2123,-3.2293,-3.2804,-3.2857,-3.2975,-3.3119,-3.2883,-3.2922,-3.3066,-3.3027,-3.2988,-3.3014,-3.3186,-3.3225,-3.3251,-3.3735,-3.404,-3.4242,-3.4693,-3.5127,-3.5399,-3.5399,-3.5521,-3.571,-3.571,-3.571,-3.571,-3.571,-3.571,-3.571,-3.571,-3.571,-3.571,-3.571,-3.571,-3.571,-3.571,-3.571,-3.571,-3.571,-3.571,-3.571,-3.571,-3.5602,-3.5521,-3.5669,-3.5602,-3.5562,-3.5669,-3.5642,-3.5642,-3.5669,-3.5562,-3.544,-3.548,-3.5195,-3.5003,-3.4962,-3.4743,-3.4743,-3.5086,-3.5086,-3.5127,-3.5195,-3.6004,-3.6506,-3.661,-3.8153,-3.9088,-3.932,-4.0111,-4.0909,-4.1632,-4.2494,-4.351,-4.461,-4.461,-4.461,-4.461,-4.461,-4.461,-4.471,-4.6065,-4.6603,-4.6757,-4.8112,-4.862,-4.862,-3.3178,-3.2577,-3.2074,-3.2074,-3.1468,-3.1259,-3.1978,-3.1468,-3.1259,-3.1978,-3.1923,-3.1575,-3.1052,-3.0986,-3.1209,-3.1745,-3.1797,-3.2032,-3.2633,-3.2672,-3.2791,-3.2975,-3.2791,-3.2988,-3.3663,-3.3027,-3.287,-3.3287,-3.287,-3.2791,-3.2988,-3.3249,-3.338,-3.338,-3.3119,-3.3105,-3.3301,-3.3066,-3.2988,-3.3041,-3.3647,-3.3777,-3.368,-3.449,-3.4797,-3.4839,-3.5031,-3.5236,-3.5399,-3.5399,-3.5521,-3.571,-3.571,-3.571,-3.571,-3.571,-3.571,-3.571,-3.571,-3.571,-3.571,-3.571,-3.571,-3.571,-3.571,-3.571,-3.571,-3.571,-3.571,-3.571,-3.571,-3.571,-3.571,-3.571,-3.571,-3.571,-3.571,-3.5521,-3.548,-3.5669,-3.5154,-3.5044,-3.5642,-3.5154,-3.4962,-3.5358,-3.5195,-3.5086,-3.5086,-3.5086,-3.5195,-3.5399,-3.5399,-3.5817,-3.657,-3.7625,-3.8509,-3.932,-4.0111,-4.0909,-4.1648,-4.2992,-4.3978,-4.461,-4.461,-4.461,-4.461,-4.461,-4.461,-4.471,-4.6065,-4.6603,-4.6757,-4.8112,-4.862,-4.862,-3.2434,-3.2791,-3.3003,-3.2861,-3.234,-3.1992,-3.2087,-3.1763,-3.1676,-3.2093,-3.2445,-3.2838,-3.3387,-3.2664,-3.2228,-3.2398,-3.2529,-3.2686,-3.2909,-3.3093,-3.321,-3.3249,-3.321,-3.3302,-3.3496,-3.3132,-3.3238,-3.3913,-3.3648,-3.3806,-3.4432,-3.4526,-3.4647,-3.4768,-3.4405,-3.4351,-3.4513,-3.4107,-3.393,-3.3998,-3.4359,-3.4492,-3.4464,-3.4855,-3.5003,-3.5003,-3.5086,-3.5236,-3.5399,-3.5399,-3.5521,-3.571,-3.571,-3.571,-3.571,-3.571,-3.571,-3.571,-3.571,-3.571,-3.571,-3.571,-3.571,-3.571,-3.571,-3.571,-3.571,-3.571,-3.571,-3.571,-3.571,-3.571,-3.571,-3.571,-3.571,-3.571,-3.571,-3.5642,-3.5642,-3.5669,-3.5521,-3.548,-3.5669,-3.5399,-3.5195,-3.5195,-3.5003,-3.4962,-3.5086,-3.5236,-3.5277,-3.5195,-3.6004,-3.6727,-3.742,-3.8399,-3.932,-4.0111,-4.0876,-4.1848,-4.2971,-4.3886,-4.4409,-4.461,-4.461,-4.461,-4.461,-4.461,-4.461,-4.471,-4.6065,-4.6603,-4.6757,-4.8112,-4.862,-4.862,-3.3388,-3.3679,-3.3837,-3.3665,-3.3361,-3.3231,-3.3395,-3.3358,-3.3322,-3.3387,-3.3876,-3.4242,-3.4244,-3.3978,-3.382,-3.3738,-3.3397,-3.3397,-3.3754,-3.3781,-3.3861,-3.4033,-3.3874,-3.3874,-3.4033,-3.3688,-3.3832,-3.4418,-3.4309,-3.4495,-3.5003,-3.5044,-3.5154,-3.5277,-3.4962,-3.488,-3.4962,-3.4577,-3.4452,-3.4577,-3.4714,-3.4839,-3.4921,-3.5113,-3.5154,-3.5127,-3.5195,-3.5277,-3.5399,-3.5399,-3.5521,-3.571,-3.571,-3.571,-3.571,-3.571,-3.571,-3.571,-3.571,-3.571,-3.571,-3.571,-3.571,-3.571,-3.571,-3.571,-3.571,-3.571,-3.571,-3.571,-3.571,-3.571,-3.571,-3.571,-3.571,-3.571,-3.571,-3.571,-3.571,-3.571,-3.5642,-3.5642,-3.5669,-3.5521,-3.5399,-3.5318,-3.5195,-3.5195,-3.5318,-3.5318,-3.5426,-3.5777,-3.6506,-3.7372,-3.8347,-3.9,-3.9692,-4.0505,-4.1509,-4.254,-4.3624,-4.4302,-4.461,-4.461,-4.461,-4.461,-4.461,-4.461,-4.4764,-4.5064,-4.6157,-4.6742,-4.7111,-4.8204,-4.862,-4.862,-3.5517,-3.5111,-3.4702,-3.4578,-3.4591,-3.4888,-3.5585,-3.578,-3.5718,-3.5455,-3.5966,-3.5718,-3.4059,-3.5036,-3.5744,-3.5659,-3.4433,-3.4066,-3.5005,-3.4729,-3.4729,-3.5154,-3.4812,-3.4812,-3.5195,-3.4729,-3.4605,-3.488,-3.4839,-3.4839,-3.4921,-3.5044,-3.5086,-3.5086,-3.488,-3.4797,-3.4797,-3.4522,-3.4535,-3.4797,-3.4797,-3.4921,-3.5127,-3.5318,-3.5277,-3.5127,-3.5318,-3.5399,-3.5399,-3.544,-3.5562,-3.571,-3.571,-3.571,-3.571,-3.571,-3.571,-3.571,-3.571,-3.571,-3.571,-3.571,-3.571,-3.571,-3.571,-3.571,-3.571,-3.571,-3.571,-3.571,-3.571,-3.571,-3.571,-3.571,-3.571,-3.571,-3.571,-3.571,-3.571,-3.571,-3.5521,-3.548,-3.5669,-3.5521,-3.548,-3.5669,-3.5669,-3.5669,-3.5669,-3.5318,-3.5615,-3.678,-3.6858,-3.7601,-3.9124,-3.9233,-3.9737,-4.0659,-4.2032,-4.3017,-4.3701,-4.4332,-4.461,-4.461,-4.461,-4.461,-4.461,-4.461,-4.4987,-4.5649,-4.6326,-4.7004,-4.7681,-4.8358,-4.862,-4.862,-3.5491,-3.5911,-3.6357,-3.6817,-3.6586,-3.6397,-3.6586,-3.636,-3.5976,-3.5478,-3.6314,-3.6862,-3.6606,-3.6732,-3.7147,-3.7941,-3.5864,-3.4624,-3.488,-3.5494,-3.591,-3.599,-3.6545,-3.657,-3.6044,-3.5749,-3.5629,-3.5723,-3.5263,-3.5345,-3.591,-3.5386,-3.5086,-3.5086,-3.488,-3.4797,-3.4797,-3.4522,-3.4535,-3.4797,-3.4797,-3.4921,-3.5127,-3.5154,-3.5113,-3.5127,-3.5318,-3.5399,-3.544,-3.5602,-3.5669,-3.571,-3.571,-3.571,-3.571,-3.571,-3.571,-3.571,-3.571,-3.571,-3.571,-3.571,-3.571,-3.571,-3.571,-3.571,-3.571,-3.571,-3.571,-3.571,-3.571,-3.571,-3.571,-3.571,-3.571,-3.571,-3.571,-3.571,-3.571,-3.571,-3.5669,-3.5642,-3.571,-3.5669,-3.5602,-3.548,-3.548,-3.548,-3.548,-3.5399,-3.5507,-3.5977,-3.6598,-3.7078,-3.7448,-3.8686,-4.0257,-4.2125,-4.2956,-4.3732,-4.4379,-4.4548,-4.461,-4.461,-4.461,-4.461,-4.461,-4.461,-4.4987,-4.5649,-4.6326,-4.7004,-4.7681,-4.8358,-4.862,-4.862,-3.6446,-3.7015,-3.7534,-3.7782,-3.7933,-3.7992,-3.7992,-3.808,-3.785,-3.7019,-3.7748,-3.8055,-3.7319,-3.7486,-3.7729,-3.7919,-3.6596,-3.583,-3.6057,-3.6373,-3.6635,-3.6713,-3.6727,-3.6492,-3.6016,-3.5548,-3.5264,-3.5264,-3.4936,-3.5005,-3.5426,-3.4964,-3.4784,-3.4784,-3.4797,-3.4714,-3.4618,-3.4701,-3.4743,-3.4797,-3.488,-3.5003,-3.5127,-3.5195,-3.5236,-3.5277,-3.548,-3.5562,-3.5562,-3.5669,-3.571,-3.571,-3.571,-3.571,-3.571,-3.571,-3.571,-3.571,-3.571,-3.571,-3.571,-3.571,-3.571,-3.571,-3.571,-3.571,-3.571,-3.571,-3.571,-3.571,-3.571,-3.571,-3.571,-3.571,-3.571,-3.571,-3.571,-3.571,-3.571,-3.571,-3.571,-3.571,-3.571,-3.571,-3.5642,-3.5562,-3.5562,-3.5562,-3.5562,-3.5562,-3.575,-3.6243,-3.6663,-3.7271,-3.7965,-3.9561,-4.1117,-4.2617,-4.3264,-4.3963,-4.461,-4.461,-4.461,-4.461,-4.461,-4.461,-4.461,-4.461,-4.5157,-4.608,-4.6449,-4.7204,-4.8112,-4.8481,-4.862,-4.862,-3.7857,-3.8211,-3.8376,-3.8351,-3.8956,-3.9455,-3.9489,-3.991,-3.9879,-3.8848,-3.9256,-3.8987,-3.7281,-3.7857,-3.806,-3.7357,-3.7281,-3.7295,-3.7323,-3.7179,-3.7049,-3.6972,-3.6399,-3.595,-3.5709,-3.4827,-3.4481,-3.4592,-3.4481,-3.4481,-3.4592,-3.4481,-3.4439,-3.4481,-3.4714,-3.466,-3.4481,-3.4867,-3.4962,-3.4797,-3.5003,-3.5086,-3.5127,-3.5277,-3.5358,-3.544,-3.5602,-3.5669,-3.571,-3.571,-3.571,-3.571,-3.571,-3.571,-3.571,-3.571,-3.571,-3.571,-3.571,-3.571,-3.571,-3.571,-3.571,-3.571,-3.571,-3.571,-3.571,-3.571,-3.571,-3.571,-3.571,-3.571,-3.571,-3.571,-3.571,-3.571,-3.571,-3.571,-3.571,-3.571,-3.571,-3.571,-3.571,-3.571,-3.571,-3.571,-3.571,-3.571,-3.571,-3.571,-3.6017,-3.6702,-3.6702,-3.7529,-3.9273,-4.0806,-4.1971,-4.2756,-4.3454,-4.4055,-4.461,-4.461,-4.461,-4.461,-4.461,-4.461,-4.4625,-4.4733,-4.5464,-4.6603,-4.6711,-4.7511,-4.862,-4.862,-4.862,-4.862,-3.8864,-3.8933,-3.9097,-3.9814,-4.0047,-4.0178,-4.0317,-4.0165,-3.9717,-3.8811,-3.9147,-3.9068,-3.8113,-3.8738,-3.9156,-3.9017,-3.9017,-3.8159,-3.6136,-3.7246,-3.74,-3.5976,-3.713,-3.713,-3.5749,-3.4827,-3.4758,-3.5507,-3.4758,-3.4799,-3.5467,-3.4758,-3.4535,-3.4756,-3.4797,-3.4756,-3.4756,-3.4797,-3.4839,-3.4797,-3.4839,-3.4962,-3.5086,-3.5127,-3.5236,-3.5399,-3.544,-3.5562,-3.571,-3.571,-3.571,-3.571,-3.571,-3.571,-3.571,-3.571,-3.571,-3.571,-3.571,-3.571,-3.571,-3.571,-3.571,-3.571,-3.571,-3.571,-3.571,-3.571,-3.571,-3.571,-3.571,-3.571,-3.571,-3.571,-3.571,-3.571,-3.571,-3.571,-3.571,-3.571,-3.571,-3.571,-3.571,-3.571,-3.571,-3.571,-3.571,-3.571,-3.571,-3.571,-3.575,-3.5871,-3.5911,-3.6953,-3.9171,-4.0681,-4.2099,-4.347,-4.4132,-4.4517,-4.461,-4.461,-4.461,-4.461,-4.461,-4.461,-4.4618,-4.5187,-4.5895,-4.6665,-4.7219,-4.7927,-4.862,-4.862,-4.862,-4.862,-3.9684,-3.9822,-3.9914,-4.0339,-4.0401,-4.0401,-4.0401,-4.0172,-3.9803,-3.9328,-3.9322,-3.9265,-3.8885,-3.9192,-3.9388,-3.9388,-3.9481,-3.8855,-3.7169,-3.8188,-3.856,-3.7866,-3.8075,-3.763,-3.6385,-3.5949,-3.5949,-3.636,-3.5949,-3.5949,-3.636,-3.5909,-3.5803,-3.595,-3.6056,-3.6016,-3.5936,-3.6308,-3.6308,-3.6056,-3.5884,-3.5777,-3.5696,-3.5399,-3.5318,-3.5399,-3.5521,-3.5642,-3.571,-3.571,-3.571,-3.571,-3.571,-3.571,-3.571,-3.571,-3.571,-3.571,-3.571,-3.571,-3.571,-3.571,-3.571,-3.571,-3.571,-3.571,-3.571,-3.571,-3.571,-3.571,-3.571,-3.571,-3.571,-3.571,-3.571,-3.571,-3.571,-3.571,-3.571,-3.571,-3.571,-3.571,-3.571,-3.571,-3.571,-3.571,-3.571,-3.571,-3.571,-3.571,-3.6061,-3.6899,-3.7363,-3.8298,-3.9838,-4.1656,-4.2952,-4.3624,-4.4286,-4.461,-4.461,-4.461,-4.461,-4.461,-4.461,-4.461,-4.4671,-4.5311,-4.5988,-4.6665,-4.7342,-4.8019,-4.862,-4.862,-4.862,-4.862,-4.0274,-4.0436,-4.0489,-4.0489,-4.0489,-4.0455,-4.0312,-4.0137,-3.9925,-3.9803,-3.9553,-3.9424,-3.9445,-3.9445,-3.9445,-3.9409,-3.9589,-3.9358,-3.8538,-3.9083,-3.9286,-3.906,-3.8323,-3.7577,-3.6919,-3.688,-3.688,-3.688,-3.688,-3.688,-3.688,-3.688,-3.6919,-3.6958,-3.7204,-3.7204,-3.7088,-3.7653,-3.7653,-3.7242,-3.6972,-3.6791,-3.6596,-3.6189,-3.5924,-3.5777,-3.6123,-3.6017,-3.571,-3.5911,-3.5871,-3.571,-3.571,-3.571,-3.571,-3.571,-3.571,-3.571,-3.571,-3.571,-3.571,-3.571,-3.571,-3.571,-3.571,-3.571,-3.571,-3.571,-3.571,-3.571,-3.571,-3.571,-3.571,-3.571,-3.571,-3.571,-3.571,-3.571,-3.571,-3.571,-3.571,-3.571,-3.571,-3.571,-3.571,-3.571,-3.571,-3.579,-3.5977,-3.6114,-3.7019,-3.875,-3.9373,-4.0096,-4.0838,-4.2701,-4.3685,-4.3855,-4.4363,-4.461,-4.461,-4.461,-4.461,-4.461,-4.461,-4.461,-4.4671,-4.548,-4.6126,-4.668,-4.7511,-4.8158,-4.862,-4.862,-4.862,-4.862,-4.0489,-4.0489,-4.0489,-4.0489,-4.0489,-4.0455,-4.0312,-4.0137,-3.9996,-3.996,-3.964,-3.9445,-3.9661,-3.9696,-3.9589,-3.9424,-3.9589,-3.9589,-3.9337,-3.9388,-3.8694,-3.7151,-3.7049,-3.6972,-3.688,-3.688,-3.688,-3.688,-3.688,-3.688,-3.688,-3.688,-3.6996,-3.7204,-3.7396,-3.7472,-3.7472,-3.7724,-3.7686,-3.7472,-3.7648,-3.771,-3.771,-3.7838,-3.7434,-3.6883,-3.7663,-3.6986,-3.5831,-3.6559,-3.6322,-3.571,-3.571,-3.571,-3.571,-3.571,-3.571,-3.571,-3.571,-3.571,-3.571,-3.571,-3.571,-3.571,-3.571,-3.571,-3.571,-3.571,-3.571,-3.571,-3.571,-3.571,-3.571,-3.571,-3.571,-3.571,-3.571,-3.571,-3.571,-3.571,-3.571,-3.571,-3.571,-3.571,-3.571,-3.571,-3.571,-3.6017,-3.678,-3.7391,-3.8775,-4.1083,-4.1212,-4.1549,-4.2239,-4.3159,-4.3917,-4.4548,-4.4594,-4.461,-4.461,-4.461,-4.461,-4.461,-4.461,-4.461,-4.4718,-4.5972,-4.6557,-4.6726,-4.8035,-4.8573,-4.862,-4.862,-4.862,-4.862,-4.0489,-4.0489,-4.0489,-4.0489,-4.0489,-4.042,-4.0137,-4.0137,-4.0101,-3.9839,-3.9783,-3.9783,-3.9889,-3.9889,-3.9818,-3.9589,-3.9768,-3.9747,-3.9409,-3.9517,-3.9235,-3.8457,-3.8568,-3.8568,-3.8472,-3.8472,-3.8472,-3.8472,-3.8472,-3.8472,-3.8472,-3.8568,-3.8605,-3.8583,-3.8914,-3.8987,-3.8877,-3.9226,-3.9298,-3.9205,-3.887,-3.8745,-3.8694,-3.825,-3.7587,-3.6922,-3.7271,-3.6663,-3.575,-3.6057,-3.5937,-3.571,-3.571,-3.571,-3.571,-3.571,-3.571,-3.571,-3.571,-3.571,-3.571,-3.571,-3.571,-3.571,-3.571,-3.571,-3.571,-3.571,-3.571,-3.571,-3.571,-3.571,-3.571,-3.571,-3.571,-3.571,-3.571,-3.571,-3.571,-3.571,-3.571,-3.571,-3.571,-3.571,-3.571,-3.571,-3.6062,-3.6375,-3.6686,-3.8722,-4.0552,-4.1961,-4.2917,-4.3297,-4.3145,-4.3859,-4.4363,-4.461,-4.461,-4.461,-4.461,-4.461,-4.461,-4.461,-4.461,-4.4856,-4.528,-4.6203,-4.685,-4.7311,-4.825,-4.862,-4.862,-4.862,-4.862,-4.862,-4.0489,-4.0489,-4.0489,-4.0489,-4.0489,-4.0401,-4.0137,-4.0207,-4.0207,-3.991,-3.996,-4.0031,-4.0101,-4.0046,-3.9925,-3.9732,-3.9839,-3.9747,-3.9409,-3.9517,-3.9553,-3.9424,-3.9517,-3.9553,-3.9388,-3.9388,-3.9424,-3.9481,-3.9424,-3.9445,-3.9604,-3.9661,-3.9661,-3.9604,-3.9925,-4.0031,-3.991,-4.0226,-4.0211,-3.9985,-3.9778,-3.9391,-3.8891,-3.8598,-3.7814,-3.6922,-3.7193,-3.6584,-3.575,-3.5977,-3.6097,-3.6017,-3.579,-3.571,-3.575,-3.6017,-3.5911,-3.571,-3.571,-3.571,-3.571,-3.571,-3.571,-3.571,-3.571,-3.571,-3.571,-3.571,-3.571,-3.571,-3.571,-3.571,-3.571,-3.571,-3.571,-3.571,-3.571,-3.571,-3.571,-3.571,-3.571,-3.571,-3.571,-3.5886,-3.5995,-3.5995,-3.6551,-3.7208,-3.7978,-4.0205,-4.1981,-4.3052,-4.406,-4.4394,-4.3932,-4.4379,-4.461,-4.461,-4.461,-4.461,-4.461,-4.461,-4.461,-4.461,-4.461,-4.4995,-4.5634,-4.6311,-4.7004,-4.7665,-4.8358,-4.862,-4.862,-4.862,-4.862,-4.862,-4.0489,-4.0489,-4.0489,-4.0489,-4.0489,-4.0455,-4.0312,-4.0312,-4.0312,-4.0312,-4.0137,-4.0066,-4.0277,-4.0101,-3.9925,-3.9732,-3.9681,-3.961,-3.9409,-3.9388,-3.9388,-3.9388,-3.9388,-3.9388,-3.9388,-3.9388,-3.9481,-3.9681,-3.9481,-3.9604,-4.0011,-3.9803,-3.9803,-4.0011,-4.0207,-4.0312,-4.0312,-4.0436,-4.0041,-3.9391,-4.0196,-3.9535,-3.8213,-3.9015,-3.8302,-3.7,-3.78,-3.7102,-3.5831,-3.6624,-3.6897,-3.678,-3.5977,-3.571,-3.5871,-3.6663,-3.6322,-3.571,-3.571,-3.571,-3.571,-3.571,-3.571,-3.571,-3.571,-3.571,-3.571,-3.571,-3.571,-3.571,-3.571,-3.571,-3.571,-3.571,-3.571,-3.571,-3.571,-3.571,-3.571,-3.571,-3.571,-3.5723,-3.5723,-3.6252,-3.6605,-3.6605,-3.7189,-3.8547,-4.0974,-4.1853,-4.3014,-4.4556,-4.461,-4.461,-4.461,-4.461,-4.461,-4.461,-4.461,-4.461,-4.461,-4.461,-4.461,-4.461,-4.461,-4.4972,-4.5649,-4.6326,-4.7004,-4.7681,-4.8358,-4.862,-4.862,-4.862,-4.862,-4.862,-4.0489,-4.0489,-4.0489,-4.0489,-4.0489,-4.0455,-4.0312,-4.0366,-4.0401,-4.0296,-4.0331,-4.0331,-4.0296,-4.0242,-4.0051,-3.9732,-3.9681,-3.961,-3.9409,-3.9388,-3.9445,-3.9589,-3.9496,-3.9388,-3.9388,-3.9388,-3.9481,-3.9681,-3.9661,-3.9732,-4.0011,-4.0101,-4.0066,-3.9996,-4.0296,-4.0401,-4.0312,-4.0436,-4.037,-4.0146,-4.0405,-4.0216,-3.9814,-4.0041,-3.9499,-3.8613,-3.887,-3.825,-3.7434,-3.7663,-3.7738,-3.7686,-3.7472,-3.7396,-3.7319,-3.7,-3.7141,-3.7127,-3.6017,-3.6097,-3.6401,-3.5831,-3.571,-3.571,-3.571,-3.571,-3.571,-3.571,-3.571,-3.571,-3.571,-3.571,-3.571,-3.571,-3.571,-3.571,-3.571,-3.571,-3.571,-3.571,-3.6076,-3.6334,-3.6334,-3.689,-3.7214,-3.7214,-3.777,-3.9198,-4.1616,-4.1945,-4.2877,-4.4534,-4.461,-4.461,-4.461,-4.461,-4.461,-4.461,-4.461,-4.461,-4.461,-4.461,-4.461,-4.461,-4.461,-4.5234,-4.6311,-4.6511,-4.7281,-4.8327,-4.8543,-4.862,-4.862,-4.862,-4.862,-4.862,-4.0489,-4.0489,-4.0489,-4.0489,-4.0489,-4.0455,-4.0401,-4.047,-4.0455,-4.0401,-4.0401,-4.0401,-4.0366,-4.0191,-3.998,-3.9839,-3.9661,-3.9589,-3.964,-3.9553,-3.9625,-3.9803,-3.9711,-3.9604,-3.9517,-3.9604,-3.9711,-3.9803,-3.9803,-3.9945,-4.0207,-4.0277,-4.0261,-4.0207,-4.0401,-4.0455,-4.0366,-4.047,-4.0301,-4.0025,-4.037,-4.0111,-3.9585,-3.9884,-3.955,-3.8818,-3.8818,-3.8509,-3.8101,-3.8101,-3.8101,-3.8213,-3.8855,-3.862,-3.8063,-3.789,-3.7965,-3.7875,-3.6908,-3.6766,-3.678,-3.6282,-3.5937,-3.571,-3.571,-3.571,-3.571,-3.571,-3.571,-3.571,-3.571,-3.571,-3.571,-3.571,-3.571,-3.571,-3.571,-3.5927,-3.6076,-3.6076,-3.6605,-3.6971,-3.6971,-3.7796,-3.8615,-3.9229,-3.9251,-4.0238,-4.2412,-4.2522,-4.3165,-4.4572,-4.461,-4.461,-4.461,-4.461,-4.461,-4.461,-4.461,-4.461,-4.461,-4.461,-4.461,-4.461,-4.461,-4.5341,-4.6603,-4.6603,-4.7388,-4.862,-4.862,-4.862,-4.862,-4.862,-4.862,-4.862,-4.0489,-4.0489,-4.0489,-4.0489,-4.0489,-4.0489,-4.0489,-4.0489,-4.0489,-4.0489,-4.0401,-4.0366,-4.0455,-4.0036,-3.9839,-3.9996,-3.9676,-3.9604,-3.9975,-3.9839,-3.9803,-4.0031,-4.0011,-3.9925,-3.9732,-3.9925,-4.0011,-4.0031,-4.0031,-4.0207,-4.0489,-4.0366,-4.0366,-4.0489,-4.0489,-4.0489,-4.0489,-4.0489,-4.0076,-3.9463,-4.0231,-3.9621,-3.8399,-3.9124,-3.8928,-3.8324,-3.8324,-3.8324,-3.8324,-3.8324,-3.8324,-3.8546,-4.0041,-3.9499,-3.8436,-3.9124,-3.8818,-3.825,-3.8063,-3.751,-3.6961,-3.6819,-3.6243,-3.571,-3.571,-3.571,-3.571,-3.571,-3.571,-3.571,-3.571,-3.571,-3.571,-3.571,-3.571,-3.5737,-3.5791,-3.6252,-3.6619,-3.6673,-3.7187,-3.7567,-3.7567,-3.8893,-4.0376,-4.1767,-4.1169,-4.1476,-4.3205,-4.3284,-4.3693,-4.4572,-4.461,-4.461,-4.461,-4.461,-4.461,-4.461,-4.461,-4.461,-4.461,-4.461,-4.461,-4.461,-4.4671,-4.5403,-4.6603,-4.6665,-4.745,-4.862,-4.862,-4.862,-4.862,-4.862,-4.862,-4.862,-4.0489,-4.0489,-4.0489,-4.0489,-4.0489,-4.0489,-4.0489,-4.0489,-4.0489,-4.0489,-4.0455,-4.0436,-4.0331,-4.0226,-4.0137,-4.0011,-3.9925,-3.9905,-3.9996,-3.996,-4.0031,-4.0242,-4.0066,-3.996,-3.9925,-3.996,-4.0081,-4.0242,-4.0242,-4.0331,-4.0489,-4.0455,-4.0455,-4.0489,-4.0489,-4.0489,-4.0489,-4.0489,-4.042,-4.0266,-4.042,-4.0301,-3.999,-4.0181,-4.0111,-3.999,-3.999,-3.999,-3.999,-3.999,-3.999,-4.0041,-4.0385,-4.0266,-3.9884,-3.9427,-3.9621,-3.9585,-3.7677,-3.7472,-3.7548,-3.6269,-3.5831,-3.571,-3.571,-3.571,-3.571,-3.571,-3.571,-3.571,-3.571,-3.571,-3.571,-3.571,-3.571,-3.5886,-3.6347,-3.6524,-3.6782,-3.7228,-3.7824,-3.822,-3.822,-3.9517,-4.0534,-4.0887,-4.138,-4.2181,-4.3245,-4.3284,-4.3693,-4.4572,-4.461,-4.461,-4.461,-4.461,-4.461,-4.461,-4.461,-4.461,-4.461,-4.461,-4.461,-4.4641,-4.518,-4.5834,-4.6634,-4.7173,-4.7865,-4.862,-4.862,-4.862,-4.862,-4.862,-4.862,-4.862,-4.0489,-4.0489,-4.0489,-4.0489,-4.0489,-4.0489,-4.0489,-4.0489,-4.0489,-4.0489,-4.042,-4.0401,-4.0401,-4.0242,-4.0137,-4.0137,-4.0081,-4.0066,-4.0226,-4.0172,-4.0172,-4.0312,-4.0207,-4.0101,-4.0011,-4.0101,-4.0101,-4.0016,-4.0101,-4.0242,-4.0401,-4.0401,-4.0436,-4.0489,-4.0489,-4.0489,-4.0489,-4.0489,-4.0489,-4.0489,-4.0489,-4.0489,-4.0489,-4.0489,-4.0489,-4.0489,-4.0489,-4.0489,-4.0489,-4.0489,-4.0489,-4.0489,-4.0489,-4.0489,-4.042,-4.0005,-3.9884,-3.9743,-3.8884,-3.8078,-3.7396,-3.6947,-3.6269,-3.571,-3.571,-3.571,-3.571,-3.571,-3.571,-3.571,-3.571,-3.571,-3.571,-3.571,-3.5954,-3.6252,-3.6564,-3.7107,-3.7596,-3.7878,-3.8477,-3.9166,-4.0041,-4.083,-4.1616,-4.2464,-4.2574,-4.3006,-4.3888,-4.3927,-4.4135,-4.4587,-4.461,-4.461,-4.461,-4.461,-4.461,-4.461,-4.461,-4.461,-4.461,-4.461,-4.461,-4.4656,-4.5295,-4.5972,-4.665,-4.7327,-4.8004,-4.862,-4.862,-4.862,-4.862,-4.862,-4.862,-4.862,-4.0489,-4.0489,-4.0489,-4.0489,-4.0489,-4.0489,-4.0489,-4.0489,-4.0489,-4.0489,-4.0401,-4.0366,-4.0489,-4.0261,-4.0137,-4.0312,-4.0172,-4.0207,-4.0489,-4.0401,-4.0331,-4.0331,-4.0277,-4.0172,-4.0011,-4.0101,-4.0016,-3.9768,-3.996,-4.0101,-4.0242,-4.0277,-4.0331,-4.0436,-4.0455,-4.047,-4.042,-4.042,-4.042,-4.0436,-4.0455,-4.047,-4.047,-4.0489,-4.0489,-4.0489,-4.0489,-4.0489,-4.0489,-4.0489,-4.0489,-4.0489,-4.0489,-4.0489,-4.0489,-4.0489,-3.992,-3.9427,-3.9955,-3.8539,-3.7039,-3.7548,-3.6688,-3.575,-3.5871,-3.579,-3.571,-3.571,-3.571,-3.571,-3.571,-3.5791,-3.5859,-3.5859,-3.6375,-3.6795,-3.689,-3.7786,-3.845,-3.8559,-3.9125,-4.0085,-4.1603,-4.2032,-4.2831,-4.4251,-4.3849,-4.3849,-4.4572,-4.461,-4.461,-4.461,-4.461,-4.461,-4.461,-4.461,-4.461,-4.461,-4.461,-4.461,-4.461,-4.461,-4.4671,-4.4825,-4.5464,-4.6142,-4.6819,-4.7496,-4.8112,-4.862,-4.862,-4.862,-4.862,-4.862,-4.862,-4.862,-4.0489,-4.0489,-4.0489,-4.0489,-4.0489,-4.0489,-4.0489,-4.0489,-4.0489,-4.0489,-4.0489,-4.0489,-4.0489,-4.047,-4.042,-4.0455,-4.0455,-4.0455,-4.0489,-4.0489,-4.0455,-4.0455,-4.0207,-4.0031,-4.0011,-3.9676,-3.9676,-3.996,-4.0172,-4.0172,-4.0031,-4.0207,-4.0207,-4.0081,-4.0242,-4.0242,-4.0066,-4.0066,-4.0066,-4.0066,-4.0277,-4.0347,-4.0331,-4.047,-4.0489,-4.0489,-4.0489,-4.0489,-4.0489,-4.0489,-4.0489,-4.0489,-4.0489,-4.0489,-4.0489,-4.0489,-3.992,-3.916,-3.8583,-3.7663,-3.6741,-3.6163,-3.5871,-3.5871,-3.6598,-3.6217,-3.571,-3.571,-3.571,-3.571,-3.571,-3.6144,-3.6483,-3.6483,-3.6999,-3.754,-3.8098,-3.8315,-3.86,-3.9129,-3.9899,-4.0518,-4.0774,-4.2208,-4.3205,-4.3442,-4.4043,-4.4496,-4.4572,-4.461,-4.461,-4.461,-4.461,-4.461,-4.461,-4.461,-4.461,-4.461,-4.461,-4.461,-4.461,-4.461,-4.4933,-4.548,-4.6157,-4.685,-4.7527,-4.8204,-4.8527,-4.862,-4.862,-4.862,-4.862,-4.862,-4.862,-4.862,-4.0489,-4.0489,-4.0489,-4.0489,-4.0489,-4.0489,-4.0489,-4.0489,-4.0489,-4.0489,-4.0489,-4.0489,-4.0489,-4.0489,-4.0489,-4.0489,-4.0436,-4.0436,-4.0505,-4.0331,-4.0226,-4.0226,-3.998,-3.9783,-3.9676,-3.9589,-3.9589,-3.9676,-3.9732,-3.9803,-3.9839,-3.991,-3.998,-3.9996,-4.0101,-4.0066,-4.0011,-4.0011,-4.0066,-4.0172,-4.0277,-4.0331,-4.0436,-4.0489,-4.0489,-4.0489,-4.0489,-4.0489,-4.0489,-4.0489,-4.0489,-4.0489,-4.0489,-4.0489,-4.0489,-4.0489,-3.992,-3.932,-3.9427,-3.8524,-3.7672,-3.8198,-3.76,-3.7063,-3.7798,-3.7681,-3.7315,-3.6928,-3.6524,-3.632,-3.6618,-3.6903,-3.7121,-3.7121,-3.7594,-3.8082,-3.8383,-3.8708,-3.9169,-3.9927,-4.0831,-4.1589,-4.207,-4.3269,-4.402,-4.402,-4.4366,-4.461,-4.461,-4.461,-4.461,-4.461,-4.461,-4.461,-4.461,-4.461,-4.461,-4.461,-4.461,-4.461,-4.461,-4.461,-4.4979,-4.5634,-4.6311,-4.6973,-4.765,-4.8327,-4.862,-4.862,-4.862,-4.862,-4.862,-4.862,-4.862,-4.862]},{"header":{"parameterUnit":"m.s-1","parameterCategory":1,"la1":30.6,"la2":28.766,"lo1":-90.7593,"lo2":-88.6598,"dy":0.0162,"dx":0.0183,"nx":116,"ny":114,"refTime":"2023-10-08T12:00:00:Z","depth":0,"parameterNumber":3,"parameterNumberName":"V-component_of_WINDS"},"data":[0.0,0.0,0.0,0.0,0.0,0.0,0.0,0.0,0.0,0.0,0.0,0.0,0.0,0.0,0.0,0.0,0.0,0.0,0.0,0.0,0.0,0.0,0.0,0.0,0.0,0.0,0.0,0.0,0.0,0.0,0.0,0.0,0.0,0.0,0.0,0.0,0.0,0.0,0.0,0.0,0.0,0.0,0.0,0.0,0.0,0.0,0.0,0.0,0.0,0.0,0.0,0.0,0.0,0.0,0.0,0.0,0.0,0.0,0.0,0.0,0.0,0.0,0.0,0.0,0.0,0.0,0.0,0.0,0.0,0.0,0.0,0.0,0.0,0.0,0.0,0.0,0.0,0.0,0.0,0.0,0.0,0.0,0.0,0.0,0.0,0.0,0.0,0.0,0.0,0.0,0.0,0.0,0.0,0.0,0.0,0.0,0.0,0.0,0.0,0.0,0.0,0.0,0.0,0.0,0.0,0.0,0.0,0.0,0.0,0.0,0.0,0.0,0.0,0.0,0.0,0.0,0.0,0.0,0.0,0.0,0.0,0.0,0.0,0.0,0.0,0.0,0.0,0.0,0.0,0.0,0.0,0.0,0.0,0.0,0.0,0.0,0.0,0.0,0.0,0.0,0.0,0.0,0.0,0.0,0.0,0.0,0.0,0.0,0.0,0.0,0.0,0.0,0.0,0.0,0.0,0.0,0.0,0.0,0.0,0.0,0.0,0.0,0.0,0.0,0.0,0.0,0.0,0.0,0.0,0.0,0.0,0.0,0.0,0.0,0.0,0.0,0.0,0.0,0.0,0.0,0.0,0.0,0.0,0.0,0.0,0.0,0.0,0.0,0.0,0.0,0.0,0.0,0.0,0.0,0.0,0.0,0.0,0.0,0.0,0.0,0.0,0.0,0.0,0.0,0.0,0.0,0.0,0.0,0.0,0.0,0.0,0.0,0.0,0.0,0.0,0.0,0.0,0.0,0.0,0.0,0.0,0.0,0.0,0.0,0.0,0.0,0.0,0.0,0.0,0.0,0.0,0.0,0.0,0.0,0.0,0.0,0.0,0.0,0.0,0.0,0.0,0.0,0.0,0.0,0.0,0.0,0.0,0.0,0.0,0.0,0.0,0.0,0.0,0.0,0.0,0.0,0.0,0.0,0.0,0.0,0.0,0.0,0.0,0.0,0.0,0.0,0.0,0.0,0.0,0.0,0.0,0.0,0.0,0.0,0.0,0.0,0.0,0.0,0.0,0.0,0.0,0.0,0.0,0.0,0.0,0.0,0.0,0.0,0.0,0.0,0.0,0.0,0.0,0.0,0.0,0.0,0.0,0.0,0.0,0.0,0.0,0.0,0.0,0.0,0.0,0.0,0.0,0.0,0.0,0.0,0.0,0.0,0.0,0.0,0.0,0.0,0.0,0.0,0.0,0.0,0.0,0.0,0.0,0.0,0.0,0.0,0.0,0.0,0.0,0.0,0.0,0.0,0.0,0.0,0.0,0.0,0.0,0.0,0.0,0.0,0.0,0.0,0.0,0.0,0.0,0.0,0.0,0.0,0.0,0.0,0.0,0.0,0.0,0.0,0.0,0.0,0.0,0.0,0.0,0.0,0.0,0.0,0.0,0.0,0.0,0.0,0.0,0.0,0.0,0.0,0.0,0.0,0.0,0.0,0.0,0.0,0.0,0.0,0.0,0.0,0.0,0.0,0.0,0.0,0.0,0.0,0.0,0.0,0.0,0.0,0.0,0.0,0.0,0.0,0.0,0.0,0.0,0.0,0.0,0.0,0.0,0.0,0.0,0.0,0.0,0.0,0.0,0.0,0.0,0.0,0.0,0.0,0.0,0.0,0.0,0.0,0.0,0.0,0.0,0.0,0.0,0.0,0.0,0.0,0.0,0.0,0.0,0.0,0.0,0.0,0.0,0.0,0.0,0.0,0.0,0.0,0.0,0.0,0.0,0.0,0.0,0.0,0.0,0.0,0.0,0.0,0.0,0.0,0.0,0.0,0.0,0.0,0.0,0.0,0.0,0.0,0.0,0.0,0.0,0.0,0.0,0.0,0.0,0.0,0.0,0.0,0.0,0.0,0.0,0.0,0.0,0.0,0.0,0.0,0.0,0.0,0.0,0.0,0.0,0.0,0.0,0.0,0.0,0.0,0.0,0.0,0.0,0.0,0.0,0.0,0.0,0.0,0.0,0.0,0.0,0.0,0.0,0.0,0.0,0.0,0.0,0.0,0.0,0.0,0.0,0.0,0.0,0.0,0.0,0.0,0.0,0.0,0.0,0.0,0.0,0.0,0.0,0.0,0.0,0.0,0.0,0.0,0.0,0.0,0.0,0.0,0.0,0.0,0.0,0.0,0.0,0.0,0.0,0.0,0.0,0.0,0.0,0.0,0.0,0.0,0.0,0.0,0.0,0.0,0.0,0.0,0.0,0.0,0.0,0.0,0.0,0.0,0.0,0.0,0.0,0.0,0.0,0.0,0.0,0.0,0.0,0.0,0.0,0.0,0.0,0.0,0.0,0.0,0.0,0.0,0.0,0.0,0.0,0.0,0.0,0.0,0.0,0.0,0.0,0.0,0.0,0.0,0.0,0.0,0.0,0.0,0.0,0.0,0.0,0.0,0.0,0.0,0.0,0.0,0.0,0.0,0.0,0.0,0.0,0.0,0.0,0.0,0.0,0.0,0.0,0.0,0.0,0.0,0.0,0.0,0.0,0.0,0.0,0.0,0.0,0.0,0.0,0.0,0.0,0.0,0.0,0.0,0.0,0.0,0.0,0.0,0.0,0.0,0.0,0.0,0.0,0.0,0.0,0.0,0.0,0.0,0.0,0.0,0.0,0.0,0.0,0.0,0.0,0.0,0.0,0.0,0.0,0.0,0.0,0.0,0.0,0.0,0.0,0.0,0.0,0.0,0.0,0.0,0.0,0.0,0.0,0.0,0.0,0.0,0.0,0.0,0.0,0.0,0.0,0.0,0.0,0.0,0.0,0.0,0.0,0.0,0.0,0.0,0.0,0.0,0.0,0.0,0.0,0.0,0.0,0.0,0.0,0.0,0.0,0.0,0.0,0.0,0.0,0.0,0.0,0.0,0.0,0.0,0.0,0.0,0.0,0.0,0.0,0.0,0.0,0.0,0.0,0.0,0.0,0.0,0.0,0.0,0.0,0.0,0.0,0.0,0.0,0.0,0.0,0.0,0.0,0.0,0.0,0.0,0.0,0.0,0.0,0.0,0.0,0.0,0.0,0.0,0.0,0.0,0.0,0.0,0.0,0.0,0.0,0.0,0.0,0.0,0.0,0.0,0.0,0.0,0.0,0.0,0.0,0.0,0.0,0.0,0.0,0.0,0.0,0.0,0.0,0.0,0.0,0.0,0.0,0.0,0.0,0.0,0.0,0.0,0.0,0.0,0.0,0.0,0.0,0.0,0.0,0.0,0.0,0.0,0.0,0.0,0.0,0.0,0.0,0.0,0.0,0.0,0.0,0.0,0.0,0.0,0.0,0.0,0.0,0.0,0.0,0.0,0.0,0.0,0.0,0.0,0.0,0.0,0.0,0.0,0.0,0.0,0.0,0.0,0.0,0.0,0.0,0.0,0.0,0.0,0.0,0.0,0.0,0.0,0.0,0.0,0.0,0.0,0.0,0.0,0.0,0.0,0.0,0.0,0.0,0.0,0.0,0.0,0.0,0.0,0.0,0.0,0.0,0.0,0.0,0.0,0.0,0.0,0.0,0.0,0.0,0.0,0.0,0.0,0.0,0.0,0.0,0.0,0.0,0.0,0.0,0.0,0.0,0.0,0.0,0.0,0.0,0.0,0.0,0.0,0.0,0.0,0.0,0.0,0.0,0.0,0.0,0.0,0.0,0.0,0.0,0.0,0.0,0.0,0.0,0.0,0.0,0.0,0.0,0.0,0.0,0.0,0.0,0.0,0.0,0.0,0.0,0.0,0.0,0.0,0.0,0.0,0.0,0.0,0.0,0.0,0.0,0.0,0.0,0.0,0.0,0.0,0.0,0.0,0.0,0.0,0.0,0.0,0.0,0.0,0.0,0.0,0.0,0.0,0.0,0.0,0.0,0.0,0.0,0.0,0.0,0.0,0.0,0.0,0.0,0.0,0.0,0.0,0.0,0.0,0.0,0.0,0.0,0.0,0.0,0.0,0.0,0.0,0.0,0.0,0.0,0.0,0.0,0.0,0.0,0.0,0.0,0.0,0.0,0.0,0.0,0.0,0.0,0.0,0.0,0.0,0.0,0.0,0.0,0.0,0.0,0.0,0.0,0.0,0.0,0.0,0.0,0.0,0.0,0.0,0.0,0.0,0.0,0.0,0.0,0.0,0.0,0.0,0.0,0.0,0.0,0.0,0.0,0.0,0.0,0.0,0.0,0.0,0.0,0.0,0.0,0.0,0.0,0.0,0.0,0.0,0.0,0.0,0.0,0.0,0.0,0.0,0.0,0.0,0.0,0.0,0.0,0.0,0.0,0.0,0.0,0.0,0.0,0.0,0.0,0.0,0.0,0.0,0.0,0.0,0.0,0.0,0.0,0.0,0.0,0.0,0.0,0.0,0.0,0.0,0.0,0.0,0.0,0.0,0.0,0.0,0.0,0.0,0.0,0.0,0.0,0.0,0.0,0.0,0.0,0.0,0.0,0.0,0.0,0.0,0.0,0.0,0.0,0.0,0.0,0.0,0.0,0.0,0.0,0.0,0.0,0.0,0.0,0.0,0.0,0.0,0.0,0.0,0.0,0.0,0.0,0.0,0.0,0.0,0.0,0.0,0.0,0.0,0.0,0.0,0.0,0.0,0.0,0.0,0.0,0.0,0.0,0.0,0.0,0.0,0.0,0.0,0.0,0.0,0.0,0.0,0.0,0.0,0.0,0.0,0.0,0.0,0.0,0.0,0.0,0.0,0.0,0.0,0.0,0.0,0.0,0.0,0.0,0.0,0.0,0.0,0.0,0.0,0.0,0.0,0.0,0.0,0.0,0.0,0.0,0.0,0.0,0.0,0.0,0.0,0.0,0.0,0.0,0.0,0.0,0.0,0.0,0.0,0.0,0.0,0.0,0.0,0.0,0.0,0.0,0.0,0.0,0.0,0.0,0.0,0.0,0.0,0.0,0.0,0.0,0.0,0.0,0.0,0.0,0.0,0.0,0.0,0.0,0.0,0.0,0.0,0.0,0.0,0.0,0.0,0.0,0.0,0.0,0.0,0.0,0.0,0.0,0.0,0.0,0.0,0.0,0.0,0.0,0.0,0.0,0.0,0.0,0.0,0.0,0.0,0.0,0.0,0.0,0.0,0.0,0.0,0.0,0.0,0.0,0.0,0.0,0.0,0.0,0.0,0.0,0.0,0.0,0.0,0.0,0.0,0.0,0.0,0.0,0.0,0.0,0.0,0.0,0.0,0.0,0.0,0.0,0.0,0.0,0.0,0.0,0.0,0.0,0.0,0.0,0.0,0.0,0.0,0.0,0.0,0.0,0.0,0.0,0.0,0.0,0.0,0.0,0.0,0.0,0.0,0.0,0.0,0.0,0.0,0.0,0.0,0.0,0.0,0.0,0.0,0.0,0.0,0.0,0.0,0.0,0.0,0.0,0.0,0.0,0.0,0.0,0.0,0.0,0.0,0.0,0.0,0.0,0.0,0.0,0.0,0.0,0.0,0.0,0.0,0.0,0.0,0.0,0.0,0.0,0.0,0.0,0.0,0.0,0.0,0.0,0.0,0.0,0.0,0.0,0.0,0.0,0.0,0.0,0.0,0.0,0.0,0.0,0.0,0.0,0.0,0.0,0.0,0.0,0.0,0.0,0.0,0.0,0.0,0.0,0.0,0.0,0.0,0.0,0.0,0.0,0.0,0.0,0.0,0.0,0.0,0.0,0.0,0.0,0.0,0.0,0.0,0.0,0.0,0.0,0.0,0.0,0.0,0.0,0.0,0.0,0.0,0.0,0.0,0.0,0.0,0.0,0.0,0.0,0.0,0.0,0.0,0.0,0.0,0.0,0.0,0.0,0.0,0.0,0.0,0.0,0.0,0.0,0.0,0.0,0.0,0.0,0.0,0.0,0.0,0.0,0.0,0.0,0.0,0.0,0.0,0.0,0.0,0.0,0.0,-1.6054,-1.6557,0.0,0.0,0.0,0.0,0.0,0.0,0.0,0.0,0.0,0.0,0.0,0.0,0.0,0.0,0.0,0.0,0.0,0.0,0.0,0.0,0.0,0.0,0.0,0.0,0.0,0.0,0.0,0.0,0.0,0.0,0.0,0.0,0.0,0.0,0.0,0.0,0.0,-2.0448,-2.0372,-2.0105,-1.9682,-1.9978,-1.9952,-1.9708,0.0,0.0,0.0,0.0,0.0,0.0,0.0,0.0,0.0,0.0,0.0,0.0,0.0,0.0,0.0,0.0,0.0,0.0,0.0,0.0,0.0,0.0,0.0,0.0,0.0,0.0,0.0,0.0,0.0,0.0,0.0,0.0,0.0,0.0,0.0,0.0,0.0,0.0,0.0,0.0,0.0,0.0,0.0,0.0,0.0,0.0,0.0,0.0,0.0,0.0,0.0,0.0,0.0,0.0,0.0,0.0,0.0,0.0,0.0,0.0,0.0,0.0,0.0,0.0,0.0,0.0,0.0,0.0,0.0,0.0,-1.6055,-1.6226,0.0,0.0,0.0,0.0,0.0,0.0,0.0,0.0,0.0,0.0,0.0,0.0,0.0,0.0,0.0,0.0,0.0,0.0,0.0,0.0,0.0,0.0,0.0,-1.8043,-1.8421,-1.8765,-1.9267,-1.9592,-1.9592,0.0,0.0,0.0,0.0,0.0,-2.0537,-2.0637,-2.0687,-2.0687,-2.0398,-2.0246,-2.0156,-1.9952,-1.9926,-2.0042,-2.0156,0.0,0.0,0.0,0.0,0.0,0.0,0.0,0.0,0.0,0.0,0.0,0.0,0.0,0.0,0.0,0.0,0.0,0.0,0.0,0.0,0.0,0.0,0.0,0.0,0.0,0.0,0.0,0.0,0.0,0.0,0.0,0.0,0.0,0.0,0.0,0.0,0.0,0.0,0.0,0.0,0.0,0.0,0.0,0.0,0.0,0.0,0.0,0.0,0.0,0.0,0.0,0.0,0.0,0.0,0.0,0.0,0.0,0.0,0.0,0.0,0.0,0.0,0.0,-1.8444,-1.8194,-1.8369,-1.7968,-1.779,-1.7707,-1.6446,-1.6157,-1.6578,-1.7056,0.0,0.0,0.0,0.0,0.0,0.0,0.0,0.0,0.0,0.0,0.0,0.0,0.0,0.0,0.0,0.0,0.0,0.0,0.0,-1.7644,-1.8818,-1.8566,-1.8741,-1.9888,-2.022,-2.0347,-2.0347,-2.0524,-2.0624,-2.0624,-2.0662,-2.0687,-2.0687,-2.0687,-2.0637,-2.0537,-1.9734,-1.9617,-2.0016,-1.9526,-1.963,-2.0182,-2.0182,-1.9939,-1.9527,0.0,0.0,0.0,0.0,0.0,0.0,0.0,0.0,0.0,0.0,0.0,0.0,0.0,0.0,0.0,0.0,0.0,0.0,0.0,0.0,0.0,0.0,0.0,0.0,0.0,0.0,0.0,0.0,0.0,0.0,0.0,0.0,0.0,0.0,0.0,0.0,0.0,0.0,0.0,0.0,0.0,-1.8975,-1.9514,0.0,0.0,0.0,0.0,0.0,0.0,0.0,0.0,0.0,0.0,0.0,0.0,0.0,-2.0525,-2.0403,-1.967,-1.929,-1.9204,-1.8332,-1.7939,-1.7978,-1.8309,-1.8458,-1.8448,-1.8072,0.0,-1.7431,-1.7522,0.0,0.0,0.0,0.0,0.0,0.0,0.0,0.0,0.0,0.0,0.0,0.0,0.0,0.0,0.0,0.0,0.0,0.0,0.0,0.0,0.0,-1.937,-1.9695,-2.0055,-2.0169,-2.022,-2.022,-2.0271,-2.0435,-2.0687,-2.0699,-2.0699,-2.0699,-2.0699,-2.0637,-2.0486,-1.9837,-1.9734,-2.0105,-1.963,-1.9708,-2.0207,-2.0207,-2.0169,-2.0144,-2.0473,0.0,0.0,0.0,0.0,0.0,0.0,0.0,0.0,0.0,0.0,0.0,0.0,0.0,0.0,0.0,0.0,0.0,0.0,0.0,0.0,0.0,0.0,0.0,0.0,0.0,0.0,0.0,0.0,0.0,0.0,0.0,0.0,0.0,0.0,0.0,0.0,0.0,0.0,0.0,-1.9279,-1.9565,-1.9566,-1.9824,-2.0029,0.0,0.0,0.0,0.0,0.0,0.0,0.0,0.0,0.0,-2.0752,-2.1292,-2.1566,-2.1509,-2.1205,-2.1087,-2.1164,-2.0451,-2.0335,-2.0823,-2.0519,-2.055,-2.0837,-2.0236,-1.9879,-1.962,-1.869,-1.8935,-1.9881,0.0,0.0,0.0,0.0,-1.985,-1.9126,0.0,0.0,0.0,0.0,0.0,0.0,0.0,0.0,0.0,0.0,0.0,0.0,-1.9186,-1.9668,-1.9991,-1.994,-1.9888,-1.9914,-2.0105,-2.0182,-2.0384,-2.0749,-2.0848,-2.0848,-2.0774,-2.0687,-2.0524,-2.0322,-1.9939,-1.9862,-2.0029,-1.963,-1.9604,-1.9939,-1.9939,-2.0093,-2.0385,-2.0574,-2.0599,-2.0561,0.0,0.0,0.0,0.0,0.0,0.0,0.0,0.0,0.0,0.0,0.0,0.0,0.0,0.0,0.0,0.0,0.0,0.0,0.0,0.0,0.0,0.0,0.0,0.0,0.0,0.0,0.0,0.0,0.0,0.0,0.0,0.0,0.0,0.0,0.0,0.0,0.0,-1.9734,-1.9746,-1.9618,-1.9939,-2.0195,0.0,0.0,0.0,0.0,0.0,0.0,-2.1216,-2.1552,-2.1785,-2.1907,-2.2447,-2.2811,-2.292,-2.2892,-2.3067,-2.3389,-2.2874,-2.2983,-2.3598,-2.3058,-2.2916,-2.3037,-2.236,-2.1916,-2.161,-2.0135,-1.992,-2.0625,-2.1074,-2.1341,-2.1408,-2.123,-2.049,-1.9575,0.0,0.0,0.0,0.0,0.0,0.0,0.0,0.0,0.0,0.0,0.0,-1.9475,-1.9721,-1.9056,-1.8924,-1.9747,-1.9579,-1.9721,-2.0436,-2.0648,-2.0833,-2.0997,-2.1229,-2.1253,-2.0997,-2.0687,-2.0296,-1.9824,-1.9682,-1.9604,-1.9604,-1.9225,-1.9119,-1.9265,-1.9265,-1.9331,-1.9501,-2.022,-2.0334,-2.0131,-2.1044,0.0,0.0,0.0,0.0,0.0,0.0,0.0,0.0,0.0,0.0,0.0,0.0,0.0,0.0,0.0,0.0,0.0,0.0,0.0,0.0,0.0,0.0,0.0,0.0,0.0,0.0,0.0,0.0,0.0,0.0,0.0,0.0,0.0,0.0,0.0,0.0,0.0,0.0,-2.0105,-2.008,0.0,0.0,0.0,0.0,-2.2203,-2.1984,-2.2076,-2.2667,-2.2534,-2.2614,-2.3007,-2.3615,-2.4167,-2.4662,-2.4548,-2.4766,-2.525,-2.5059,-2.4948,-2.5006,-2.5428,-2.5158,-2.4401,-2.4165,-2.3602,-2.2727,-2.1641,-2.1463,-2.1895,-2.1933,-2.2222,-2.2509,-2.1837,-2.1535,-2.1356,0.0,0.0,0.0,0.0,0.0,0.0,0.0,0.0,-1.9631,-1.9541,-1.9305,-1.9317,-1.9747,-1.9371,-1.9267,-1.9747,-1.9488,-1.954,-2.0144,-1.9991,-2.0169,-2.0774,-2.0898,-2.0898,-2.0799,-2.0687,-2.0385,-1.9914,-1.9604,-1.9645,-1.999,-1.9519,-1.966,-2.0278,-2.0278,-2.015,-1.99,-1.983,-1.9862,-2.0042,-2.0535,-2.097,0.0,0.0,0.0,0.0,0.0,0.0,0.0,0.0,0.0,0.0,0.0,0.0,0.0,0.0,0.0,0.0,0.0,0.0,0.0,0.0,0.0,0.0,0.0,0.0,0.0,0.0,0.0,0.0,0.0,0.0,0.0,0.0,0.0,0.0,0.0,0.0,0.0,-2.0992,-2.1262,0.0,-2.1833,-2.2155,-2.2424,-2.2631,-2.3228,-2.3671,-2.3876,-2.4507,-2.4962,-2.5103,-2.6021,-2.662,-2.6778,-2.7082,-2.7341,-2.7542,-2.7851,-2.8189,-2.8461,-2.7703,-2.7347,-2.7304,-2.5904,-2.5119,-2.4805,-2.4432,-2.3732,-2.2903,-2.2903,-2.2932,-2.2932,-2.2656,-2.223,-2.1759,0.0,0.0,0.0,0.0,0.0,0.0,0.0,-2.0067,-1.985,-1.9798,-1.95,-1.9344,-1.9566,-1.9488,-1.9436,-1.9526,-1.9357,-1.9462,-1.9888,-1.9991,-2.0283,-2.0923,-2.0835,-2.0686,-2.041,-2.0334,-2.0169,-1.9826,-1.956,-1.9718,-2.0213,-1.9764,-1.9897,-2.0505,-2.0505,-2.0313,-2.0017,-1.9657,-1.9619,-1.9824,-2.0093,-2.0397,-2.0723,0.0,0.0,0.0,0.0,0.0,0.0,0.0,0.0,0.0,0.0,0.0,0.0,0.0,0.0,0.0,0.0,0.0,0.0,0.0,0.0,0.0,0.0,0.0,0.0,0.0,0.0,0.0,0.0,0.0,0.0,0.0,0.0,0.0,0.0,-2.1459,-2.1718,-2.2034,-2.2317,-2.2652,-2.3098,-2.3475,-2.3807,-2.4107,-2.4756,-2.5318,-2.5704,-2.6405,-2.6873,-2.7032,-2.7776,-2.8354,-2.8726,-2.9111,-2.9483,-2.9868,-3.024,-3.065,-3.0945,-2.9544,-2.9135,-2.9346,-2.7261,-2.6359,-2.6359,-2.601,-2.5215,-2.4137,-2.4137,-2.4,-2.3789,-2.3789,-2.3461,-2.3001,0.0,0.0,0.0,0.0,0.0,0.0,-1.9991,-2.0016,-1.985,-1.9473,-1.9604,-1.9618,-1.9226,-1.9293,-1.9279,-1.904,-1.9253,-1.9527,-1.9824,-2.0673,-2.1229,-2.1375,-2.1129,-2.0622,-1.9824,-1.9707,-1.9599,-1.9519,-1.9531,-1.9804,-2.0315,-1.9924,-1.9723,-1.9734,-1.9734,-1.9734,-1.9711,-1.9711,-1.9599,-1.9443,-1.9693,-1.9875,-2.0093,0.0,0.0,0.0,0.0,0.0,0.0,0.0,0.0,0.0,0.0,0.0,0.0,0.0,0.0,0.0,0.0,0.0,0.0,0.0,0.0,0.0,0.0,0.0,0.0,0.0,0.0,0.0,0.0,0.0,0.0,0.0,0.0,0.0,-2.2467,-2.2317,-2.2498,-2.3182,-2.316,-2.3641,-2.494,-2.5083,-2.5568,-2.668,-2.6596,-2.6991,-2.8084,-2.8048,-2.8213,-2.8764,-2.8815,-2.9354,-3.0445,-3.0458,-3.1035,-3.2114,-3.214,-3.214,-3.206,-3.0894,-3.0354,-3.0313,-2.8181,-2.7271,-2.7271,-2.6357,-2.5846,-2.565,-2.5619,-2.5417,-2.5178,-2.5178,-2.5178,-2.5178,0.0,0.0,0.0,0.0,0.0,0.0,-2.041,-2.0207,-1.9888,-1.9579,-1.937,-1.9121,-1.8859,-1.8874,-1.9071,-1.954,-1.9384,-1.9669,-2.0611,-2.0623,-2.0673,-2.0809,-2.066,-2.0334,-1.9798,-2.0042,-2.0072,-1.9848,-2.0262,-2.0548,-2.0724,-2.0507,-2.0626,-2.0931,-2.0818,-2.0549,-2.0217,-2.0217,-1.9986,-1.9631,-1.9598,-1.9824,-2.0163,0.0,0.0,0.0,0.0,0.0,0.0,0.0,0.0,0.0,0.0,0.0,0.0,0.0,0.0,0.0,0.0,0.0,0.0,0.0,0.0,0.0,0.0,0.0,0.0,0.0,0.0,0.0,0.0,0.0,0.0,0.0,-2.4487,-2.4573,-2.3175,-2.3311,-2.3822,-2.4413,-2.5192,-2.5819,-2.6209,-2.6981,-2.7609,-2.7923,-2.8273,-2.863,-2.8943,-2.9715,-3.0236,-3.0355,-3.1161,-3.1746,-3.2058,-3.2058,-3.2215,-3.2527,-3.2969,-3.292,-3.2349,-3.1577,-3.0981,-3.0379,-2.8901,-2.8101,-2.7779,-2.7511,-2.7207,-2.6733,-2.5911,-2.5417,-2.5178,-2.5178,-2.5178,-2.5178,0.0,0.0,0.0,0.0,0.0,0.0,-2.0067,-1.9914,-1.9618,-1.9305,-1.916,-1.8975,-1.8685,-1.8965,-1.9267,-1.954,-1.9448,-1.9759,-2.0686,-2.0684,-2.056,-2.0359,-2.0207,-2.004,-1.9807,-1.9966,-2.0164,-2.038,-2.0679,-2.1099,-2.1577,-2.1401,-2.1606,-2.205,-2.1887,-2.1673,-2.1365,-2.1365,-2.1204,-2.0902,-2.0396,-2.0186,-2.0141,-1.999,-2.0019,-2.0138,-2.0054,-2.0322,-2.0592,-1.998,0.0,0.0,0.0,0.0,0.0,0.0,0.0,0.0,0.0,0.0,0.0,0.0,0.0,0.0,0.0,0.0,0.0,0.0,0.0,0.0,0.0,0.0,0.0,0.0,-2.5525,-2.5783,-2.5511,-2.5438,-2.5546,-2.5999,-2.6876,-2.7517,-2.7779,-2.8582,-2.9209,-2.9457,-3.0019,-3.0464,-3.0699,-3.1339,-3.1705,-3.1705,-3.2346,-3.2816,-3.3064,-3.3064,-3.3182,-3.3417,-3.3757,-3.3708,-3.3267,-3.2099,-3.1589,-3.1424,-2.9532,-2.8771,-2.8874,-2.8269,-2.7857,-2.7531,0.0,0.0,0.0,0.0,-2.6104,-2.6104,0.0,0.0,0.0,0.0,0.0,0.0,-1.9342,-1.9368,-1.9184,-1.8798,-1.8987,-1.8975,-1.856,-1.9212,-1.954,-1.9186,-1.9408,-1.9759,-2.0321,-2.0721,-2.0671,-1.9965,-1.9913,-1.9848,-1.9796,-1.9801,-2.0172,-2.0948,-2.1007,-2.1549,-2.2539,-2.2365,-2.2535,-2.3058,-2.2821,-2.2753,-2.2753,-2.2719,-2.2707,-2.2638,-2.173,-2.0908,-2.0217,-2.0109,-2.0226,-2.0436,-1.9964,-2.0406,-2.1142,-2.0688,0.0,0.0,0.0,0.0,0.0,0.0,0.0,0.0,0.0,0.0,0.0,0.0,0.0,0.0,0.0,0.0,0.0,0.0,0.0,0.0,0.0,0.0,0.0,0.0,-2.6368,-2.6832,-2.8379,-2.8069,-2.7733,-2.7767,-2.835,-2.8952,-2.9454,-3.0082,-3.0671,-3.1143,-3.1615,-3.2124,-3.2659,-3.2751,0.0,0.0,0.0,-3.3143,-3.3679,-3.3679,-3.3927,-3.4397,-3.4397,-3.4314,-3.4092,-3.242,-3.204,-3.2544,-3.0079,-2.9428,-3.0034,-2.8771,-2.8175,-2.794,-2.7489,-2.7309,-2.7309,-2.7309,-2.7309,-2.7309,0.0,0.0,0.0,0.0,0.0,0.0,-1.9316,-1.9105,-1.8786,-1.8452,-1.8679,-1.8625,-1.7947,-1.8545,-1.8946,-1.8866,-1.9025,-1.9396,-2.0055,-2.0459,-2.0384,-1.9708,-2.0053,-2.0123,-1.9808,-2.0519,-2.1039,-2.1302,-2.1733,-2.226,-2.2883,-2.271,-2.2897,-2.3394,-2.3092,-2.3024,-2.3171,-2.2855,-2.2787,-2.2899,-2.2568,-2.1843,-2.0892,-2.008,-1.982,-1.9866,-1.9761,-1.9842,-2.004,-2.0028,-2.0708,-2.157,-2.1703,-2.2815,0.0,0.0,0.0,0.0,0.0,0.0,0.0,0.0,0.0,0.0,0.0,0.0,0.0,0.0,0.0,0.0,0.0,0.0,0.0,-2.7045,-2.7911,-2.8559,-2.8588,-2.9933,-3.0508,-2.9478,-3.0326,-3.092,-3.0684,-3.1879,-3.2578,-3.2398,-3.2463,-3.2581,-3.2685,-3.3156,-3.3417,-3.3417,-3.3849,-3.4123,-3.4241,-3.4241,-3.4293,-3.4397,-3.4397,0.0,-3.2692,-3.2345,-3.1657,-3.0746,-3.0791,-3.034,-2.9669,-2.992,-2.9222,-2.794,-2.7489,-2.7309,-2.7309,-2.7309,-2.7309,-2.7309,0.0,0.0,0.0,0.0,0.0,0.0,-1.8989,-1.8984,-1.8732,-1.8263,-1.8545,-1.861,-1.8123,-1.8545,-1.8919,-1.8987,-1.9317,-1.9488,-1.9488,-1.9888,-1.9837,-1.9237,-1.9763,-2.0095,-2.0093,-2.0895,-2.1464,-2.1801,-2.233,-2.2859,-2.3408,-2.3475,-2.3802,-2.4302,-2.4002,-2.3944,-2.406,-2.384,-2.3805,-2.3886,-2.3502,-2.2897,-2.2094,-2.1051,-2.0547,-2.038,-2.0211,-2.0323,-2.0564,-2.0624,-2.1164,-2.1916,-2.2585,-2.348,-2.4323,0.0,0.0,0.0,0.0,0.0,0.0,0.0,0.0,0.0,0.0,0.0,0.0,0.0,0.0,-2.6441,-2.675,0.0,-2.7752,-2.8351,-2.923,-2.9988,-3.0436,-3.1523,-3.1926,-3.1083,-3.1596,-3.204,-3.2142,-3.2935,-3.337,-3.3183,-3.3391,-3.3548,-3.3548,-3.3835,-3.3992,-3.3992,-3.4254,-3.4397,-3.4397,-3.4397,-3.4397,-3.4397,-3.4397,-3.405,-3.3348,-3.3018,-3.2283,-3.1258,-3.1294,-3.0758,-2.9852,-2.9977,-2.9371,-2.8305,-2.7809,-2.7489,-2.7309,-2.7309,-2.7309,-2.7309,0.0,0.0,0.0,0.0,0.0,0.0,-1.8451,-1.8688,-1.864,-1.8166,-1.8464,-1.8637,-1.8422,-1.8706,-1.8987,-1.9107,-1.9488,-1.9514,-1.8987,-1.9251,-1.9251,-1.8825,-1.9557,-2.0125,-2.0442,-2.1164,-2.1765,-2.2197,-2.2758,-2.3276,-2.3818,-2.4166,-2.461,-2.5111,-2.4957,-2.4861,-2.4897,-2.4825,-2.4825,-2.4826,-2.4355,-2.3767,-2.312,-2.2286,-2.1655,-2.1187,-2.0902,-2.1081,-2.147,-2.15,-2.1776,-2.2328,-2.3339,-2.3829,-2.4195,-2.5217,-2.5715,0.0,0.0,0.0,0.0,0.0,0.0,0.0,0.0,-2.6049,-2.6104,-2.6231,-2.6652,-2.7074,-2.7312,-2.8183,-2.9111,-2.9855,-3.0488,-3.1246,-3.2258,-3.2723,-3.2925,-3.2796,-3.286,-3.307,-3.3577,-3.3794,-3.3907,-3.3989,-3.4232,-3.4439,-3.4522,-3.4439,-3.4397,-3.4397,-3.4397,-3.4397,-3.4397,-3.4397,-3.4397,-3.4397,-3.4397,-3.4272,-3.3966,-3.3416,-3.2717,-3.1877,-3.1446,-3.0955,-3.0502,-3.0101,-2.9626,-2.9102,-2.8737,-2.8227,-2.7692,-2.7419,-2.7309,-2.7309,0.0,0.0,0.0,0.0,0.0,0.0,0.0,0.0,-1.8166,-1.8111,-1.8313,-1.8422,-1.8394,-1.8545,-1.8706,-1.8813,-1.8774,-1.8774,-1.8825,-1.8878,-1.8851,-1.8798,-1.9901,-2.0521,-2.0581,-2.1584,-2.2125,-2.2197,-2.2758,-2.3276,-2.3806,-2.4244,-2.4772,-2.5276,-2.5111,-2.5111,-2.5206,-2.4921,-2.4885,-2.5052,-2.4791,-2.4096,-2.3191,-2.3252,-2.2613,-2.1635,-2.1577,-2.1631,-2.1678,-2.1791,-2.1877,-2.1987,-2.2297,-2.3143,-2.4021,-2.4166,-2.5007,-2.5893,-2.5893,-2.5674,-2.5439,-2.5439,-2.5439,-2.5591,0.0,-2.6539,-2.6877,-2.7453,-2.7651,-2.8001,-2.9097,-2.9406,-2.9897,-3.1078,-3.1794,-3.2244,-3.2384,-3.3325,-3.4228,-3.4797,-3.4719,-3.4651,-3.4719,-3.4835,-3.5061,-3.5453,-3.4814,-3.4564,-3.499,-3.4618,-3.4397,-3.4397,-3.4397,-3.4397,-3.4397,-3.4397,-3.4397,-3.4397,-3.4397,-3.3742,-3.2519,-3.2444,-3.1701,-3.0465,-3.0848,-3.1321,-3.1779,-3.1622,-3.1249,-3.0748,-3.07,-3.0024,-2.901,-2.7744,-2.7309,-2.7309,0.0,0.0,0.0,0.0,0.0,0.0,0.0,0.0,-1.8275,-1.8275,-1.834,-1.8449,-1.861,-1.8759,-1.8854,-1.8919,-1.8786,-1.8759,-1.8919,-1.8851,-1.8825,-1.8919,-1.9705,-2.0286,-2.0581,-2.1356,-2.1885,-2.2197,-2.2758,-2.3119,-2.336,-2.3833,-2.4362,-2.482,-2.4785,-2.4953,-2.5276,-2.5147,-2.498,-2.4751,-2.4658,-2.4004,-2.3096,-2.3173,-2.2719,-2.198,-2.198,-2.198,0.0,-2.2061,-2.2061,-2.2204,-2.2992,-2.3594,-2.4137,-2.4908,-2.5481,-2.5743,-2.4992,-2.4865,-2.4973,-2.5179,-2.5347,-2.5757,-2.694,-2.7311,-2.7453,-2.7749,-2.8352,-2.8998,-2.9518,-3.0502,-3.1415,-3.1935,-3.2539,-3.3073,-3.3389,-3.4225,-3.5034,-3.5653,-3.5734,-3.5768,-3.5768,-3.5588,-3.544,-3.5358,-3.5031,-3.4784,-3.4701,-3.4522,-3.4397,-3.4397,-3.4397,-3.4397,-3.4397,-3.4021,-3.4021,-3.4397,-3.3573,-3.3104,-3.2957,-3.2834,-3.2397,-3.1715,-3.1984,-3.2031,-3.1903,-3.2265,-3.2028,-3.1397,-3.1109,-3.0722,-3.0182,-2.8966,-2.8342,-2.8048,0.0,0.0,0.0,0.0,0.0,0.0,0.0,0.0,0.0,0.0,-1.8449,-1.861,-1.8813,-1.8946,-1.8987,-1.8987,-1.8866,-1.8878,-1.8987,-1.8866,-1.8878,-1.8987,-1.9519,-1.9973,-2.037,-2.0911,-2.144,-2.1969,-2.251,-2.2879,-2.3023,-2.3553,-2.3965,-2.4314,-2.4314,-2.4518,-2.4891,-2.4891,-2.4662,-2.4314,-2.4314,-2.3688,-2.2806,-2.2919,-2.257,-2.1993,-2.2137,-2.2197,-2.2197,-2.2197,-2.2197,-2.2389,-2.3416,-2.3875,-2.4224,-2.5314,-2.5784,-2.573,-2.4983,-2.4893,-2.5128,-2.5644,-2.5851,-2.6296,-2.7727,-2.8058,-2.8157,-2.8464,-2.9237,-2.9968,-3.0319,-3.1485,-3.2455,-3.2623,-3.3136,-3.3697,-3.4147,-3.4913,-3.5611,-3.6061,-3.6395,-3.6589,-3.6589,-3.6045,-3.5669,-3.5642,-3.5399,-3.5154,-3.4977,-3.4812,-3.4771,-3.4771,-3.4771,-3.4771,-3.4771,-3.4272,-3.423,-3.4564,-3.356,-3.3265,-3.3596,-3.3214,-3.2967,-3.2829,-3.2783,-3.2475,-3.2068,-3.2722,-3.2685,-3.2108,-3.178,-3.1525,-3.1319,-3.0531,-2.9725,-2.9055,0.0,0.0,0.0,0.0,0.0,0.0,0.0,0.0,0.0,0.0,-1.8637,-1.8851,-1.8999,-1.8987,-1.8987,-1.8987,-1.8866,-1.8878,-1.8987,-1.8866,-1.8878,-1.8987,-1.9519,-1.982,-1.9832,-2.0346,-2.0899,-2.1428,-2.1957,-2.2474,-2.3023,-2.3553,-2.3806,-2.383,-2.383,-2.383,-2.3854,-2.3854,-2.3842,-2.383,-2.383,-2.3192,-2.227,-2.2787,-2.233,-2.15,-2.2005,-2.2197,-2.2197,-2.2197,-2.2197,-2.2309,-2.2919,-2.3522,-2.415,-2.4821,-2.5453,-2.602,-2.6568,-2.6523,-2.6562,-2.7506,-2.7485,-2.7506,-2.8446,-2.8661,-2.8998,-3.0161,-3.0441,-3.0834,-3.2089,-3.237,-3.2595,-3.3164,-3.3768,-3.4175,-3.4203,-3.5278,-3.6089,-3.6103,-3.6613,-3.6978,-3.6978,-3.6191,-3.6031,-3.6861,-3.6151,-3.5884,-3.6312,-3.5924,-3.5669,-3.5669,-3.5669,-3.5669,-3.5669,-3.5629,-3.5426,-3.5086,-3.5031,-3.4727,-3.4128,-3.3268,-3.2898,-3.2887,-3.2634,-3.2515,-3.25,-3.3066,-3.3285,-3.3235,-3.3235,-3.2862,-3.2364,-3.2314,-3.1423,-3.015,0.0,0.0,0.0,0.0,0.0,0.0,0.0,0.0,0.0,0.0,0.0,0.0,0.0,0.0,0.0,0.0,-1.8972,-1.8946,-1.8987,-1.8972,-1.8946,-1.8987,-1.9167,-1.9447,-1.9796,-1.9989,-2.0334,-2.0887,-2.1055,-2.1223,-2.141,-2.159,-2.1879,-2.2197,-2.2197,-2.2402,-2.2758,-2.2758,-2.2522,-2.2197,-2.2197,-2.1777,-2.1211,-2.1728,-2.1716,-2.1524,0.0,-2.2811,-2.2811,-2.2811,-2.307,-2.3429,-2.364,-2.415,-2.4793,-2.5411,-2.6008,-2.6456,-2.6268,-2.6598,-2.7126,-2.763,-2.7812,-2.813,-2.9091,-2.9307,-2.942,-2.9827,-3.0586,-3.1288,-3.1724,-3.2469,-3.3073,-3.3262,-3.381,-3.4343,-3.4787,-3.5597,-3.6258,-3.6666,-3.6866,-3.6978,-3.6978,-3.6744,-3.6547,-3.6615,-3.6351,-3.6098,-3.5924,-3.5804,-3.571,-3.571,-3.571,-3.571,-3.571,-3.5277,-3.5196,-3.548,-3.4611,-3.3877,-3.3324,-3.2864,-3.2808,-3.3206,-3.359,-3.3476,-3.3116,-3.435,-3.4519,-3.4066,-3.4617,-3.4702,-3.4532,-3.4532,-3.4208,-3.3524,0.0,0.0,0.0,0.0,0.0,0.0,0.0,0.0,0.0,0.0,0.0,0.0,0.0,0.0,0.0,0.0,0.0,-1.8987,-1.8987,-1.8987,-1.8987,-1.8987,-1.8987,-1.9143,-1.9519,-1.9519,-1.9768,-2.0322,-2.0322,-2.0406,-2.0586,-2.0586,-2.0779,-2.1115,-2.1115,-2.1308,-2.1632,-2.162,-2.1416,-2.1103,-2.1115,-2.0803,-2.037,-2.0923,-2.1115,0.0,-2.2657,-2.3267,-2.3374,-2.3177,-2.3492,-2.3992,-2.3992,-2.4624,-2.5439,-2.6036,-2.6512,-2.682,-2.6891,-2.7335,-2.7883,-2.8281,-2.854,-2.885,-2.9442,-2.9602,-2.9673,-2.9897,-3.0586,-3.1288,-3.1738,-3.2469,-3.3073,-3.3248,-3.4028,-3.4702,-3.5133,-3.592,-3.6581,-3.6936,-3.6978,-3.6978,-3.6978,-3.6978,-3.6875,-3.6615,-3.6615,-3.6482,-3.6191,-3.6151,-3.6151,-3.6151,-3.6151,-3.6151,-3.6151,-3.5749,-3.5575,-3.5736,-3.5263,-3.4607,-3.3827,-3.3947,-3.3991,-3.4014,-3.4372,-3.4274,-3.3904,-3.5102,-3.5319,-3.4872,-3.5415,-3.5619,-3.5619,-3.5619,-3.5619,-3.5319,0.0,0.0,0.0,0.0,0.0,0.0,0.0,0.0,0.0,0.0,0.0,0.0,0.0,0.0,0.0,0.0,0.0,0.0,-1.8987,-1.8987,-1.8987,-1.8987,-1.8987,-1.8987,-1.8987,-1.8987,-1.9266,-1.9772,-1.9772,-2.0009,-2.0538,-2.0538,-2.0538,-2.0538,-2.0538,-2.0538,-2.0538,-2.0531,-2.0519,-2.0519,-2.0526,-2.0213,-1.9832,-2.0358,-2.0574,-2.0835,-2.257,-2.3539,-2.3923,-2.3344,-2.3522,-2.4021,-2.4079,-2.495,-2.6062,-2.6638,-2.6849,-2.7172,-2.8366,-2.8717,-2.8872,-2.9462,-2.9602,-2.9602,-2.9602,-2.9602,-2.9771,-3.0329,-3.0469,-3.0862,-3.2089,-3.237,-3.2595,-3.315,-3.4309,-3.5161,-3.5189,-3.6216,-3.695,-3.6978,-3.6978,-3.6978,-3.6978,-3.6978,-3.6978,-3.6978,-3.6978,-3.6978,-3.6978,-3.6978,-3.6978,-3.6978,-3.6978,-3.6978,-3.6978,-3.6978,-3.6613,-3.5909,-3.6949,-3.6805,-3.5638,-3.6349,-3.6166,-3.5259,-3.5017,-3.4908,-3.4957,-3.5475,-3.5715,-3.5715,-3.5715,-3.5715,-3.5715,-3.5715,-3.5715,-3.5667,0.0,0.0,0.0,0.0,0.0,0.0,0.0,0.0,0.0,0.0,0.0,0.0,0.0,0.0,0.0,0.0,0.0,0.0,-1.8987,-1.8987,-1.8987,-1.8987,-1.8987,-1.8987,-1.8987,-1.8987,-1.9086,-1.9191,-1.9191,-1.9263,-1.9408,-1.9408,-1.9408,-1.9408,-1.9408,-1.9408,-1.9408,-1.9396,-1.9423,-1.9423,-1.9408,-1.9324,-1.9251,-1.9793,-2.0263,-2.0842,-2.2556,-2.3543,-2.3966,-2.3819,-2.3875,-2.4166,-2.5133,-2.5939,-2.661,-2.6764,-2.7481,-2.8282,-2.8605,-2.9026,-2.942,-2.956,-2.9602,-2.9602,-2.9602,-2.9602,-2.9645,-2.9813,-3.0175,-3.0582,-3.0905,-3.1766,-3.2455,-3.2609,-3.3677,-3.4632,-3.5119,-3.585,-3.6511,-3.6936,-3.6978,-3.6978,-3.6978,-3.6978,-3.6978,-3.6978,-3.6978,-3.6978,-3.6978,-3.6978,-3.6978,-3.6978,-3.6978,-3.6978,-3.6978,-3.6978,-3.6981,-3.7005,-3.7097,-3.7052,-3.6906,-3.6929,-3.6807,-3.6539,-3.648,-3.6433,-3.6492,-3.6798,-3.6951,-3.6964,-3.7201,-3.732,-3.732,-3.732,-3.732,-3.7273,0.0,0.0,0.0,0.0,0.0,0.0,0.0,0.0,0.0,0.0,0.0,0.0,0.0,0.0,0.0,0.0,0.0,0.0,0.0,-1.8987,-1.8987,-1.8987,-1.8987,-1.8987,-1.8987,-1.8987,-1.8987,-1.8987,-1.8987,-1.8987,-1.8987,-1.8987,-1.8987,-1.8987,-1.8987,-1.8987,-1.8987,-1.8987,-1.8987,0.0,0.0,-1.9146,-1.9354,-1.9419,-2.0066,-2.1077,-2.2083,-2.3123,-2.4082,-2.4649,-2.4467,-2.4224,-2.5508,-2.6315,-2.6863,-2.7144,-2.7931,-2.8759,-2.9012,-2.935,-2.9602,-2.9602,-2.9602,-2.9602,-2.9602,-2.9602,-2.9602,-2.9602,-2.9883,-3.0175,-3.0441,-3.1059,-3.1766,-3.2314,-3.3178,-3.414,-3.5062,-3.5723,-3.6328,-3.6908,-3.6978,-3.6978,-3.6978,-3.6978,-3.6978,-3.6978,-3.6978,-3.6978,-3.6978,-3.6978,-3.6978,-3.6978,-3.6978,-3.6978,-3.6978,-3.6978,-3.7131,-3.739,-3.7699,-3.7755,-3.7573,-3.7867,-3.773,-3.7376,-3.7547,-3.756,-3.7389,-3.775,-3.7835,-3.7651,-3.7841,-3.79,-3.79,-3.79,-3.79,-3.79,0.0,0.0,0.0,0.0,0.0,0.0,0.0,0.0,0.0,0.0,0.0,0.0,0.0,0.0,0.0,0.0,0.0,0.0,0.0,0.0,-1.8987,-1.8987,-1.8987,-1.8987,-1.8987,-1.8987,-1.8987,-1.8987,-1.8987,-1.8987,-1.8987,-1.8987,-1.8987,-1.8987,-1.8987,-1.8987,-1.8987,-1.8987,-1.8987,-1.8987,-1.8987,-1.9317,-1.9747,0.0,-2.0047,-2.1445,-2.164,-2.271,-2.4177,-2.5395,-2.5037,-2.4352,-2.5522,-2.6371,-2.7045,-2.7636,-2.8268,-2.8928,-2.9462,-2.9602,-2.9602,-2.9602,-2.9602,-2.9602,-2.9602,-2.9602,-2.9602,-2.9602,-2.9602,-2.9771,-3.0273,-3.0441,-3.0876,-3.2089,-3.2806,-3.3663,-3.5006,-3.5653,-3.6244,-3.6908,-3.6978,-3.6978,-3.6978,-3.6978,-3.6978,-3.6978,-3.6978,-3.6978,-3.6978,-3.6978,-3.6978,-3.6978,-3.6978,-3.6978,-3.6978,-3.7063,-3.7268,-3.7615,-3.8546,-3.8707,-3.8206,-3.9046,-3.8957,-3.8219,-3.8612,-3.8567,-3.8219,-3.8621,-3.8557,-3.8161,-3.8129,-3.8083,-3.8083,-3.8083,-3.8037,-3.7992,0.0,0.0,0.0,0.0,0.0,0.0,0.0,0.0,0.0,0.0,-1.8386,-1.8987,0.0,0.0,0.0,0.0,0.0,0.0,0.0,0.0,0.0,-1.8987,-1.8987,-1.8987,-1.8987,-1.8987,-1.8987,-1.8987,-1.8987,-1.8987,-1.8987,-1.8987,-1.8987,-1.8987,-1.8987,-1.8987,-1.8987,-1.8987,-1.8987,-1.8987,-1.8987,-1.9317,-1.9798,-1.9708,0.0,0.0,-2.2487,-2.3336,-2.4123,-2.4893,-2.4998,-2.4963,-2.566,-2.668,-2.7665,-2.7777,-2.8577,-2.9476,-2.9574,-2.9602,-2.9602,-2.9602,-2.9602,-2.9602,-2.9602,-2.9602,-2.9602,-2.9602,-2.9602,-2.9645,-2.9757,-3.0147,-3.0736,-3.1527,-3.2159,-3.3171,-3.495,-3.5287,-3.5766,-3.6852,-3.6978,-3.6978,-3.6978,-3.6978,-3.6978,-3.6978,-3.6978,-3.6978,-3.6978,-3.6978,-3.6978,-3.6978,-3.6978,-3.6978,-3.6978,-3.7484,-3.8036,-3.8642,-3.9339,-3.983,-4.0199,-4.0372,-4.0329,-4.0199,-4.0286,-4.0286,-4.0156,-3.9865,-3.9689,-3.9601,-3.9216,-3.9038,-3.9038,-3.9038,-3.8827,-3.8466,0.0,0.0,0.0,0.0,0.0,0.0,0.0,-1.6475,-1.7075,-1.7351,-1.8097,-1.8686,-1.8963,-1.8987,-1.8987,0.0,0.0,0.0,0.0,0.0,0.0,-1.8987,-1.8987,-1.8987,-1.8987,-1.8987,-1.8987,-1.8987,0.0,-1.8987,-1.8987,-1.8987,-1.8987,-1.8987,-1.8987,-1.8987,-1.8987,-1.8987,-1.8987,-1.8987,-1.8987,-1.9514,-2.0283,-1.9927,0.0,0.0,-2.2728,-2.3328,-2.3775,-2.4703,-2.5003,-2.5121,-2.5713,-2.6764,-2.7805,-2.7805,-2.8647,-2.9602,-2.9602,-2.9602,-2.9602,-2.9602,-2.9602,-2.9602,-2.9602,-2.9602,-2.9602,-2.9602,-2.9602,-2.9602,-2.9602,-2.9855,-3.0361,-3.1331,-3.1738,-3.2679,-3.488,-3.5189,-3.5653,-3.6838,-3.6978,-3.6978,-3.6978,-3.6978,-3.6978,-3.6978,-3.6978,-3.6978,-3.6978,-3.6978,-3.6978,-3.6978,-3.6978,-3.6978,-3.6978,-3.7597,-3.8229,-3.8916,-3.9535,-4.0112,-4.0702,-4.0702,-4.0702,-4.0702,-4.0702,-4.0573,-4.03,-4.0083,-3.9865,-3.9601,-3.9394,-3.9172,-3.8948,-3.8948,-3.8647,-3.8253,0.0,0.0,0.0,0.0,0.0,0.0,0.0,-1.6236,-1.6763,-1.7315,-1.7869,-1.841,-1.8939,-1.8987,-1.8987,0.0,0.0,0.0,0.0,0.0,0.0,0.0,0.0,0.0,-1.8987,0.0,0.0,-1.8987,-1.8987,0.0,0.0,0.0,0.0,0.0,-1.8987,-1.8987,-1.9013,-1.9119,-1.9172,0.0,0.0,-1.9901,-2.0932,0.0,0.0,0.0,0.0,-2.313,-2.3471,-2.4352,-2.4807,-2.5144,-2.5623,-2.6708,-2.7805,-2.7805,-2.8647,-2.9602,-2.9602,-2.9602,-2.9602,-2.9602,-2.9602,-2.9574,-2.9448,-2.9518,-2.956,-2.9434,-2.9518,-2.9602,-2.9602,-2.9602,-2.9968,-3.1092,-3.1401,-3.23,-3.4669,-3.5105,-3.5653,-3.6838,-3.6978,-3.6978,-3.6978,-3.6978,-3.6978,-3.6978,-3.6978,-3.6978,-3.6978,-3.6978,-3.6978,-3.6978,-3.6978,-3.6978,-3.6978,-3.7737,-3.8369,-3.8916,-3.962,-4.0224,-4.0702,-4.0702,-4.0702,-4.0702,-4.0702,-4.0487,-4.0126,-4.0126,-3.9908,-3.9601,-3.9601,-3.9394,-3.9038,-3.9038,-3.8737,-3.8344,0.0,0.0,0.0,0.0,0.0,0.0,0.0,-1.6155,-1.6657,-1.7315,-1.7869,-1.841,-1.8939,-1.8987,-1.8987,0.0,0.0,0.0,0.0,0.0,0.0,0.0,0.0,0.0,0.0,0.0,0.0,-1.8987,-1.8987,0.0,0.0,0.0,0.0,0.0,0.0,-1.8987,-1.904,-1.9526,0.0,0.0,0.0,0.0,0.0,0.0,0.0,0.0,0.0,-2.2894,-2.3488,-2.3457,-2.4201,-2.5204,-2.5391,-2.6536,-2.7805,-2.7805,-2.8647,-2.9602,-2.9602,-2.9602,-2.9602,-2.9602,-2.9602,-2.9462,-2.89,-2.9209,-2.9448,-2.89,-2.9223,-2.9602,-2.9602,-2.9602,-2.9827,-3.0469,-3.1106,-3.2145,-3.402,-3.4801,-3.5653,-3.6838,-3.6978,-3.6978,-3.6978,-3.6978,-3.6978,-3.6978,-3.6978,-3.6978,-3.6978,-3.6978,-3.6978,-3.6978,-3.6978,-3.6978,-3.6978,-3.8213,-3.8846,-3.8916,-4.0055,-4.0645,-4.0702,-4.0702,-4.0702,-4.0702,-4.0702,-4.0702,-4.0659,-4.0659,-4.0616,-4.0573,-4.0573,-4.053,-4.053,-4.053,-4.0213,-3.9821,0.0,0.0,0.0,0.0,0.0,0.0,-1.5726,-1.5882,-1.6192,-1.6847,-1.74,-1.7929,-1.8458,-1.8806,-1.8987,-1.8987,0.0,0.0,0.0,0.0,0.0,0.0,0.0,0.0,0.0,0.0,-1.9474,-1.9474,-1.9172,0.0,0.0,0.0,0.0,0.0,0.0,-1.8987,-1.904,-1.9578,0.0,0.0,0.0,0.0,0.0,0.0,0.0,0.0,0.0,0.0,-2.2983,-2.3212,-2.368,-2.4309,-2.5143,-2.6076,-2.6946,-2.723,-2.813,-2.9055,-2.9055,-2.9321,-2.9602,-2.9602,-2.9336,-2.8998,-2.8745,-2.8651,-2.8669,-2.8691,-2.8947,-2.9259,-2.9546,-2.9602,-2.9813,-3.0385,-3.1064,-3.2005,-3.3445,-3.4534,-3.5513,-3.637,-3.6768,-3.6978,-3.6978,-3.6978,-3.6978,-3.6978,-3.6978,-3.6978,-3.6978,-3.6978,-3.6978,-3.6978,-3.6978,-3.7161,-3.754,-3.8466,-3.9085,-3.9465,-4.0294,-4.0702,-4.0702,-4.0702,-4.0702,-4.0702,-4.0702,-4.0702,-4.0702,-4.0702,-4.0702,-4.0702,-4.0702,-4.053,-4.0257,-4.0257,-3.9996,-3.9557,0.0,0.0,0.0,0.0,0.0,-1.5558,-1.5703,-1.5715,-1.5929,-1.6512,-1.7063,-1.7591,-1.8145,-1.8674,-1.8987,-1.8987,-1.8987,0.0,0.0,0.0,0.0,0.0,0.0,0.0,0.0,0.0,-1.9875,-2.0029,-1.9643,-1.9396,0.0,0.0,-1.9146,-1.8987,0.0,0.0,0.0,0.0,0.0,0.0,0.0,0.0,0.0,0.0,0.0,0.0,0.0,0.0,0.0,0.0,0.0,-2.3727,-2.4604,-2.5423,-2.6158,-2.6805,-2.7695,-2.8482,-2.8452,-2.8731,-2.9069,-2.9069,-2.8745,-2.8366,-2.8183,-2.8033,-2.802,-2.8368,-2.8653,-2.8993,-2.9569,-2.9634,-2.9743,-3.021,-3.097,-3.185,-3.2904,-3.4267,-3.5414,-3.6033,-3.6652,-3.6978,-3.6978,-3.6978,-3.6978,-3.6978,-3.6978,-3.6978,-3.6978,-3.6978,-3.6978,-3.6978,-3.7161,-3.7456,-3.7906,-3.8721,-3.9394,-3.9788,-4.0407,-4.0702,-4.0702,-4.0702,-4.0702,-4.0702,-4.0702,-4.0702,-4.0702,-4.0702,-4.0702,-4.0702,-4.0702,-4.0487,-4.0213,-4.0213,-3.9996,-3.9689,0.0,0.0,0.0,0.0,0.0,0.0,-1.577,-1.5738,-1.5929,-1.6512,-1.7063,-1.7591,-1.8145,-1.8674,-1.8987,-1.8987,-1.8987,0.0,0.0,0.0,0.0,0.0,0.0,0.0,0.0,0.0,-2.0055,-2.0585,-2.0585,-2.0308,-1.9798,-1.9798,-1.95,-1.8987,0.0,0.0,0.0,0.0,0.0,0.0,0.0,0.0,-2.1496,0.0,0.0,0.0,0.0,0.0,0.0,0.0,0.0,0.0,0.0,-2.4496,-2.5602,-2.6677,-2.7485,-2.7965,-2.7849,-2.7819,-2.7833,-2.7833,-2.7819,-2.7651,-2.6975,-2.7312,-2.7805,-2.7819,-2.8298,-2.8933,-2.9664,-2.9682,-2.9634,-2.9792,-3.0753,-3.171,-3.2328,-3.4036,-3.5414,-3.6033,-3.6652,-3.6978,-3.6978,-3.6978,-3.6978,-3.6978,-3.6978,-3.6978,-3.6978,-3.6978,-3.6978,-3.6978,-3.7569,-3.7892,-3.7906,-3.9142,-3.9774,-3.9788,-4.0407,-4.0702,-4.0702,-4.0702,-4.0702,-4.0702,-4.0702,-4.0702,-4.0702,-4.0702,-4.0702,-4.0702,-4.0702,-4.0702,-4.0702,-4.0702,-4.0702,-4.0702,0.0,0.0,0.0,0.0,0.0,0.0,0.0,-1.5715,-1.5797,-1.602,-1.6835,-1.7447,-1.764,-1.8458,-1.8987,-1.8987,-1.8987,0.0,0.0,0.0,0.0,0.0,0.0,0.0,0.0,-2.0156,-2.0434,-2.061,-2.061,-2.051,-2.0359,-2.0359,-2.0055,-1.9552,-1.9927,-2.0029,0.0,0.0,0.0,0.0,0.0,-2.2278,-2.2114,0.0,0.0,0.0,0.0,0.0,0.0,0.0,0.0,0.0,0.0,0.0,0.0,-2.5728,-2.6576,-2.7286,-2.7144,-2.7525,-2.7922,-2.7922,-2.7583,-2.723,-2.7172,-2.6876,-2.6877,-2.7752,-2.8077,-2.8559,-2.9593,-2.9682,-2.9696,-2.9974,-3.0863,-3.1589,-3.1891,-3.3811,-3.5259,-3.5456,-3.6399,-3.6978,-3.6978,-3.6978,-3.6978,-3.6978,-3.6978,-3.6978,-3.6978,-3.7386,-3.7428,-3.6993,-3.7583,-3.8116,-3.8593,-3.9367,-3.9999,-4.0407,-4.0603,-4.0702,-4.0702,-4.0702,-4.0702,-4.0702,-4.0702,-4.0702,-4.0702,-4.0702,-4.0702,-4.0702,-4.0702,-4.0702,-4.0702,-4.0702,-4.0702,-4.0702,0.0,0.0,0.0,0.0,0.0,0.0,0.0,-1.5738,-1.576,-1.5792,-1.6739,-1.7387,-1.7387,-1.8362,-1.8987,-1.8987,-1.9198,0.0,0.0,0.0,0.0,0.0,0.0,0.0,-2.0105,-2.0434,-2.0709,-2.0896,-2.1104,-2.1104,-2.0896,-2.0896,-2.0635,-2.0207,-2.0535,-2.0671,0.0,0.0,0.0,0.0,-2.2347,-2.2347,-2.2394,0.0,0.0,0.0,0.0,0.0,0.0,0.0,0.0,0.0,0.0,0.0,0.0,0.0,-2.5716,-2.6476,-2.651,-2.6933,-2.7357,-2.7357,-2.7045,-2.6774,-2.6884,-2.653,-2.6534,-2.7754,-2.8038,-2.8465,-2.9702,-2.9775,-2.9789,-3.0127,-3.0913,-3.1551,-3.1674,-3.372,-3.5358,-3.5822,-3.6553,-3.6978,-3.6978,-3.6978,-3.6978,-3.6978,-3.6978,-3.6978,-3.6978,-3.7569,-3.7723,-3.7344,-3.8159,-3.8805,-3.9254,-3.9816,-4.0322,-4.0702,-4.0702,-4.0702,-4.0702,-4.0702,-4.0702,-4.0702,-4.0702,-4.0702,0.0,-4.0702,-4.0702,-4.0702,-4.0702,-4.0702,-4.0702,-4.0702,-4.0702,-4.0702,0.0,0.0,0.0,0.0,0.0,0.0,0.0,-1.5792,-1.5792,-1.5792,-1.6739,-1.7387,-1.7387,-1.8362,-1.8987,-1.8987,0.0,0.0,0.0,0.0,0.0,0.0,0.0,0.0,-2.0585,-2.061,-2.0858,-2.1399,-2.1949,-2.1949,-2.1471,-2.1471,-2.1264,-2.087,-2.0894,-2.1275,-2.1864,-2.2278,-2.2417,-2.2394,-2.2278,-2.2301,0.0,0.0,0.0,0.0,0.0,0.0,0.0,0.0,0.0,0.0,0.0,0.0,0.0,0.0,0.0,0.0,0.0,-2.6218,-2.6299,-2.6299,-2.6299,-2.6313,-2.634,-2.6313,0.0,-2.7783,-2.8111,-2.8597,-2.9852,-2.9929,-2.9915,-3.0309,-3.1006,-3.158,-3.1834,-3.3818,-3.5695,-3.6838,-3.6978,-3.6978,-3.6978,-3.6978,-3.6978,-3.6978,-3.6978,-3.6978,-3.6978,-3.7569,-3.792,-3.7962,-3.9142,-3.9788,-3.9788,-4.0393,-4.0702,-4.0702,-4.0702,-4.0702,-4.0702,-4.0702,-4.0702,-4.0702,-4.0702,-4.0702,-4.0702,-4.0702,-4.0702,-4.0702,-4.0702,-4.0702,-4.0702,-4.0702,-4.0702,-4.0702,0.0,0.0,0.0,0.0,0.0,0.0,0.0,0.0,0.0,0.0,-1.6739,-1.7387,-1.7387,-1.8362,-1.8987,0.0,0.0,0.0,0.0,0.0,0.0,0.0,0.0,0.0,-2.0585,-2.061,-2.0858,-2.1399,-2.1949,-2.2184,-2.2161,-2.2161,-2.1959,-2.1565,-2.1992,-2.2263,-2.2417,-2.2606,-2.2583,-2.2417,-2.2486,-2.2463,0.0,0.0,0.0,0.0,-2.2555,-2.2615,0.0,0.0,0.0,0.0,0.0,0.0,0.0,0.0,-2.5149,-2.5861,-2.6299,0.0,-2.6431,-2.6431,-2.6431,-2.6498,0.0,-2.6394,-2.6534,-2.7869,-2.8082,-2.848,-2.9852,-2.9929,-3.0119,-3.1052,-3.1386,-3.1909,-3.3132,-3.4808,-3.6174,-3.6894,-3.6978,-3.6978,-3.6978,-3.6978,-3.6978,-3.6978,-3.6978,-3.6978,-3.6978,-3.7569,-3.8131,-3.8663,-3.9381,-3.9788,-3.9788,-4.0393,-4.0702,-4.0702,-4.0702,-4.0702,-4.0702,-4.0702,-4.0702,-4.0702,-4.0702,-4.0702,-4.0702,-4.0702,-4.0702,-4.0702,-4.0702,-4.0702,-4.0702,-4.0702,-4.0702,-4.0702,0.0,0.0,0.0,0.0,0.0,0.0,0.0,0.0,0.0,0.0,0.0,-1.7772,-1.7772,-1.8506,0.0,0.0,0.0,0.0,0.0,0.0,0.0,0.0,0.0,-2.066,-2.0957,-2.097,-2.1118,-2.1399,-2.1996,-2.2324,-2.2394,-2.2463,-2.2408,-2.2268,-2.2592,-2.2684,-2.2615,-2.2735,-2.2621,-2.2324,-2.244,0.0,0.0,0.0,0.0,0.0,-2.2555,-2.2638,0.0,-2.2857,-2.2888,-2.2888,0.0,0.0,0.0,0.0,-2.5046,-2.5575,-2.6425,-2.6645,-2.6645,-2.6645,-2.6645,-2.6645,-2.6645,-2.6459,-2.6641,-2.794,-2.8226,-2.8626,-2.9883,-3.0005,-3.0235,-3.1113,-3.1389,-3.2185,-3.4172,-3.5399,-3.6328,-3.6908,-3.6978,-3.6978,-3.6978,-3.6978,-3.6978,-3.6978,-3.6978,-3.6978,-3.6978,-3.7569,-3.8201,-3.8888,-3.9507,-3.9915,-4.0196,-4.0533,-4.0702,-4.0702,-4.0702,-4.0702,-4.0702,-4.0702,-4.0702,-4.0702,-4.0702,-4.0702,-4.0702,-4.0702,-4.0702,-4.0702,-4.0702,-4.0702,-4.073,-4.1011,-4.1109,-4.1165,0.0,0.0,0.0,0.0,0.0,0.0,0.0,0.0,0.0,0.0,0.0,0.0,0.0,0.0,0.0,0.0,0.0,0.0,0.0,0.0,0.0,0.0,-2.164,-2.1447,-2.152,-2.1447,-2.1447,-2.1544,-2.2114,-2.2417,-2.2477,-2.2569,-2.2698,-2.2818,-2.288,-2.2797,-2.2638,-2.2735,-2.2575,-2.2254,-2.237,0.0,0.0,0.0,0.0,0.0,0.0,0.0,0.0,-2.288,-2.2888,-2.2888,-2.2888,0.0,0.0,0.0,0.0,0.0,-2.6486,-2.6779,-2.6753,-2.6779,-2.6779,-2.6712,-2.6537,-2.6484,-2.6804,-2.7968,-2.8354,-2.8771,-2.9913,-3.008,-3.0292,-3.1037,-3.1674,-3.2812,-3.4894,-3.5808,-3.6441,-3.6922,-3.6978,-3.6978,-3.6978,-3.6978,-3.6978,-3.6978,-3.6978,-3.6978,-3.6978,-3.747,-3.8102,-3.8888,-3.9422,-3.9985,-4.0688,-4.0702,-4.0702,-4.0702,-4.0702,-4.0702,-4.0702,-4.0702,-4.0702,-4.0702,-4.0702,-4.0702,-4.0702,-4.0702,-4.0702,-4.0702,-4.0702,-4.0758,-4.0898,-4.1418,-4.1671,-4.1854,0.0,0.0,0.0,0.0,0.0,0.0,0.0,0.0,0.0,0.0,0.0,0.0,0.0,0.0,0.0,0.0,0.0,0.0,0.0,0.0,0.0,-2.152,-2.1447,-2.1616,-2.2067,-2.164,-2.1688,-2.2254,-2.2347,-2.2523,-2.2749,-2.2772,-2.2803,-2.288,-2.2902,-2.2834,-2.2772,-2.2795,-2.2644,-2.237,-2.2509,0.0,0.0,0.0,0.0,0.0,0.0,0.0,0.0,-2.288,-2.2888,-2.2888,-2.2888,0.0,0.0,0.0,0.0,0.0,-2.6602,-2.6686,-2.6578,-2.6753,-2.6686,-2.6537,-2.651,-2.6418,-2.6697,-2.794,-2.8226,-2.8626,-2.9883,-2.996,-3.0299,-3.164,-3.3504,-3.4913,-3.517,-3.6174,-3.688,-3.6978,-3.6978,-3.6978,-3.6978,-3.6978,-3.6978,-3.6978,-3.6978,-3.6978,-3.6978,-3.7077,-3.7667,-3.8874,-3.9,-3.9591,-4.0688,-4.0702,-4.0702,-4.0702,-4.0702,-4.0702,-4.0702,-4.0702,-4.0702,-4.0702,-4.0702,-4.0702,-4.0702,-4.0702,-4.0702,-4.0702,-4.0702,-4.1011,-4.1474,-4.1587,-4.1966,-4.2514,0.0,0.0,0.0,0.0,0.0,0.0,0.0,0.0,0.0,0.0,0.0,0.0,0.0,0.0,0.0,0.0,0.0,0.0,0.0,0.0,-2.1817,-2.1817,-2.1902,-2.202,-2.2208,-2.2044,-2.2091,-2.2394,-2.256,-2.2666,-2.2809,-2.2841,-2.2857,-2.2888,-2.2888,-2.2857,-2.2809,-2.2826,-2.2721,-2.2509,0.0,0.0,0.0,0.0,0.0,0.0,0.0,0.0,0.0,0.0,-2.2888,-2.2888,-2.2888,0.0,0.0,0.0,0.0,0.0,-2.6631,-2.6645,-2.651,-2.6604,-2.6513,-2.6465,-2.6713,-2.6716,-2.7058,-2.8324,-2.858,-2.8864,-2.9759,-3.0168,-3.0857,-3.2438,-3.415,-3.5376,-3.5639,-3.6455,-3.6978,-3.6978,-3.6978,-3.6978,-3.6978,-3.6978,-3.6978,-3.6978,-3.6978,-3.6978,-3.6978,-3.6978,-3.7594,-3.8874,-3.8902,-3.9493,-4.0688,-4.0702,-4.0702,-4.0702,-4.0702,-4.0702,-4.0702,-4.0702,-4.0702,-4.0702,-4.0702,-4.0702,-4.0702,-4.0702,-4.0702,-4.0702,-4.0702,-4.1081,-4.1699,-4.2374,-4.3034,-4.361,0.0,0.0,0.0,0.0,0.0,0.0,0.0,0.0,0.0,0.0,0.0,0.0,0.0,0.0,0.0,0.0,0.0,0.0,0.0,-2.2161,-2.2184,-2.2067,-2.2301,-2.237,-2.2254,-2.237,-2.2477,-2.25,-2.2704,-2.2795,-2.2818,-2.288,-2.2888,-2.2888,-2.2888,-2.2857,-2.2841,-2.2872,-2.2789,-2.2638,0.0,0.0,0.0,0.0,0.0,0.0,0.0,0.0,0.0,0.0,0.0,0.0,0.0,0.0,0.0,-2.4839,-2.5517,-2.6152,-2.6675,-2.6618,-2.6431,-2.6431,-2.6453,-2.6574,-2.6932,-2.7131,-2.7541,-2.8661,-2.8887,-2.9128,-2.9893,-3.0655,-3.165,-3.3073,-3.4351,-3.54,-3.6019,-3.6638,-3.6978,-3.6978,-3.6978,-3.6978,-3.6978,-3.6978,-3.6978,-3.6978,-3.6978,-3.6978,-3.6978,-3.6978,-3.7594,-3.8874,-3.8902,-3.9493,-4.0688,-4.0702,-4.0702,-4.0702,-4.0702,-4.0702,-4.0702,-4.0702,-4.0702,-4.0702,-4.0702,-4.0702,-4.0702,-4.0702,-4.0702,-4.0702,-4.0702,-4.1165,-4.198,-4.309,-4.3877,-4.4411,0.0,0.0,0.0,0.0,0.0,0.0,0.0,0.0,0.0,0.0,0.0,0.0,0.0,0.0,0.0,0.0,0.0,0.0,0.0,-2.2044,-2.2161,-2.1664,-2.2254,-2.2509,-2.2394,-2.2509,-2.2652,-2.2772,-2.2787,-2.2841,-2.2888,-2.2888,-2.2888,-2.2888,-2.2888,-2.2902,-2.2902,-2.2841,-2.2795,-2.2772,-2.2652,0.0,0.0,0.0,0.0,0.0,0.0,0.0,0.0,0.0,0.0,0.0,0.0,0.0,-2.4868,-2.5531,-2.6184,-2.6747,-2.6806,-2.6553,-2.6299,-2.6299,-2.6632,-2.6961,-2.7003,-2.7485,-2.8122,-2.876,-2.8916,-2.9268,-3.0488,-3.1589,-3.2497,-3.3178,-3.4351,-3.54,-3.6019,-3.6638,-3.6978,-3.6978,-3.6978,-3.6978,-3.6978,-3.6978,-3.6978,-3.6978,-3.6978,-3.6978,-3.6978,-3.6978,-3.7594,-3.8874,-3.8902,-3.9493,-4.0688,-4.0702,-4.0702,-4.0702,-4.0702,-4.0702,-4.0702,-4.0702,-4.0702,-4.0702,-4.0702,-4.0702,-4.0702,-4.0702,-4.0702,-4.0702,-4.0702,-4.1446,-4.2584,-4.3259,-4.3877,-4.4411,0.0,0.0,0.0,0.0,0.0,0.0,0.0,0.0,0.0,0.0,0.0,0.0,0.0,0.0,0.0,0.0,0.0,0.0,0.0,-2.2208,-2.2301,-2.2114,-2.2514,-2.2712,-2.2644,-2.2712,-2.2749,-2.2809,-2.2826,-2.288,-2.2888,-2.2888,-2.2888,-2.2888,-2.2888,-2.2888,-2.2888,-2.288,-2.2872,-2.2872,-2.2812,-2.2797,0.0,0.0,0.0,0.0,0.0,0.0,0.0,0.0,-2.3186,-2.3572,-2.3818,-2.4602,-2.5473,-2.5745,-2.6257,-2.6806,-2.6806,-2.6568,-2.6426,-2.6935,-2.7285,-2.7497,-2.7497,-2.8064,-2.8702,-2.9233,-2.9623,-3.027,-3.157,-3.2432,-3.3297,-3.4331,-3.5203,-3.5977,-3.6581,-3.6838,-3.6978,-3.6978,-3.6978,-3.6978,-3.6978,-3.6978,-3.6978,-3.6978,-3.6978,-3.6978,-3.6978,-3.6978,-3.7594,-3.8874,-3.8902,-3.9493,-4.0688,-4.0702,-4.0702,-4.0702,-4.0702,-4.0702,-4.0702,-4.0702,-4.0702,-4.0702,-4.0702,-4.0702,-4.0702,-4.0702,-4.0702,-4.0744,-4.1109,-4.1812,-4.2654,-4.3273,-4.3877,-4.4411,0.0,0.0,0.0,0.0,0.0,0.0,0.0,0.0,0.0,0.0,0.0,0.0,0.0,0.0,0.0,0.0,0.0,0.0,-2.2254,-2.2431,-2.2537,-2.2537,-2.2689,-2.2795,-2.2841,-2.2795,-2.2795,-2.2841,-2.288,-2.2888,-2.2888,-2.2888,-2.2888,-2.2888,-2.2888,-2.2888,-2.2888,-2.2888,-2.2888,-2.2888,-2.2888,-2.2888,0.0,0.0,0.0,0.0,0.0,0.0,0.0,0.0,-2.3673,-2.4263,-2.4452,-2.5106,-2.5847,-2.6039,-2.639,-2.6712,-2.6712,-2.6671,-2.6726,-2.7224,-2.7798,-2.8261,-2.834,-2.8907,-2.9487,-2.9813,-3.0512,-3.141,-3.2497,-3.3164,-3.4014,-3.5287,-3.5836,-3.6314,-3.6908,-3.6978,-3.6978,-3.6978,-3.6978,-3.6978,-3.6978,-3.6978,-3.6978,-3.6978,-3.6978,-3.6978,-3.6978,-3.6978,-3.747,-3.8564,-3.8804,-3.9408,-4.0407,-4.0603,-4.0702,-4.0702,-4.0702,-4.0702,-4.0702,-4.0702,-4.0702,-4.0702,-4.0702,-4.0702,-4.0702,-4.0702,-4.0702,-4.0744,-4.1151,-4.184,-4.2626,-4.3048,-4.3722,-4.4411,0.0,0.0,0.0,0.0,0.0,0.0,0.0,0.0,0.0,0.0,0.0,0.0,0.0,0.0,0.0,0.0,0.0,0.0,-2.2394,-2.2644,-2.2809,-2.2809,-2.2809,-2.2841,-2.2888,-2.2826,-2.2826,-2.2888,-2.2888,-2.2888,-2.2888,-2.2888,-2.2888,-2.2888,-2.2888,-2.2888,-2.2888,-2.2888,-2.2888,-2.2888,-2.2888,-2.2888,-2.2888,0.0,0.0,0.0,0.0,0.0,0.0,0.0,-2.4341,-2.4994,-2.5614,-2.5803,-2.5948,-2.6617,-2.6645,-2.651,-2.651,-2.6877,-2.7241,-2.7074,-2.8125,-2.9264,-2.9538,-3.0048,-3.0498,-3.0512,-3.1541,-3.2595,-3.3178,-3.3796,-3.461,-3.5906,-3.6103,-3.6328,-3.6908,-3.6978,-3.6978,-3.6978,-3.6978,-3.6978,-3.6978,-3.6978,-3.6978,-3.6978,-3.6978,-3.6978,-3.6978,-3.6978,-3.7274,-3.7878,-3.8538,-3.9197,-3.9774,-4.0393,-4.0702,-4.0702,-4.0702,-4.0702,-4.0702,-4.0702,-4.0702,-4.0702,-4.0702,-4.0702,-4.0702,-4.0702,-4.0702,-4.0702,-4.0702,-4.1474,-4.2584,-4.2584,-4.3357,-4.4411,0.0,0.0,0.0,0.0,0.0,0.0,0.0,0.0,0.0,0.0,0.0,0.0,0.0,0.0,0.0,0.0,0.0,0.0,-2.2532,-2.2615,-2.2652,-2.2652,-2.2749,-2.2795,-2.2841,-2.2849,-2.288,-2.2888,-2.2888,-2.2888,-2.2888,-2.2888,-2.2888,-2.2888,-2.2888,-2.2888,-2.2888,-2.2888,-2.2888,-2.2888,-2.2888,-2.2888,-2.2946,0.0,0.0,0.0,0.0,0.0,0.0,0.0,0.0,0.0,-2.5745,-2.6137,-2.6559,-2.6747,-2.6753,-2.6712,-2.6712,-2.6987,-2.7396,-2.7868,-2.8408,-2.9122,-3.0213,-3.0581,-3.0944,-3.1668,-3.2145,-3.2721,-3.374,-3.4464,-3.5175,-3.5977,-3.6469,-3.6782,-3.695,-3.6978,-3.6978,-3.6978,-3.6978,-3.6978,-3.6978,-3.6978,-3.6978,-3.6978,-3.6978,-3.6978,-3.6978,-3.6978,-3.7274,-3.7878,-3.8538,-3.9197,-3.9774,-4.0393,-4.0702,-4.0702,-4.0702,-4.0702,-4.0702,-4.0702,-4.0702,-4.0702,-4.0702,-4.0702,-4.0702,-4.0702,-4.0702,-4.0702,-4.0702,-4.1474,-4.2584,-4.2584,-4.3357,-4.4411,0.0,0.0,0.0,0.0,0.0,0.0,0.0,0.0,0.0,0.0,-2.1996,-2.2231,0.0,0.0,0.0,0.0,0.0,0.0,-2.2509,-2.2615,-2.2675,-2.2675,-2.2712,-2.2712,-2.2644,-2.2803,-2.2872,-2.2872,-2.288,-2.2888,-2.2888,-2.2888,-2.2888,-2.2888,-2.2888,-2.2888,-2.2888,-2.2888,-2.3055,-2.331,-2.3538,-2.3639,-2.3731,0.0,0.0,0.0,0.0,0.0,0.0,0.0,0.0,0.0,-2.621,-2.646,-2.6779,-2.6712,-2.6633,-2.6638,-2.6843,-2.7224,-2.774,-2.8368,-2.8817,-2.9487,-3.0789,-3.1255,-3.1688,-3.2553,-3.296,-3.3438,-3.4421,-3.5096,-3.5766,-3.637,-3.6778,-3.6978,-3.6978,-3.6978,-3.6978,-3.6978,-3.6978,-3.6978,-3.6978,-3.6978,-3.6978,-3.6978,-3.6978,-3.6978,-3.6978,-3.6978,-3.7161,-3.7526,-3.8159,-3.8832,-3.9465,-4.0027,-4.0449,-4.0702,-4.0702,-4.0702,-4.0702,-4.0702,-4.0702,-4.0702,-4.0702,-4.0702,-4.0702,-4.0702,-4.0702,-4.0702,-4.0702,-4.1474,-4.2584,-4.2584,-4.3357,-4.4411,0.0,0.0,0.0,0.0,0.0,0.0,0.0,0.0,0.0,0.0,-2.2231,-2.2278,0.0,0.0,0.0,0.0,0.0,0.0,0.0,-2.2629,-2.2749,-2.2749,-2.2652,-2.2532,-2.2417,-2.2689,-2.2809,-2.2809,-2.2872,-2.2888,-2.2888,-2.2888,-2.2888,-2.2888,-2.2946,-2.2975,-2.2989,-2.307,-2.3478,-2.4081,-2.4528,-2.4769,-2.4932,-2.5417,0.0,0.0,0.0,0.0,0.0,0.0,0.0,0.0,-2.6806,-2.6806,-2.6779,-2.6578,-2.6461,-2.6486,-2.6945,-2.7556,-2.8193,-2.8609,-2.9346,-3.0241,-3.1251,-3.2005,-3.2651,-3.3178,-3.3768,-3.4385,-3.5077,-3.5695,-3.6314,-3.688,-3.6978,-3.6978,-3.6978,-3.6978,-3.6978,-3.6978,-3.6978,-3.6978,-3.6978,-3.6978,-3.6978,-3.6978,-3.6978,-3.6978,-3.6978,-3.6978,-3.6978,-3.6978,-3.7583,-3.8215,-3.8902,-3.9521,-4.0083,-4.0702,-4.0702,-4.0702,-4.0702,-4.0702,-4.0702,-4.0702,-4.0702,-4.0702,-4.0702,-4.0702,-4.0702,-4.0702,-4.0702,-4.1474,-4.2584,-4.2584,-4.3357,-4.4411,0.0,0.0,0.0,0.0,0.0,0.0,0.0,0.0,0.0,0.0,0.0,0.0,0.0,0.0,0.0,0.0,0.0,0.0,0.0,-2.2523,-2.2477,-2.2477,-2.2569,-2.2592,-2.2555,-2.2766,-2.2849,-2.2809,-2.2872,-2.2888,-2.2888,-2.2888,-2.2888,-2.2917,-2.3432,-2.3688,-2.3717,-2.4254,-2.4754,-2.522,-2.4905,-2.5026,-2.545,-2.5668,-2.57,0.0,0.0,0.0,0.0,0.0,0.0,0.0,-2.6806,-2.6806,-2.6779,-2.6738,-2.6994,-2.7276,-2.7378,-2.8054,-2.873,-2.8842,-2.9992,-3.1213,-3.1429,-3.2328,-3.3122,-3.3262,-3.3768,-3.4385,-3.5077,-3.5695,-3.6314,-3.688,-3.6978,-3.6978,-3.6978,-3.6978,-3.6978,-3.6978,-3.6978,-3.6978,-3.6978,-3.6978,-3.6978,-3.6978,-3.6978,-3.6978,-3.6978,-3.6978,-3.6978,-3.6978,-3.7583,-3.8215,-3.8902,-3.9521,-4.0083,-4.0702,-4.0702,-4.0702,-4.0702,-4.0702,-4.0702,-4.0702,-4.0702,-4.0702,-4.0702,-4.0702,-4.0702,-4.0702,-4.0702,-4.1474,-4.2584,-4.2584,-4.3357,-4.4411,0.0,0.0,0.0,0.0,0.0,0.0,0.0,0.0,0.0,0.0,0.0,0.0,0.0,0.0,0.0,0.0,0.0,0.0,0.0,0.0,-2.2486,-2.2486,-2.2555,-2.2615,-2.2615,-2.2766,-2.2841,-2.2809,-2.2872,-2.2888,-2.2902,-2.3229,-2.3374,-2.3403,-2.4041,-2.4469,-2.472,-2.4854,-2.5364,-2.6057,-2.5769,-2.5879,-2.6204,-2.6503,-2.6458,-2.6326,-2.6663,0.0,0.0,0.0,0.0,0.0,0.0,0.0,-2.7202,-2.7149,-2.7543,-2.8022,-2.814,-2.8537,-2.8957,-2.9177,-3.0383,-3.1485,-3.1485,-3.244,-3.329,-3.329,-3.4042,-3.4773,-3.5133,-3.5934,-3.6652,-3.6936,-3.6978,-3.6978,-3.6978,-3.6978,-3.6978,-3.6978,-3.6978,-3.6978,-3.6978,-3.6978,-3.6978,-3.6978,-3.6978,-3.6978,-3.6978,-3.6978,-3.6978,-3.6978,-3.7302,-3.792,-3.8902,-3.9226,-3.9802,-4.0702,-4.0702,-4.0702,-4.0702,-4.0702,-4.0702,-4.0702,-4.0702,-4.0702,-4.0702,-4.0702,-4.0702,-4.0702,-4.0702,-4.1474,-4.2584,-4.2584,-4.3357,-4.4411,0.0,0.0,0.0,0.0,0.0,0.0,0.0,0.0,0.0,0.0,0.0,0.0,0.0,0.0,0.0,0.0,0.0,0.0,0.0,0.0,0.0,-2.2555,-2.2615,-2.2638,-2.2638,-2.2758,-2.2875,-2.2976,-2.3053,-2.3142,-2.3235,-2.3688,-2.3949,-2.4094,-2.4801,-2.532,-2.5631,-2.5419,-2.5943,-2.6877,-2.6682,-2.6791,-2.7089,-2.7291,-2.7126,-2.6806,-2.6806,-2.6806,-2.6806,-2.6806,0.0,0.0,0.0,0.0,-2.7842,-2.7745,-2.8165,-2.8713,-2.8938,-2.9032,-2.9141,-2.9507,-3.0558,-3.1485,-3.1485,-3.244,-3.329,-3.329,-3.4295,-3.5189,-3.5189,-3.6202,-3.6978,-3.6978,-3.6978,-3.6978,-3.6978,-3.6978,-3.6978,-3.6978,-3.6978,-3.6978,-3.6978,-3.6978,-3.6978,-3.6978,-3.6978,-3.6978,-3.6978,-3.6978,-3.6978,-3.6978,-3.6978,-3.758,-3.8733,-3.8846,-3.9465,-4.0547,-4.0645,-4.0702,-4.0702,-4.0702,-4.0702,-4.0702,-4.0702,-4.0702,-4.0702,-4.0702,-4.0702,-4.0702,-4.0702,-4.1474,-4.2584,-4.2584,-4.3357,-4.4364,0.0,0.0,0.0,0.0,0.0,0.0,0.0,0.0,0.0,0.0,-2.2772,-2.2795,0.0,0.0,0.0,0.0,0.0,0.0,-2.2394,0.0,0.0,-2.2417,-2.2644,-2.2772,-2.2772,-2.2849,-2.3163,-2.3751,-2.376,-2.4036,-2.4549,-2.4109,-2.4196,-2.4801,-2.5873,-2.613,-2.5827,-2.6747,-2.7504,-2.7996,-2.7121,-2.7293,-2.8012,-2.7203,-2.6858,-2.6806,-2.6806,-2.6806,-2.6806,-2.6806,-2.7157,0.0,0.0,0.0,-2.855,-2.855,-2.8886,-2.9275,-2.9318,-2.9495,-2.9662,-2.9605,-3.0558,-3.1485,-3.1485,-3.244,-3.329,-3.329,-3.4295,-3.5189,-3.5189,-3.6202,-3.6978,-3.6978,-3.6978,-3.6978,-3.6978,-3.6978,-3.6978,-3.6978,-3.6978,-3.6978,-3.6978,-3.6978,-3.6978,-3.6978,-3.6978,-3.6978,-3.6978,-3.6978,-3.6978,-3.6978,-3.6978,-3.7316,-3.8018,-3.8635,-3.9254,-3.9915,-4.0449,-4.0702,-4.0702,-4.0702,-4.0702,-4.0702,-4.0702,-4.0702,-4.0702,-4.0702,-4.0702,-4.0702,-4.0702,-4.1474,-4.2584,-4.2584,-4.3357,-4.427,0.0,0.0,0.0,0.0,0.0,0.0,0.0,0.0,0.0,0.0,0.0,-2.2849,0.0,0.0,0.0,-2.2689,-2.2569,-2.2546,-2.2606,-2.2546,-2.2546,-2.2606,-2.2749,-2.2818,-2.2849,-2.325,-2.3601,-2.3891,-2.4268,-2.4762,-2.5357,-2.5081,-2.5135,-2.544,-2.6318,-2.6724,-2.6775,-2.6993,-2.7418,-2.7775,-2.7089,-2.7063,-2.7437,-2.7343,-2.7316,-2.736,-2.775,-2.7866,-2.7866,-2.7866,-2.8028,-2.826,-2.826,0.0,0.0,0.0,-2.9624,-3.0042,-2.9833,-2.9807,-2.9761,-2.9634,-3.0558,-3.1485,-3.1485,-3.244,-3.329,-3.329,-3.4028,-3.4745,-3.5119,-3.6202,-3.6978,-3.6978,-3.6978,-3.6978,-3.6978,-3.6978,-3.6978,-3.6978,-3.6978,-3.6978,-3.6978,-3.6978,-3.6978,-3.6978,-3.6978,-3.6978,-3.6978,-3.6978,-3.6978,-3.6978,-3.6978,-3.7274,-3.7892,-3.8538,-3.938,-4.0308,-4.0561,-4.0702,-4.0702,-4.0702,-4.0702,-4.0702,-4.0702,-4.0702,-4.0702,-4.0702,-4.0702,-4.0702,-4.0702,-4.1474,-4.2584,-4.2584,-4.3357,-4.4317,0.0,0.0,0.0,0.0,0.0,0.0,0.0,0.0,0.0,0.0,0.0,0.0,0.0,0.0,0.0,0.0,-2.2661,-2.2675,-2.2735,-2.2689,-2.277,-2.3025,-2.3048,-2.3167,-2.3366,-2.3853,-2.421,-2.437,-2.4863,-2.5469,-2.6039,-2.6039,-2.6039,-2.6079,-2.6703,-2.71,-2.7316,-2.7089,-2.7281,-2.7718,-2.7059,-2.7074,-2.7486,-2.7634,-2.7797,-2.8014,-2.8507,-2.8709,-2.8709,-2.8709,-2.8811,-2.8927,-2.8927,-2.9348,0.0,0.0,0.0,-3.0522,-3.0219,-3.0052,-2.9884,-2.9713,-3.0608,-3.1551,-3.1518,-3.244,-3.329,-3.329,-3.3768,-3.4385,-3.5077,-3.6061,-3.6796,-3.6964,-3.6978,-3.6978,-3.6978,-3.6978,-3.6978,-3.6978,-3.6978,-3.6978,-3.6978,-3.6978,-3.6978,-3.6978,-3.6978,-3.6978,-3.6978,-3.6978,-3.6978,-3.6978,-3.6978,-3.7203,-3.7667,-3.8508,-3.9535,-4.0702,-4.0702,-4.0702,-4.0702,-4.0702,-4.0702,-4.0702,-4.0702,-4.0702,-4.0702,-4.0702,-4.0702,-4.0702,-4.0702,-4.1474,-4.2584,-4.2584,-4.3357,-4.4364,0.0,0.0,0.0,0.0,0.0,0.0,0.0,0.0,0.0,0.0,0.0,0.0,-2.2902,-2.2888,-2.2865,-2.2865,-2.2826,-2.2735,-2.2615,-2.2712,-2.3054,-2.363,-2.3762,0.0,-2.4694,-2.4752,-2.5056,-2.5716,-2.5745,-2.6083,-2.6762,-2.6762,-2.6762,-2.6762,-2.7251,-2.7214,-2.6858,-2.7291,-2.7838,-2.8349,-2.7249,-2.7783,-2.9149,-2.8117,-2.81,-2.8665,-2.8694,-2.8709,-2.8709,-2.8709,-2.9073,-2.9537,-2.9537,-3.0016,-3.0554,0.0,0.0,0.0,-3.0357,-3.0282,-3.019,-2.987,-3.074,-3.1655,-3.1518,-3.244,-3.329,-3.329,-3.3768,-3.4385,-3.5077,-3.5723,-3.6342,-3.6894,-3.6978,-3.6978,-3.6978,-3.6978,-3.6978,-3.6978,-3.6978,-3.6978,-3.6978,-3.6978,-3.6978,-3.6978,-3.6978,-3.6978,-3.6978,-3.6978,-3.6978,-3.6978,-3.6978,-3.7007,-3.7035,-3.8297,-3.9535,-4.0702,-4.0702,-4.0702,-4.0702,-4.0702,-4.0702,-4.0702,-4.0702,-4.0702,-4.0702,-4.0702,-4.0702,-4.0702,-4.0702,-4.1474,-4.2584,-4.2584,-4.3357,-4.4256,0.0,0.0,0.0,0.0,0.0,0.0,0.0,0.0,0.0,0.0,0.0,0.0,0.0,-2.2872,-2.2841,-2.2841,-2.3178,-2.3567,-2.398,-2.41,-2.4226,-2.439,-2.4438,-2.4592,-2.4863,-2.5241,-2.556,-2.5803,-2.6239,-2.6547,-2.6806,-2.6806,-2.6806,-2.6806,-2.6974,-2.7167,-2.7416,-2.7966,-2.8363,-2.8634,-2.8616,-2.8739,-2.8946,-2.8926,-2.9058,-2.9334,-2.9784,-2.9929,-2.9929,-2.9929,-3.0075,-3.0234,-3.0234,-3.0423,-3.0598,-3.0598,-3.0598,-3.0568,-3.0357,-3.0282,-3.0266,-3.0021,-3.0551,-3.1225,-3.157,-3.2185,-3.2848,-3.3206,-3.3459,-3.3796,-3.445,-3.5391,-3.6314,-3.688,-3.6978,-3.6978,-3.6978,-3.6978,-3.6978,-3.6978,-3.6978,-3.6978,-3.6978,-3.6978,-3.6978,-3.6978,-3.6978,-3.6978,-3.6978,-3.6978,-3.6978,-3.6978,-3.6978,-3.7175,-3.7569,-3.848,-3.9324,-4.0112,-4.0505,-4.0702,-4.0702,-4.0702,-4.0702,-4.0702,-4.0702,-4.0702,-4.0702,-4.0702,-4.0702,-4.0702,-4.0702,-4.1474,-4.2584,-4.2584,-4.3357,-4.4256,0.0,0.0,0.0,0.0,0.0,0.0,0.0,0.0,-2.2888,-2.2888,0.0,0.0,0.0,0.0,-2.3253,-2.3447,-2.3836,-2.4288,-2.4795,-2.4839,-2.495,-2.5114,-2.5129,-2.527,-2.5517,-2.5948,-2.6152,-2.6152,-2.6588,-2.6806,-2.6806,-2.7012,-2.7099,-2.7113,-2.7358,-2.7654,-2.8032,-2.8453,-2.8884,-2.9309,-2.9296,-2.9307,-2.9363,-2.9523,-2.9726,-3.0001,-3.0452,-3.0598,-3.0598,-3.0598,-3.0598,-3.0598,-3.0598,-3.0598,-3.0598,-3.0598,-3.0598,-3.0568,-3.0447,-3.0417,-3.0357,-3.0219,-3.0583,-3.1116,-3.1598,-3.2102,-3.2635,-3.3185,-3.329,-3.3473,-3.409,-3.5082,-3.6005,-3.661,-3.6852,-3.6978,-3.6978,-3.6978,-3.6978,-3.6978,-3.6978,-3.6978,-3.6978,-3.6978,-3.6978,-3.6978,-3.6978,-3.6978,-3.6978,-3.6978,-3.6978,-3.6978,-3.6978,-3.7274,-3.7892,-3.8538,-3.9211,-3.9788,-4.0407,-4.0702,-4.0702,-4.0702,-4.0702,-4.0702,-4.0702,-4.0702,-4.0702,-4.0702,-4.0702,-4.0702,-4.0702,-4.1474,-4.2584,-4.2584,-4.316,-4.3757,0.0,0.0,0.0,0.0,0.0,0.0,0.0,0.0,-2.2902,-2.2917,0.0,0.0,0.0,0.0,0.0,-2.4781,-2.4839,-2.4868,-2.4936,-2.4897,-2.5143,-2.5803,-2.5847,-2.6137,-2.6806,-2.6806,-2.6806,-2.6806,-2.6835,-2.6849,-2.6849,-2.7461,-2.7724,-2.7753,-2.8419,-2.8691,-2.8659,-2.8724,-2.9425,-3.0404,-2.9239,-2.9493,-3.0539,-2.9885,-3.0031,-3.0598,-3.0598,-3.0598,-3.0598,-3.0598,-3.0598,-3.0598,-3.0598,-3.0598,-3.0598,-3.0598,-3.0598,-3.0598,0.0,0.0,0.0,-3.0371,-3.083,-3.1384,-3.1691,-3.2203,-3.2744,-3.322,-3.3326,-3.3508,-3.4062,-3.4716,-3.5358,-3.5991,-3.661,-3.6978,-3.6978,-3.6978,-3.6978,-3.6978,-3.6978,-3.6978,-3.6978,-3.6978,-3.6978,-3.6978,-3.6978,-3.6978,-3.6978,-3.6978,-3.6978,-3.6978,-3.6978,-3.7274,-3.7864,-3.8579,-3.9197,-3.976,-4.0393,-4.0702,-4.0702,-4.0702,-4.0702,-4.0702,-4.0702,-4.0688,-4.0659,-4.0702,-4.0702,-4.0702,-4.0702,-4.146,-4.2525,-4.2525,-4.2657,-4.2744,0.0,0.0,0.0,0.0,0.0,-2.2888,-2.2888,-2.2888,-2.3084,0.0,0.0,0.0,-2.4244,-2.4447,-2.4795,-2.5473,-2.5517,-2.5734,-2.6253,-2.6257,-2.6329,-2.653,-2.653,-2.6617,-2.6806,-2.6806,-2.6806,-2.6806,-2.7244,-2.7434,-2.7476,-2.8115,-2.8419,-2.8448,-2.9073,-2.9574,-2.9978,-2.998,-3.023,-3.0588,-3.0672,-3.069,-3.0583,-3.0379,-3.0452,-3.0598,-3.0598,-3.0598,-3.0598,-3.0598,-3.0598,-3.0598,-3.0598,-3.0598,-3.0598,-3.0598,-3.0598,-3.0598,-3.0598,0.0,0.0,0.0,0.0,0.0,-3.2542,-3.2782,-3.2962,-3.3408,-3.3536,-3.3522,-3.355,-3.4048,-3.4688,-3.5344,-3.6328,-3.6978,-3.6978,-3.6978,-3.6978,-3.6978,-3.6978,-3.6978,-3.6978,-3.6978,-3.6978,-3.6978,-3.6978,-3.6978,-3.6978,-3.6978,-3.6978,-3.6978,-3.6978,-3.7063,-3.7245,-3.8368,-3.8986,-3.9169,-4.0196,-4.0702,-4.0702,-4.0702,-4.0702,-4.0702,-4.0702,-4.0286,-3.9664,-4.0416,-4.0702,-4.0702,-4.0702,-4.0993,-4.1457,-4.1457,-4.1538,-4.1505,0.0,0.0,0.0,-2.2888,-2.2888,-2.2989,-2.3273,-2.3316,-2.3548,0.0,0.0,0.0,-2.5168,-2.5226,-2.5487,-2.6141,-2.6224,-2.6384,-2.6765,-2.6806,-2.6806,-2.6806,-2.6806,-2.6806,-2.6806,-2.7041,-2.7186,-2.7186,-2.781,-2.8129,-2.8144,-2.8768,-2.9073,-2.9102,-2.974,-3.0207,-3.0554,-3.0554,-3.0704,-3.097,-3.1087,-3.0911,-3.0598,-3.0598,-3.0598,-3.0598,-3.0507,-3.0538,-3.0598,-3.0507,-3.0538,-3.0598,-3.0598,-3.0786,-3.0974,-3.0974,-3.1163,-3.138,-3.138,-3.138,-3.1482,-3.1845,0.0,0.0,-3.2895,-3.2978,-3.3029,-3.3408,-3.3466,-3.3431,-3.3326,-3.3782,-3.4315,-3.4716,-3.5798,-3.6722,-3.695,-3.6978,-3.6978,-3.6978,-3.6978,-3.6978,-3.6978,-3.6978,-3.6978,-3.6978,-3.6978,-3.6978,-3.6978,-3.6978,-3.6978,-3.6978,-3.6978,-3.6978,-3.6978,-3.7976,-3.8635,-3.8916,-3.9859,-4.0221,-4.0085,-4.0085,-3.9867,-3.9486,-3.9486,-3.9149,-3.8675,-3.9251,-3.9486,-3.9486,-3.9486,-3.9848,-4.0361,-4.0361,-4.0421,-4.0465,0.0,0.0,-2.2917,-2.2989,-2.3004,-2.3244,-2.3905,-2.3992,-2.4225,0.0,-2.5038,-2.5324,-2.5836,-2.5919,-2.6141,-2.6762,-2.6852,-2.6895,-2.6895,-2.6953,-2.7023,-2.7023,-2.7023,-2.7023,-2.7023,-2.7549,-2.7811,-2.7811,-2.8477,-2.8811,-2.8825,-2.9435,-2.9697,-2.9726,-3.0321,-3.0598,-3.0598,-3.0598,-3.0911,-3.1335,-3.0807,-3.0598,-3.0598,-3.0598,-3.0598,-3.0568,-3.0417,-3.0491,-3.0668,-3.0513,-3.0603,-3.0785,-3.0785,-3.1147,-3.1596,-3.1596,-3.2017,-3.2481,-3.2481,-3.2481,-3.2527,-3.26,-3.2629,0.0,-3.3016,-3.3078,-3.3148,-3.3339,-3.3382,-3.3382,-3.3361,-3.3811,-3.419,-3.4261,-3.5189,-3.6145,-3.6821,-3.695,-3.6978,-3.6978,-3.6978,-3.6978,-3.6978,-3.6978,-3.6978,-3.6978,-3.6978,-3.6978,-3.6978,-3.6978,-3.6978,-3.6978,-3.6978,-3.6978,-3.6978,-3.7597,-3.8229,-3.8916,-3.9535,-3.9588,-3.921,-3.921,-3.8675,-3.7808,-3.7808,-3.7763,-3.7625,-3.7625,-3.7717,-3.7808,-3.7808,-3.8408,-3.9329,-3.9329,-3.9354,-3.9403,0.0,-2.2888,-2.3084,-2.3615,-2.3702,-2.392,-2.4588,-2.4675,-2.4853,-2.5517,-2.6083,-2.646,-2.6602,-2.6617,-2.6675,-2.6806,-2.7244,-2.7507,-2.7507,-2.8028,-2.8346,-2.8346,-2.8346,-2.8346,-2.8346,-2.8419,-2.8492,-2.8492,-2.9131,-2.9407,-2.9421,-3.0089,-3.0409,-3.0423,-3.0539,-3.0598,-3.0598,-3.0598,-3.0657,-3.0777,-3.0657,-3.0598,-3.0598,-3.0598,-3.0598,-3.0598,-3.0568,-3.0825,-3.119,-3.1503,-3.1707,-3.1867,-3.1867,-3.2095,-3.2292,-3.2292,-3.2394,-3.2481,-3.2481,-3.2481,-3.2643,-3.3151,-3.3314,0.0,-3.3979,-3.4124,-3.4086,-3.3962,-3.3922,-3.3902,-3.3813,-3.3878,-3.4135,-3.4598,-3.4774,-3.5167,-3.6131,-3.6708,-3.6978,-3.6978,-3.6978,-3.6978,-3.6978,-3.6978,-3.6978,-3.6978,-3.6978,-3.6978,-3.6978,-3.6978,-3.6978,-3.6978,-3.6978,-3.6978,-3.6978,-3.7597,-3.8229,-3.8916,-3.9535,-3.9588,-3.921,-3.921,-3.8675,-3.7808,-3.7808,-3.7348,-3.6602,-3.6602,-3.7057,-3.7808,-3.7808,-3.7985,-3.8211,-3.8211,-3.8264,-3.8291,-2.3389,-2.3664,-2.4007,-2.4326,-2.437,-2.4573,-2.5266,-2.5328,-2.5546,-2.6224,-2.6602,-2.6895,-2.7229,-2.7258,-2.7389,-2.7721,-2.8013,-2.8202,-2.8202,-2.8507,-2.8709,-2.8709,-2.8709,-2.8709,-2.8709,-2.8985,-2.9145,-2.9145,-2.9784,-3.0103,-3.0103,-3.0452,-3.0598,-3.0598,-3.0598,-3.0598,-3.0627,-3.0916,-3.1047,-3.1018,-3.0728,-3.0598,-3.0641,-3.0854,-3.0939,-3.0982,-3.1099,-3.1303,-3.1522,-3.1803,-3.2047,-3.2177,-3.208,-3.2504,-3.2991,-3.2894,-3.3144,-3.347,-3.347,-3.347,-3.3543,-3.3862,-3.3935,0.0,0.0,-3.423,-3.421,-3.404,-3.4005,-3.3985,-3.3917,-3.3896,-3.3996,-3.4311,-3.4519,-3.4825,-3.5376,-3.6104,-3.668,-3.695,-3.6978,-3.6978,-3.6978,-3.6978,-3.6978,-3.6978,-3.6978,-3.6978,-3.6978,-3.6978,-3.6978,-3.6978,-3.6978,-3.6978,-3.6978,-3.6879,-3.7234,-3.8159,-3.8027,-3.7876,-3.7756,-3.7756,-3.7217,-3.632,-3.632,-3.6036,-3.5523,-3.5523,-3.5858,-3.632,-3.632,-3.666,-3.7131,-3.7131,-3.7524,-3.7986,-2.4094,-2.4515,-2.4921,-2.5038,-2.5038,-2.5216,-2.5879,-2.6006,-2.6239,-2.6881,-2.6968,-2.7215,-2.7811,-2.7884,-2.8115,-2.8665,-2.8782,-2.8855,-2.8869,-2.8942,-2.9015,-2.9072,-2.9072,-2.9072,-2.9072,-2.9537,-2.9798,-2.9798,-3.0321,-3.0598,-3.0598,-3.0598,-3.0598,-3.0598,-3.0598,-3.067,-3.083,-3.1293,-3.1567,-3.164,-3.1148,-3.099,-3.1003,-3.1385,-3.1524,-3.1565,-3.186,-3.199,-3.2004,-3.2231,-3.2405,-3.2551,-3.2372,-3.2928,-3.3645,-3.3479,-3.3874,-3.4414,-3.4414,-3.4414,-3.4414,-3.4414,-3.4414,-3.4346,0.0,0.0,0.0,-3.402,-3.3985,-3.3985,-3.3985,-3.3985,-3.3985,-3.3985,-3.438,-3.4717,-3.4846,-3.5427,-3.6109,-3.6841,-3.6986,-3.7017,-3.707,-3.707,-3.7017,-3.6978,-3.7017,-3.7017,-3.6978,-3.6978,-3.6978,-3.6978,-3.6978,-3.6978,-3.6978,-3.6282,-3.6375,-3.7228,-3.6654,-3.6295,-3.6169,-3.627,-3.5763,-3.4775,-3.4775,-3.4775,-3.4775,-3.4775,-3.4775,-3.4775,-3.4775,-3.5473,-3.6411,-3.6411,-3.7072,-3.7986,-2.481,-2.4766,-2.4998,-2.5589,-2.5676,-2.5894,-2.6562,-2.6704,-2.6895,-2.7507,-2.7594,-2.7868,-2.8507,-2.8607,-2.8622,-2.8694,-2.9074,-2.9363,-2.9494,-2.9897,-3.02,-3.0394,-3.0394,-3.0394,-3.0394,-3.0452,-3.0496,-3.0496,-3.0569,-3.0598,-3.0598,-3.0598,-3.0598,-3.0598,-3.0598,-3.0887,-3.1409,-3.1451,-3.1828,-3.2365,-3.2324,-3.2263,-3.2278,-3.235,-3.2379,-3.242,-3.2861,-3.301,-3.3097,-3.3516,-3.3756,-3.3878,-3.3844,-3.4071,-3.4298,-3.4279,-3.4322,-3.4414,-3.4414,-3.4414,-3.4414,-3.4414,-3.4414,-3.438,-3.438,0.0,-3.4346,-3.4346,0.0,-3.4346,-3.4346,0.0,0.0,-3.4346,-3.4268,-3.4376,-3.4965,-3.4989,-3.5395,-3.6579,-3.6886,-3.707,-3.7264,-3.7264,-3.7187,-3.7017,-3.7187,-3.7187,-3.7017,-3.6978,-3.6978,-3.6978,-3.6978,-3.6978,-3.6978,-3.69,-3.6787,-3.6701,-3.7049,-3.6648,-3.5604,-3.6094,-3.5763,-3.4775,-3.4775,-3.4775,-3.4775,-3.4775,-3.4775,-3.4775,-3.4775,-3.5473,-3.6411,-3.6411,-3.7072,-3.7986,-2.5517,-2.5705,-2.6054,-2.6341,-2.6384,-2.6486,-2.6762,-2.7099,-2.7563,-2.8202,-2.8274,-2.8521,-2.916,-2.9232,-2.9377,-2.9784,-2.9987,-3.0116,-3.0176,-3.0363,-3.0507,-3.0598,-3.0598,-3.0598,-3.0598,-3.0598,-3.0598,-3.0598,-3.0598,-3.0786,-3.1119,-3.1119,-3.1337,-3.17,-3.17,-3.1845,-3.2121,-3.2498,-3.2803,-3.3093,-3.347,-3.3583,-3.3539,-3.3064,-3.3066,-3.3327,-3.3382,-3.3448,-3.3457,-3.3506,-3.3744,-3.3937,-3.3695,-3.4005,-3.4346,-3.4157,-3.4244,-3.4414,-3.4414,-3.4414,-3.4414,-3.4414,-3.4414,-3.4414,-3.4414,-3.4414,-3.4414,-3.4414,0.0,0.0,0.0,0.0,0.0,0.0,-3.4346,-3.4365,-3.4654,-3.4842,-3.5404,-3.6576,-3.676,-3.6944,-3.726,-3.7303,-3.7226,-3.7017,-3.7187,-3.7226,-3.7017,-3.6978,-3.6978,-3.6978,-3.6978,-3.6978,-3.6978,-3.5976,-3.5791,-3.655,-3.6072,-3.5692,-3.547,-3.6022,-3.5763,-3.4775,-3.4775,-3.4775,-3.4775,-3.4775,-3.4775,-3.4775,-3.4775,-3.5292,-3.599,-3.629,-3.6879,-3.7565,-2.6416,-2.6562,-2.6806,-2.6806,-2.6924,-2.7099,-2.73,-2.7694,-2.8216,-2.8855,-2.8942,-2.9174,-2.9813,-2.9885,-3.0074,-3.0569,-3.0538,-3.0538,-3.0598,-3.0538,-3.0538,-3.0598,-3.0598,-3.0685,-3.0829,-3.0843,-3.093,-3.1105,-3.1105,-3.1337,-3.1756,-3.1756,-3.2017,-3.2481,-3.2481,-3.2614,-3.2803,-3.33,-3.3605,-3.3794,-3.4225,-3.438,-3.4254,-3.3657,-3.3671,-3.3951,-3.3799,-3.3744,-3.3695,-3.3556,-3.3695,-3.3882,-3.357,-3.3833,-3.4225,-3.3951,-3.4088,-3.4278,-3.4312,-3.4312,-3.4346,-3.438,-3.4414,-3.4414,-3.4414,-3.4414,-3.4414,-3.4414,-3.4414,0.0,0.0,0.0,-3.4414,-3.4414,0.0,-3.4414,-3.4414,-3.4683,-3.5251,-3.6222,-3.6435,-3.6668,-3.7106,-3.7201,-3.7195,-3.7095,-3.7264,-3.7264,-3.7017,-3.6978,-3.6978,-3.6978,-3.6978,-3.6978,-3.6978,-3.548,-3.5082,-3.588,-3.494,-3.459,-3.4854,-3.5387,-3.5341,-3.4775,-3.4775,-3.4775,-3.4775,-3.4775,-3.4775,-3.4775,-3.4775,-3.5015,-3.5485,-3.6158,-3.6735,-3.7276,-2.7637,-2.72,-2.6806,-2.6806,-2.7287,-2.7884,-2.8521,-2.8665,-2.8884,-2.9479,-2.9566,-2.9842,-3.051,-3.0569,-3.0583,-3.0598,-3.0417,-3.0387,-3.0598,-3.0417,-3.0417,-3.0598,-3.0598,-3.0858,-3.1451,-3.1451,-3.177,-3.2454,-3.2454,-3.2469,-3.2452,-3.2452,-3.2466,-3.2481,-3.2481,-3.2861,-3.3474,-3.3489,-3.3819,-3.4385,-3.4399,-3.4264,-3.4128,-3.4065,-3.4079,-3.4094,-3.4094,-3.4094,-3.4094,-3.4094,-3.4094,-3.4074,-3.3917,-3.3896,-3.3917,-3.3896,-3.3896,-3.3951,-3.4059,-3.4128,-3.4162,-3.4346,-3.4414,-3.4414,-3.4414,-3.4414,-3.4414,-3.4414,-3.4414,-3.4414,-3.4414,-3.4414,-3.4414,-3.4414,-3.4414,0.0,0.0,-3.4395,-3.469,-3.5343,-3.5775,-3.6215,-3.6653,-3.6911,-3.708,-3.726,-3.7457,-3.7419,-3.7017,-3.6978,-3.6978,-3.6978,-3.6978,-3.6978,-3.6978,-3.6123,-3.521,-3.4387,-3.3974,-3.3662,-3.3379,-3.3884,-3.4342,-3.4775,-3.4775,-3.4775,-3.4775,-3.4775,-3.4775,-3.4775,-3.4775,-3.4787,-3.4931,-3.6014,-3.6735,-3.7276,-2.8361,-2.8187,-2.807,-2.807,-2.8244,-2.8579,-2.9203,-2.9305,-2.9537,-3.0176,-3.0248,-3.0335,-3.0583,-3.0598,-3.0598,-3.0598,-3.0538,-3.0538,-3.0598,-3.0899,-3.113,-3.1192,-3.1627,-3.1961,-3.2147,-3.2147,-3.2263,-3.2481,-3.2481,-3.273,-3.3151,-3.3151,-3.3369,-3.3775,-3.3775,-3.3891,-3.4095,-3.4095,-3.4211,-3.4414,-3.4414,-3.4346,-3.4312,-3.4312,-3.423,-3.4094,-3.4005,-3.3985,-3.3917,-3.366,-3.366,-3.373,-3.357,-3.3675,-3.3862,-3.3744,-3.3793,-3.3896,-3.3951,-3.3985,-3.412,-3.4715,-3.4851,-3.5001,-3.554,-3.5677,-3.5677,-3.5677,-3.5677,-3.5677,-3.5677,-3.5677,-3.5677,-3.5677,-3.5314,-3.5072,0.0,-3.4675,-3.4486,-3.4704,-3.5472,-3.605,-3.6207,-3.6587,-3.6768,-3.6717,-3.7153,-3.7264,-3.7017,-3.6978,-3.6978,-3.6978,-3.6978,-3.6978,-3.6978,-3.6123,-3.5534,-3.5196,-3.492,-3.4564,-3.4181,-3.4746,-3.4925,-3.4775,-3.4775,-3.4775,-3.4775,-3.4775,-3.4775,-3.4775,-3.4775,-3.4775,-3.4907,-3.6014,-3.6519,-3.6795,-2.9015,-2.9217,-2.9246,-2.8781,-2.8869,-2.9232,-2.9871,-2.9958,-3.0103,-3.0539,-3.0598,-3.0598,-3.0598,-3.0598,-3.0699,-3.0887,-3.0916,-3.1003,-3.125,-3.1642,-3.1843,-3.1843,-3.2249,-3.2629,-3.2846,-3.2861,-3.2962,-3.3195,-3.3195,-3.3398,-3.3804,-3.3804,-3.4022,-3.4414,-3.4414,-3.4414,-3.4414,-3.4414,-3.4414,-3.4414,-3.4414,-3.4312,-3.4225,-3.4278,-3.4176,-3.4005,-3.3917,-3.3862,-3.3744,-3.3501,-3.3501,-3.357,-3.3361,-3.3677,-3.4106,-3.3952,-3.4193,-3.4483,-3.4539,-3.4469,-3.4583,-3.5181,-3.5303,-3.5453,-3.5964,-3.6101,-3.6101,-3.6158,-3.6194,-3.6229,-3.6301,-3.6301,-3.6301,-3.6301,-3.5967,-3.5654,0.0,-3.5043,-3.4661,-3.4443,-3.5021,-3.5495,-3.564,-3.6223,-3.6513,-3.6405,-3.7025,-3.7303,-3.7017,-3.6978,-3.6978,-3.6978,-3.6978,-3.6861,-3.6533,-3.5655,-3.5033,-3.4746,-3.4246,-3.3966,-3.3884,-3.4428,-3.4644,-3.451,-3.4703,-3.4775,-3.4775,-3.4775,-3.4775,-3.4775,-3.4775,-3.4775,-3.4907,-3.6014,-3.6639,-3.706,-2.9639,-3.0161,-3.022,-2.9014,-2.9276,-2.9871,-3.051,-3.0598,-3.0598,-3.0598,-3.0641,-3.0641,-3.0641,-3.067,-3.0916,-3.1511,-3.1538,-3.1814,-3.2452,-3.2542,-3.2571,-3.2571,-3.2568,-3.289,-3.3532,-3.3547,-3.3819,-3.4414,-3.4414,-3.4414,-3.4414,-3.4414,-3.4414,-3.4414,-3.4414,-3.4414,-3.4414,-3.4414,-3.4414,-3.4414,-3.4414,-3.4191,-3.3917,-3.4059,-3.404,-3.3896,-3.3896,-3.3793,-3.3605,-3.3605,-3.3619,-3.3613,-3.3438,-3.3917,-3.4562,-3.4562,-3.5001,-3.552,-3.5638,-3.5543,-3.5461,-3.5687,-3.5723,-3.5738,-3.5766,-3.5803,-3.5839,-3.6028,-3.6064,-3.6137,-3.6331,-3.6367,-3.6367,-3.6402,-3.6373,-3.6141,-3.5537,-3.5421,-3.5174,-3.453,-3.4395,-3.4544,-3.5033,-3.5803,-3.631,-3.6358,-3.7125,-3.7419,-3.7017,-3.7017,-3.7017,-3.6978,-3.6978,-3.6573,-3.5709,-3.4815,-3.3888,-3.2993,-3.2164,-3.1994,-3.2515,-3.3044,-3.3573,-3.4018,-3.4546,-3.4775,-3.4775,-3.4775,-3.4775,-3.4775,-3.4775,-3.4811,-3.4979,-3.6038,-3.7072,-3.7986,-3.0321,-3.0496,-3.051,-3.0176,-3.0249,-3.0409,-3.0583,-3.0598,-3.0598,-3.0598,-3.0988,-3.1279,-3.1279,-3.1714,-3.2077,-3.222,-3.2234,-3.2338,-3.2481,-3.2962,-3.3256,-3.3256,-3.3674,-3.4008,-3.4167,-3.4167,-3.424,-3.4414,-3.4414,-3.4414,-3.4414,-3.4414,-3.4414,-3.4414,-3.4414,-3.4414,-3.4414,-3.4414,-3.4414,-3.4414,-3.4414,-3.4278,-3.4074,-3.423,-3.4142,-3.3896,-3.3896,-3.3862,-3.3827,-3.3827,-3.4113,-3.4469,-3.4434,-3.4804,-3.5243,-3.5243,-3.5246,-3.53,-3.5337,-3.53,-3.5413,-3.6065,-3.6216,-3.6381,-3.6964,-3.7101,-3.7139,-3.7177,-3.72,-3.7252,-3.744,-3.7477,-3.7552,-3.7686,-3.7346,-3.6823,-3.6156,-3.5697,-3.5334,-3.5174,-3.4553,-3.4302,-3.4529,-3.5345,-3.5847,-3.5872,-3.6807,-3.7264,-3.7017,-3.7148,-3.7148,-3.6978,-3.6978,-3.6573,-3.5709,-3.5454,-3.4568,-3.298,-3.2778,-3.2634,-3.2515,-3.3044,-3.3573,-3.4018,-3.4546,-3.4775,-3.4775,-3.4775,-3.4775,-3.4775,-3.4775,-3.5304,-3.6038,-3.6302,-3.7072,-3.7986,-3.0598,-3.083,-3.0988,-3.0988,-3.1235,-3.1322,-3.1032,-3.1235,-3.1424,-3.1424,-3.1729,-3.1961,-3.1961,-3.2263,-3.2629,-3.2904,-3.2869,-3.2952,-3.3293,-3.3607,-3.3777,-3.3777,-3.4158,-3.4346,-3.4264,-3.4346,-3.4414,-3.4414,-3.4414,-3.4414,-3.4414,-3.4414,-3.4414,-3.4414,-3.4414,-3.4414,-3.4414,-3.4414,-3.4346,-3.4264,-3.4264,-3.4176,0.0,-3.4157,-3.4054,-3.396,-3.4301,-3.418,-3.3939,-3.4182,-3.4476,-3.4733,-3.5003,-3.5457,-3.5895,-3.5895,-3.6005,-3.6118,-3.6118,-3.6066,-3.6113,-3.6541,-3.6664,-3.6787,-3.7218,-3.7341,-3.7341,-3.7457,-3.7457,-3.7534,-3.7739,-3.7853,-3.7967,-3.8165,-3.7926,-3.7476,-3.6838,-3.6431,-3.6098,-3.5842,-3.5354,-3.5102,-3.5207,-3.554,-3.5817,-3.6102,-3.6954,-3.7341,-3.7148,-3.7226,-3.7226,-3.7017,-3.6978,-3.6401,-3.5102,-3.5102,-3.4194,-3.2444,-3.2444,-3.2323,-3.2166,-3.2935,-3.344,-3.3753,-3.4499,-3.4775,-3.4775,-3.4775,-3.4775,-3.4775,-3.4775,-3.5473,-3.6411,-3.6411,-3.7072,-3.7986,-3.0845,-3.1279,-3.1625,-3.1625,-3.2208,-3.244,-3.1859,-3.2162,-3.2481,-3.2481,-3.2585,-3.2643,-3.2643,-3.2684,-3.2991,-3.3576,-3.3454,-3.3652,-3.4337,-3.423,-3.4128,-3.4128,-3.4312,-3.4312,-3.4128,-3.4312,-3.4414,-3.4414,-3.4414,-3.4414,-3.4414,-3.4414,-3.4414,-3.4414,-3.4414,-3.4414,-3.4414,-3.4414,-3.4264,-3.4094,-3.4128,-3.404,-3.3882,-3.3965,-3.3965,-3.4037,-3.4827,-3.4663,-3.4131,-3.4767,-3.4897,-3.4938,-3.5514,-3.6074,-3.6533,-3.6547,-3.6878,-3.7264,-3.7264,-3.7148,-3.6978,-3.6978,-3.6978,-3.6978,-3.6978,-3.6978,-3.707,-3.7226,-3.7264,-3.7303,-3.7495,-3.7739,-3.7929,-3.8127,-3.8165,-3.7991,-3.7432,-3.7287,-3.7048,-3.6468,-3.6287,0.0,-3.6431,-3.6093,-3.6104,-3.6691,-3.7305,-3.7534,-3.7303,-3.7303,-3.7226,-3.7017,-3.69,-3.6056,-3.4513,-3.4264,-3.3352,-3.1869,-3.1749,-3.1705,-3.1753,-3.2791,-3.3284,-3.3344,-3.4378,-3.4775,-3.4775,-3.4775,-3.4775,-3.4775,-3.4775,-3.5473,-3.6411,-3.6411,-3.7072,-3.7986,-3.2077,-3.2234,-3.2307,-3.2307,-3.2875,-3.33,-3.3184,-3.2788,-3.2481,-3.2481,-3.2977,-3.3329,-3.3329,-3.3761,-3.4124,-3.424,-3.4206,-3.425,-3.438,-3.438,-3.4346,-3.4346,-3.438,-3.438,-3.4346,-3.438,-3.4414,-3.4414,-3.4414,-3.4414,-3.4414,-3.4414,-3.4414,-3.4414,-3.4414,-3.4414,-3.4414,-3.4414,-3.4264,-3.4128,-3.4264,-3.4191,-3.3931,-3.4225,-3.421,-3.416,-3.4842,-3.5021,-3.4971,-3.5604,-3.6129,-3.6566,-3.6681,-3.6916,-3.7171,-3.7339,-3.7218,-3.707,-3.707,-3.7017,-3.6978,-3.6978,-3.6978,-3.6978,-3.6978,-3.6978,-3.7017,-3.707,-3.707,-3.7109,-3.7303,-3.7495,-3.7739,-3.7929,-3.7967,-3.7863,-3.7596,-3.725,-3.7002,-3.6872,-3.6222,-3.6143,-3.7048,-3.6909,-3.6827,-3.6942,-3.7509,-3.7701,-3.7303,-3.7457,-3.738,-3.7017,-3.6282,-3.579,-3.5454,-3.3985,-3.3066,-3.2778,-3.2033,-3.1705,-3.1753,-3.2791,-3.3284,-3.3344,-3.4378,-3.4775,-3.4775,-3.4775,-3.4775,-3.4775,-3.4775,-3.5473,-3.6411,-3.6411,-3.7072,-3.7986,-3.2454,-3.2788,-3.3006,-3.3006,-3.3529,-3.3964,-3.3964,-3.3703,-3.3499,-3.3499,-3.3775,-3.3964,-3.3964,-3.424,-3.4414,-3.4414,-3.4312,-3.4312,-3.438,-3.4312,-3.423,-3.423,-3.4346,-3.4346,-3.423,-3.4346,-3.4414,-3.4414,-3.4414,-3.4414,-3.4414,-3.4414,-3.4414,-3.4414,-3.4414,-3.4414,-3.438,-3.4312,-3.4142,-3.4005,-3.4088,-3.4054,-3.396,-3.4537,-3.477,-3.4886,-3.5776,-3.6086,-3.6115,-3.6308,-3.6499,-3.6739,-3.7068,-3.7139,-3.7148,-3.7264,-3.7148,-3.6978,-3.6978,-3.6978,-3.6978,-3.6978,-3.6978,-3.6978,-3.6978,-3.6978,-3.6978,-3.6978,-3.6978,-3.707,-3.7264,-3.7457,-3.7625,-3.7739,-3.7815,-3.7815,-3.7625,-3.7443,-3.7318,-3.7318,-3.6934,-3.6937,-3.7566,-3.752,-3.7483,-3.7483,-3.7733,-3.7739,-3.7303,-3.7495,-3.7419,-3.7017,-3.6163,-3.5709,-3.5709,-3.3901,-3.298,-3.2993,-3.212,-3.1705,-3.1753,-3.2791,-3.3284,-3.3344,-3.4378,-3.4775,-3.4775,-3.4775,-3.4775,-3.4859,-3.5136,-3.5713,-3.6435,-3.6711,-3.7312,-3.7986,-3.2872,-3.3325,-3.3707,-3.3707,-3.408,-3.4414,-3.4414,-3.4414,-3.4414,-3.4414,-3.4414,-3.4414,-3.4414,-3.4414,-3.4414,-3.4414,-3.4264,-3.423,-3.438,-3.423,-3.4162,-3.4162,-3.4312,-3.4312,-3.4094,-3.4312,-3.438,-3.4346,-3.438,-3.4414,-3.4414,-3.4414,-3.4414,-3.4414,-3.4414,-3.438,-3.4346,-3.4162,-3.4005,-3.3911,-3.4108,-3.4151,-3.4243,-3.5035,-3.5421,-3.5635,-3.6612,-3.6919,-3.6859,-3.6802,-3.6694,-3.6651,-3.7147,-3.7148,-3.7017,-3.707,-3.7017,-3.6978,-3.6978,-3.6978,-3.6978,-3.6978,-3.6978,-3.6978,-3.6978,-3.6978,-3.6978,-3.6978,-3.6978,-3.707,-3.7264,-3.738,-3.7495,-3.7534,-3.7663,-3.7701,-3.7495,-3.7534,-3.7586,-3.7534,-3.7625,-3.7701,-3.7815,-3.7929,-3.7929,-3.7853,-3.7891,-3.7739,-3.738,-3.7495,-3.7419,-3.707,-3.6203,-3.587,-3.603,-3.4027,-3.3109,-3.328,-3.2208,-3.1705,-3.1753,-3.2791,-3.3284,-3.3344,-3.4378,-3.4775,-3.4775,-3.4775,-3.4775,-3.4835,-3.5412,-3.5942,-3.6471,-3.7,-3.7529,-3.7986,-3.4124,-3.4283,-3.4327,-3.4327,-3.437,-3.4414,-3.4414,-3.4414,-3.4414,-3.4414,-3.4414,-3.4414,-3.4414,-3.4414,-3.4414,-3.4414,-3.438,-3.438,-3.4414,-3.438,-3.438,-3.438,-3.438,-3.4312,-3.4094,-3.4312,-3.4312,-3.4128,-3.4312,-3.4414,-3.4414,-3.4414,-3.4414,-3.4414,-3.4414,-3.4312,-3.4128,-3.4128,-3.4005,-3.3974,-3.4692,-3.4977,-3.5099,-3.5861,-3.6071,-3.6014,-3.655,-3.6607,-3.6505,-3.6866,-3.7102,-3.7232,-3.7275,-3.7148,-3.7017,-3.7226,-3.7148,-3.6978,-3.6978,-3.6978,-3.6978,-3.6978,-3.6978,-3.6978,-3.6978,-3.6978,-3.6978,-3.6978,-3.6978,-3.707,-3.7264,-3.7187,-3.7109,-3.7303,-3.7341,-3.7303,-3.707,-3.738,-3.7534,-3.7341,-3.7663,-3.7815,-3.7663,-3.7953,-3.8014,-3.7663,-3.7815,-3.7815,-3.7586,-3.7586,-3.7495,-3.7264,-3.6441,-3.6348,-3.7134,-3.4402,-3.3395,-3.4181,-3.2488,-3.1705,-3.1753,-3.2791,-3.3284,-3.3344,-3.4378,-3.4775,-3.4775,-3.4775,-3.4775,-3.4835,-3.5412,-3.5942,-3.6471,-3.7,-3.7529,-3.7986,-3.4356,-3.4414,-3.4414,-3.4414,-3.4414,-3.4414,-3.4414,-3.4414,-3.4414,-3.4414,-3.4414,-3.4414,-3.4414,-3.4414,-3.4414,-3.4414,-3.4414,-3.4414,-3.4414,-3.4414,-3.4414,-3.4414,-3.4414,-3.4346,-3.4264,-3.4346,-3.4569,-3.4877,-3.4946,-3.5183,-3.5546,-3.5546,-3.5476,-3.5371,-3.5476,-3.5441,-3.5251,-3.5251,-3.523,-3.5188,-3.5503,-3.5625,-3.5733,-3.6577,-3.6801,-3.6691,-3.7212,-3.7201,-3.6963,-3.7141,-3.7148,-3.7109,-3.7109,-3.707,-3.7017,-3.7109,-3.707,-3.6978,-3.6978,-3.6978,-3.6978,-3.6978,-3.6978,-3.6978,-3.6978,-3.6978,-3.6978,-3.6978,-3.6978,-3.7017,-3.7109,-3.7148,-3.7187,-3.7148,-3.7226,-3.7226,-3.7017,-3.7148,-3.7226,-3.7148,-3.7264,-3.738,-3.7419,-3.7687,-3.7801,-3.7777,-3.7967,-3.7953,-3.7625,-3.7625,-3.7572,-3.7457,-3.6387,-3.603,-3.652,-3.4194,-3.3152,-3.3522,-3.2283,-3.1886,-3.219,-3.2947,-3.3633,-3.4234,-3.4655,-3.4775,-3.4775,-3.4775,-3.4775,-3.4871,-3.5761,-3.6218,-3.6507,-3.7348,-3.7805,-3.7986,-3.3722,-3.3894,-3.4045,-3.4045,-3.423,-3.4332,-3.4079,-3.4264,-3.4312,-3.4079,-3.4423,-3.4617,-3.4428,-3.4414,-3.4486,-3.4675,-3.469,-3.4777,-3.4965,-3.4965,-3.4931,-3.4862,-3.4931,-3.4862,-3.4689,-3.4862,-3.5114,-3.5493,-3.5598,-3.5865,-3.6194,-3.6172,-3.6065,-3.5906,-3.6122,-3.6086,-3.5928,-3.5964,-3.6,-3.6029,-3.6216,-3.6338,-3.6447,-3.7221,-3.7393,-3.7287,-3.7695,-3.7586,-3.7303,-3.7303,-3.7187,-3.6978,-3.6978,-3.6978,-3.6978,-3.6978,-3.6978,-3.6978,-3.6978,-3.6978,-3.6978,-3.6978,-3.6978,-3.6978,-3.6978,-3.6978,-3.6978,-3.6978,-3.6978,-3.6978,-3.6978,-3.7109,-3.7187,-3.7017,-3.7109,-3.7148,-3.7017,-3.707,-3.707,-3.7017,-3.7148,-3.7264,-3.7226,-3.7495,-3.7701,-3.7739,-3.7915,-3.7915,-3.7625,-3.7625,-3.7586,-3.7495,-3.6638,-3.611,-3.5976,-3.4277,-3.3237,-3.2993,-3.212,-3.1961,-3.2527,-3.32,-3.3994,-3.4775,-3.4775,-3.4775,-3.4775,-3.4775,-3.4775,-3.4931,-3.599,-3.6411,-3.6531,-3.7589,-3.7986,-3.7986,-3.211,-3.272,-3.3213,-3.3213,-3.3894,-3.4113,-3.3332,-3.3894,-3.4113,-3.3332,-3.4458,-3.5145,-3.4486,-3.4414,-3.4661,-3.5334,-3.5392,-3.5654,-3.6243,-3.6286,-3.6179,-3.5985,-3.6179,-3.6,-3.5396,-3.5964,-3.6108,-3.5696,-3.6108,-3.6179,-3.6,-3.5812,-3.5717,-3.5717,-3.5906,-3.5892,-3.5711,-3.5928,-3.6,-3.6057,-3.672,-3.7104,-3.7324,-3.7722,-3.7891,-3.7853,-3.7649,-3.7457,-3.7303,-3.7303,-3.7187,-3.6978,-3.6978,-3.6978,-3.6978,-3.6978,-3.6978,-3.6978,-3.6978,-3.6978,-3.6978,-3.6978,-3.6978,-3.6978,-3.6978,-3.6978,-3.6978,-3.6978,-3.6978,-3.6978,-3.6978,-3.6978,-3.6978,-3.6978,-3.6978,-3.6978,-3.6978,-3.7187,-3.7226,-3.7017,-3.7534,-3.7663,-3.707,-3.7534,-3.7739,-3.7341,-3.7495,-3.7625,-3.7625,-3.7625,-3.7495,-3.7303,-3.7303,-3.6847,-3.6016,-3.4856,-3.3846,-3.2993,-3.212,-3.1961,-3.2539,-3.3514,-3.4282,-3.4775,-3.4775,-3.4775,-3.4775,-3.4775,-3.4775,-3.4931,-3.599,-3.6411,-3.6531,-3.7589,-3.7986,-3.7986,-3.2861,-3.2506,-3.229,-3.2434,-3.2981,-3.3346,-3.3227,-3.4286,-3.4949,-3.4566,-3.5252,-3.5447,-3.4497,-3.5182,-3.5793,-3.5981,-3.589,-3.5905,-3.6072,-3.5956,-3.5848,-3.5812,-3.5848,-3.579,-3.5608,-3.592,-3.6194,-3.6368,-3.664,-3.6893,-3.7086,-3.7025,-3.6912,-3.6798,-3.7137,-3.7161,-3.701,-3.7385,-3.7519,-3.7511,-3.7578,-3.7641,-3.7693,-3.7706,-3.7701,-3.7701,-3.7625,-3.7457,-3.7303,-3.7303,-3.7187,-3.6978,-3.6978,-3.6978,-3.6978,-3.6978,-3.6978,-3.6978,-3.6978,-3.6978,-3.6978,-3.6978,-3.6978,-3.6978,-3.6978,-3.6978,-3.6978,-3.6978,-3.6978,-3.6978,-3.6978,-3.6978,-3.6978,-3.6978,-3.6978,-3.6978,-3.6978,-3.707,-3.707,-3.7017,-3.7187,-3.7226,-3.7017,-3.7303,-3.7495,-3.7495,-3.7701,-3.7739,-3.7625,-3.7457,-3.7419,-3.7495,-3.6638,-3.5856,-3.5047,-3.3972,-3.2993,-3.212,-3.2224,-3.2695,-3.3573,-3.421,-3.4619,-3.4775,-3.4775,-3.4775,-3.4775,-3.4775,-3.4775,-3.4931,-3.599,-3.6411,-3.6531,-3.7589,-3.7986,-3.7986,-3.1892,-3.1613,-3.1415,-3.1599,-3.2286,-3.2727,-3.2532,-3.3651,-3.4506,-3.4497,-3.5003,-3.5382,-3.5461,-3.612,-3.6347,-3.5943,-3.6287,-3.6526,-3.6595,-3.6624,-3.655,-3.6416,-3.6564,-3.6564,-3.6416,-3.6683,-3.6921,-3.7152,-3.7279,-3.748,-3.7701,-3.7663,-3.7534,-3.7419,-3.7739,-3.7815,-3.7739,-3.8066,-3.8179,-3.8066,-3.7967,-3.7853,-3.7777,-3.7572,-3.7534,-3.7586,-3.7495,-3.7419,-3.7303,-3.7303,-3.7187,-3.6978,-3.6978,-3.6978,-3.6978,-3.6978,-3.6978,-3.6978,-3.6978,-3.6978,-3.6978,-3.6978,-3.6978,-3.6978,-3.6978,-3.6978,-3.6978,-3.6978,-3.6978,-3.6978,-3.6978,-3.6978,-3.6978,-3.6978,-3.6978,-3.6978,-3.6978,-3.6978,-3.6978,-3.6978,-3.707,-3.707,-3.7017,-3.7187,-3.7303,-3.738,-3.7495,-3.7495,-3.738,-3.738,-3.725,-3.6886,-3.611,-3.5156,-3.4001,-3.331,-3.2575,-3.1717,-3.243,-3.3236,-3.4006,-3.4534,-3.4775,-3.4775,-3.4775,-3.4775,-3.4775,-3.4775,-3.4895,-3.5208,-3.6062,-3.6519,-3.6807,-3.7661,-3.7986,-3.7986,-2.9868,-3.0254,-3.0634,-3.0862,-3.1836,-3.2321,-3.1552,-3.2358,-3.3235,-3.3572,-3.4056,-3.51,-3.6925,-3.692,-3.6373,-3.5272,-3.6523,-3.7422,-3.762,-3.7901,-3.7901,-3.7534,-3.7825,-3.7825,-3.7495,-3.7901,-3.8014,-3.7815,-3.7853,-3.7853,-3.7777,-3.7663,-3.7625,-3.7625,-3.7815,-3.7891,-3.7891,-3.8089,-3.8104,-3.7891,-3.7891,-3.7777,-3.7586,-3.738,-3.7419,-3.7586,-3.738,-3.7303,-3.7303,-3.7264,-3.7148,-3.6978,-3.6978,-3.6978,-3.6978,-3.6978,-3.6978,-3.6978,-3.6978,-3.6978,-3.6978,-3.6978,-3.6978,-3.6978,-3.6978,-3.6978,-3.6978,-3.6978,-3.6978,-3.6978,-3.6978,-3.6978,-3.6978,-3.6978,-3.6978,-3.6978,-3.6978,-3.6978,-3.6978,-3.6978,-3.7187,-3.7226,-3.7017,-3.7187,-3.7226,-3.7017,-3.7017,-3.7017,-3.7017,-3.738,-3.7042,-3.583,-3.5749,-3.491,-3.3194,-3.3066,-3.2612,-3.1837,-3.2839,-3.3609,-3.4066,-3.4558,-3.4775,-3.4775,-3.4775,-3.4775,-3.4775,-3.4775,-3.5148,-3.5665,-3.6194,-3.6723,-3.7252,-3.7781,-3.7986,-3.7986,-3.092,-3.0671,-3.0507,-3.0962,-3.1594,-3.199,-3.1803,-3.3027,-3.4215,-3.4788,-3.4992,-3.5211,-3.5505,-3.5627,-3.5251,-3.4162,-3.6337,-3.7785,-3.7815,-3.7159,-3.6702,-3.6624,-3.607,-3.6016,-3.6598,-3.6858,-3.6975,-3.6911,-3.7404,-3.7327,-3.6702,-3.7289,-3.7625,-3.7625,-3.7815,-3.7891,-3.7891,-3.8089,-3.8104,-3.7891,-3.7891,-3.7777,-3.7586,-3.7534,-3.7572,-3.7586,-3.738,-3.7303,-3.7264,-3.7109,-3.7017,-3.6978,-3.6978,-3.6978,-3.6978,-3.6978,-3.6978,-3.6978,-3.6978,-3.6978,-3.6978,-3.6978,-3.6978,-3.6978,-3.6978,-3.6978,-3.6978,-3.6978,-3.6978,-3.6978,-3.6978,-3.6978,-3.6978,-3.6978,-3.6978,-3.6978,-3.6978,-3.6978,-3.6978,-3.6978,-3.7017,-3.707,-3.6978,-3.7017,-3.7109,-3.7226,-3.7226,-3.7226,-3.7226,-3.7303,-3.7173,-3.6691,-3.6044,-3.5494,-3.5074,-3.3704,-3.2964,-3.2911,-3.3561,-3.409,-3.4595,-3.4727,-3.4775,-3.4775,-3.4775,-3.4775,-3.4775,-3.4775,-3.5148,-3.5665,-3.6194,-3.6723,-3.7252,-3.7781,-3.7986,-3.7986,-3.1128,-3.0785,-3.0462,-3.0869,-3.127,-3.1597,-3.1597,-3.2523,-3.356,-3.4446,-3.4288,-3.4415,-3.5183,-3.5033,-3.48,-3.4594,-3.5963,-3.678,-3.6612,-3.6215,-3.5923,-3.5843,-3.5856,-3.6096,-3.657,-3.7053,-3.7323,-3.7323,-3.7711,-3.762,-3.7169,-3.7658,-3.7877,-3.7877,-3.7891,-3.7967,-3.8028,-3.7953,-3.7915,-3.7891,-3.7815,-3.7701,-3.7586,-3.7495,-3.7457,-3.7419,-3.7226,-3.7148,-3.7148,-3.7017,-3.6978,-3.6978,-3.6978,-3.6978,-3.6978,-3.6978,-3.6978,-3.6978,-3.6978,-3.6978,-3.6978,-3.6978,-3.6978,-3.6978,-3.6978,-3.6978,-3.6978,-3.6978,-3.6978,-3.6978,-3.6978,-3.6978,-3.6978,-3.6978,-3.6978,-3.6978,-3.6978,-3.6978,-3.6978,-3.6978,-3.6978,-3.6978,-3.6978,-3.6978,-3.707,-3.7148,-3.7148,-3.7148,-3.7148,-3.7148,-3.694,-3.6401,-3.595,-3.5291,-3.4485,-3.3343,-3.2926,-3.3296,-3.3801,-3.427,-3.4775,-3.4775,-3.4775,-3.4775,-3.4775,-3.4775,-3.4775,-3.4775,-3.528,-3.6002,-3.629,-3.6879,-3.7589,-3.7878,-3.7986,-3.7986,-3.0931,-3.0805,-3.0662,-3.0849,-3.1126,-3.1314,-3.1271,-3.1746,-3.2438,-3.3547,-3.3159,-3.3445,-3.5224,-3.469,-3.4496,-3.5142,-3.5224,-3.5237,-3.5264,-3.5359,-3.5467,-3.5548,-3.6162,-3.6663,-3.6897,-3.7758,-3.8127,-3.8,-3.8127,-3.8127,-3.8,-3.8127,-3.8165,-3.8127,-3.7967,-3.7991,-3.8127,-3.7801,-3.7739,-3.7891,-3.7701,-3.7625,-3.7586,-3.7419,-3.7341,-3.7264,-3.7109,-3.7017,-3.6978,-3.6978,-3.6978,-3.6978,-3.6978,-3.6978,-3.6978,-3.6978,-3.6978,-3.6978,-3.6978,-3.6978,-3.6978,-3.6978,-3.6978,-3.6978,-3.6978,-3.6978,-3.6978,-3.6978,-3.6978,-3.6978,-3.6978,-3.6978,-3.6978,-3.6978,-3.6978,-3.6978,-3.6978,-3.6978,-3.6978,-3.6978,-3.6978,-3.6978,-3.6978,-3.6978,-3.6978,-3.6978,-3.6978,-3.6978,-3.6978,-3.6978,-3.6652,-3.591,-3.591,-3.5073,-3.3321,-3.297,-3.3013,-3.3404,-3.3874,-3.4342,-3.4775,-3.4775,-3.4775,-3.4775,-3.4775,-3.4775,-3.4787,-3.4871,-3.5521,-3.6411,-3.6495,-3.712,-3.7986,-3.7986,-3.7986,-3.7986,-3.1052,-3.1247,-3.1449,-3.1741,-3.1855,-3.1816,-3.1641,-3.2021,-3.2667,-3.359,-3.3288,-3.3441,-3.4468,-3.3823,-3.3368,-3.3471,-3.3471,-3.4358,-3.6452,-3.5345,-3.5182,-3.661,-3.5467,-3.5467,-3.6858,-3.7758,-3.7848,-3.7092,-3.7848,-3.781,-3.713,-3.7848,-3.8104,-3.7929,-3.7891,-3.7929,-3.7929,-3.7891,-3.7853,-3.7891,-3.7853,-3.7739,-3.7625,-3.7586,-3.7457,-3.7303,-3.7264,-3.7148,-3.6978,-3.6978,-3.6978,-3.6978,-3.6978,-3.6978,-3.6978,-3.6978,-3.6978,-3.6978,-3.6978,-3.6978,-3.6978,-3.6978,-3.6978,-3.6978,-3.6978,-3.6978,-3.6978,-3.6978,-3.6978,-3.6978,-3.6978,-3.6978,-3.6978,-3.6978,-3.6978,-3.6978,-3.6978,-3.6978,-3.6978,-3.6978,-3.6978,-3.6978,-3.6978,-3.6978,-3.6978,-3.6978,-3.6978,-3.6978,-3.6978,-3.6978,-3.694,-3.6822,-3.6783,-3.6156,-3.4808,-3.4439,-3.4167,-3.3886,-3.4402,-3.4703,-3.4775,-3.4775,-3.4775,-3.4775,-3.4775,-3.4775,-3.4859,-3.5304,-3.5857,-3.6459,-3.6892,-3.7445,-3.7986,-3.7986,-3.7986,-3.7986,-3.1496,-3.1605,-3.1678,-3.1801,-3.1849,-3.1849,-3.1849,-3.2169,-3.2593,-3.3074,-3.3142,-3.324,-3.3654,-3.3326,-3.3124,-3.3124,-3.2982,-3.3628,-3.5426,-3.4384,-3.3966,-3.4622,-3.4509,-3.4937,-3.6148,-3.6582,-3.6582,-3.6201,-3.6582,-3.6582,-3.6201,-3.6621,-3.6752,-3.6663,-3.6531,-3.657,-3.6649,-3.6308,-3.6308,-3.6531,-3.6755,-3.6886,-3.6964,-3.7303,-3.738,-3.7303,-3.7187,-3.707,-3.6978,-3.6978,-3.6978,-3.6978,-3.6978,-3.6978,-3.6978,-3.6978,-3.6978,-3.6978,-3.6978,-3.6978,-3.6978,-3.6978,-3.6978,-3.6978,-3.6978,-3.6978,-3.6978,-3.6978,-3.6978,-3.6978,-3.6978,-3.6978,-3.6978,-3.6978,-3.6978,-3.6978,-3.6978,-3.6978,-3.6978,-3.6978,-3.6978,-3.6978,-3.6978,-3.6978,-3.6978,-3.6978,-3.6978,-3.6978,-3.6978,-3.6978,-3.6937,-3.6739,-3.6239,-3.548,-3.4403,-3.4338,-3.4165,-3.4006,-3.4522,-3.4775,-3.4775,-3.4775,-3.4775,-3.4775,-3.4775,-3.4775,-3.4823,-3.54,-3.593,-3.6459,-3.6988,-3.7517,-3.7986,-3.7986,-3.7986,-3.7986,-3.1821,-3.1805,-3.1705,-3.1705,-3.1705,-3.1749,-3.1994,-3.2213,-3.2475,-3.2593,-3.2896,-3.3081,-3.3025,-3.3025,-3.3025,-3.3068,-3.2853,-3.3099,-3.4021,-3.3454,-3.3185,-3.336,-3.4204,-3.4965,-3.5574,-3.5615,-3.5615,-3.5615,-3.5615,-3.5615,-3.5615,-3.5615,-3.5574,-3.5534,-3.5305,-3.5305,-3.5427,-3.4883,-3.4883,-3.5264,-3.5548,-3.5762,-3.5963,-3.6427,-3.6716,-3.6886,-3.652,-3.6652,-3.6978,-3.6783,-3.6822,-3.6978,-3.6978,-3.6978,-3.6978,-3.6978,-3.6978,-3.6978,-3.6978,-3.6978,-3.6978,-3.6978,-3.6978,-3.6978,-3.6978,-3.6978,-3.6978,-3.6978,-3.6978,-3.6978,-3.6978,-3.6978,-3.6978,-3.6978,-3.6978,-3.6978,-3.6978,-3.6978,-3.6978,-3.6978,-3.6978,-3.6978,-3.6978,-3.6978,-3.6978,-3.6978,-3.6978,-3.69,-3.6691,-3.683,-3.6618,-3.6056,-3.5374,-3.4702,-3.4191,-3.4042,-3.4054,-3.4186,-3.4583,-3.4775,-3.4775,-3.4775,-3.4775,-3.4775,-3.4775,-3.4775,-3.4823,-3.5533,-3.6038,-3.6471,-3.712,-3.7625,-3.7986,-3.7986,-3.7986,-3.7986,-3.1705,-3.1705,-3.1705,-3.1705,-3.1705,-3.1749,-3.1994,-3.2213,-3.2388,-3.2431,-3.2822,-3.3025,-3.2766,-3.2723,-3.2853,-3.3081,-3.2853,-3.2853,-3.3154,-3.3124,-3.3784,-3.5332,-3.5467,-3.5548,-3.5615,-3.5615,-3.5615,-3.5615,-3.5615,-3.5615,-3.5615,-3.5615,-3.5494,-3.5305,-3.5102,-3.502,-3.502,-3.4719,-3.4761,-3.502,-3.4802,-3.4706,-3.4706,-3.4596,-3.5061,-3.5696,-3.4815,-3.5561,-3.6861,-3.6084,-3.6322,-3.6978,-3.6978,-3.6978,-3.6978,-3.6978,-3.6978,-3.6978,-3.6978,-3.6978,-3.6978,-3.6978,-3.6978,-3.6978,-3.6978,-3.6978,-3.6978,-3.6978,-3.6978,-3.6978,-3.6978,-3.6978,-3.6978,-3.6978,-3.6978,-3.6978,-3.6978,-3.6978,-3.6978,-3.6978,-3.6978,-3.6978,-3.6978,-3.6978,-3.6978,-3.6978,-3.6978,-3.6652,-3.583,-3.6266,-3.6,-3.478,-3.4658,-3.4864,-3.5286,-3.4407,-3.4234,-3.4727,-3.4763,-3.4775,-3.4775,-3.4775,-3.4775,-3.4775,-3.4775,-3.4775,-3.4859,-3.5918,-3.6374,-3.6507,-3.7529,-3.795,-3.7986,-3.7986,-3.7986,-3.7986,-3.1705,-3.1705,-3.1705,-3.1705,-3.1705,-3.1793,-3.2213,-3.2213,-3.2257,-3.255,-3.2649,-3.2649,-3.2519,-3.2519,-3.2605,-3.2853,-3.2636,-3.2692,-3.3068,-3.2939,-3.3215,-3.4024,-3.3898,-3.3898,-3.4037,-3.4037,-3.4037,-3.4037,-3.4037,-3.4037,-3.4037,-3.3898,-3.3856,-3.3911,-3.353,-3.3445,-3.3573,-3.3134,-3.3048,-3.3189,-3.3492,-3.3606,-3.3636,-3.4139,-3.4897,-3.5655,-3.5291,-3.595,-3.694,-3.6612,-3.673,-3.6978,-3.6978,-3.6978,-3.6978,-3.6978,-3.6978,-3.6978,-3.6978,-3.6978,-3.6978,-3.6978,-3.6978,-3.6978,-3.6978,-3.6978,-3.6978,-3.6978,-3.6978,-3.6978,-3.6978,-3.6978,-3.6978,-3.6978,-3.6978,-3.6978,-3.6978,-3.6978,-3.6978,-3.6978,-3.6978,-3.6978,-3.6978,-3.6978,-3.6978,-3.6978,-3.7344,-3.7422,-3.7089,-3.6826,-3.6194,-3.5132,-3.4831,-3.4672,-3.455,-3.4498,-3.4583,-3.4775,-3.4775,-3.4775,-3.4775,-3.4775,-3.4775,-3.4775,-3.4775,-3.4967,-3.5376,-3.6098,-3.6603,-3.6964,-3.7697,-3.7986,-3.7986,-3.7986,-3.7986,-3.7986,-3.1705,-3.1705,-3.1705,-3.1705,-3.1705,-3.1849,-3.2213,-3.2125,-3.2125,-3.2463,-3.2431,-3.2344,-3.2257,-3.2356,-3.2475,-3.268,-3.255,-3.2692,-3.3068,-3.2939,-3.2896,-3.3081,-3.2939,-3.2896,-3.3124,-3.3124,-3.3081,-3.2982,-3.3081,-3.3025,-3.2865,-3.2766,-3.2766,-3.2865,-3.2475,-3.2344,-3.2463,-3.2069,-3.2057,-3.2307,-3.25,-3.2907,-3.3437,-3.3775,-3.465,-3.5655,-3.5372,-3.603,-3.694,-3.6691,-3.6573,-3.6652,-3.69,-3.6978,-3.694,-3.6652,-3.6783,-3.6978,-3.6978,-3.6978,-3.6978,-3.6978,-3.6978,-3.6978,-3.6978,-3.6978,-3.6978,-3.6978,-3.6978,-3.6978,-3.6978,-3.6978,-3.6978,-3.6978,-3.6978,-3.6978,-3.6978,-3.6978,-3.6978,-3.6978,-3.6978,-3.6978,-3.6978,-3.7161,-3.7274,-3.7274,-3.785,-3.8028,-3.7566,-3.6841,-3.6014,-3.5253,-3.4968,-3.4607,-3.4246,-3.4595,-3.4775,-3.4775,-3.4775,-3.4775,-3.4775,-3.4775,-3.4775,-3.4775,-3.4775,-3.5075,-3.5653,-3.6182,-3.6723,-3.724,-3.7781,-3.7986,-3.7986,-3.7986,-3.7986,-3.7986,-3.1705,-3.1705,-3.1705,-3.1705,-3.1705,-3.1749,-3.1994,-3.1994,-3.1994,-3.1994,-3.2213,-3.23,-3.2038,-3.2257,-3.2475,-3.268,-3.2711,-3.2797,-3.3068,-3.3124,-3.3124,-3.3124,-3.3124,-3.3124,-3.3124,-3.3124,-3.2982,-3.2711,-3.2982,-3.2865,-3.24,-3.2593,-3.2593,-3.24,-3.2125,-3.1994,-3.1994,-3.1805,-3.2208,-3.2907,-3.2045,-3.2735,-3.4181,-3.3322,-3.4111,-3.5575,-3.4637,-3.544,-3.6861,-3.599,-3.5709,-3.583,-3.6691,-3.6978,-3.6822,-3.595,-3.6322,-3.6978,-3.6978,-3.6978,-3.6978,-3.6978,-3.6978,-3.6978,-3.6978,-3.6978,-3.6978,-3.6978,-3.6978,-3.6978,-3.6978,-3.6978,-3.6978,-3.6978,-3.6978,-3.6978,-3.6978,-3.6978,-3.6978,-3.6978,-3.6978,-3.6993,-3.6993,-3.754,-3.7906,-3.7906,-3.851,-3.8295,-3.6894,-3.5984,-3.53,-3.4811,-3.4775,-3.4775,-3.4775,-3.4775,-3.4775,-3.4775,-3.4775,-3.4775,-3.4775,-3.4775,-3.4775,-3.4775,-3.4775,-3.5136,-3.5665,-3.6194,-3.6723,-3.7252,-3.7781,-3.7986,-3.7986,-3.7986,-3.7986,-3.7986,-3.1705,-3.1705,-3.1705,-3.1705,-3.1705,-3.1749,-3.1994,-3.1893,-3.1849,-3.1981,-3.1937,-3.1937,-3.1981,-3.2081,-3.2288,-3.268,-3.2711,-3.2797,-3.3068,-3.3124,-3.3025,-3.2853,-3.2995,-3.3124,-3.3124,-3.3124,-3.2982,-3.2711,-3.2766,-3.268,-3.24,-3.2257,-3.23,-3.2388,-3.1981,-3.1849,-3.1994,-3.1805,-3.1825,-3.2077,-3.1781,-3.1989,-3.2457,-3.2208,-3.2778,-3.3788,-3.3492,-3.4139,-3.5061,-3.4815,-3.4733,-3.4761,-3.502,-3.5102,-3.5183,-3.5575,-3.54,-3.5386,-3.6652,-3.6573,-3.6243,-3.6861,-3.6978,-3.6978,-3.6978,-3.6978,-3.6978,-3.6978,-3.6978,-3.6978,-3.6978,-3.6978,-3.6978,-3.6978,-3.6978,-3.6978,-3.6978,-3.6978,-3.6978,-3.6978,-3.7358,-3.7625,-3.7625,-3.8201,-3.8621,-3.8621,-3.9197,-3.8942,-3.7553,-3.7273,-3.6379,-3.4872,-3.4775,-3.4775,-3.4775,-3.4775,-3.4775,-3.4775,-3.4775,-3.4775,-3.4775,-3.4775,-3.4775,-3.4775,-3.4775,-3.534,-3.6182,-3.6338,-3.694,-3.7757,-3.7926,-3.7986,-3.7986,-3.7986,-3.7986,-3.7986,-3.1705,-3.1705,-3.1705,-3.1705,-3.1705,-3.1749,-3.1849,-3.1761,-3.1749,-3.1849,-3.1849,-3.1849,-3.1893,-3.2113,-3.2376,-3.255,-3.2766,-3.2853,-3.2822,-3.2896,-3.281,-3.2593,-3.2736,-3.2865,-3.2939,-3.2865,-3.2736,-3.2593,-3.2593,-3.2419,-3.2125,-3.2038,-3.2025,-3.2125,-3.1849,-3.1749,-3.1893,-3.1761,-3.1913,-3.2196,-3.1825,-3.212,-3.2704,-3.237,-3.2747,-3.3522,-3.3522,-3.3846,-3.4306,-3.4306,-3.4306,-3.4181,-3.3479,-3.372,-3.4347,-3.4568,-3.4485,-3.4555,-3.5642,-3.5816,-3.583,-3.6362,-3.673,-3.6978,-3.6978,-3.6978,-3.6978,-3.6978,-3.6978,-3.6978,-3.6978,-3.6978,-3.6978,-3.6978,-3.6978,-3.6978,-3.6978,-3.7203,-3.7358,-3.7358,-3.7906,-3.8285,-3.8285,-3.8546,-3.8615,-3.8466,-3.9166,-3.8857,-3.7276,-3.7209,-3.6461,-3.4823,-3.4775,-3.4775,-3.4775,-3.4775,-3.4775,-3.4775,-3.4775,-3.4775,-3.4775,-3.4775,-3.4775,-3.4775,-3.4775,-3.5425,-3.6411,-3.6411,-3.7024,-3.7986,-3.7986,-3.7986,-3.7986,-3.7986,-3.7986,-3.7986,-3.1705,-3.1705,-3.1705,-3.1705,-3.1705,-3.1705,-3.1705,-3.1705,-3.1705,-3.1705,-3.1849,-3.1893,-3.1749,-3.2276,-3.255,-3.2388,-3.2779,-3.2865,-3.2444,-3.255,-3.2593,-3.2344,-3.24,-3.2475,-3.268,-3.2475,-3.24,-3.2344,-3.2344,-3.2125,-3.1705,-3.1893,-3.1893,-3.1705,-3.1705,-3.1705,-3.1705,-3.1705,-3.2164,-3.2821,-3.2001,-3.2661,-3.3972,-3.3194,-3.3395,-3.4056,-3.4056,-3.4056,-3.4056,-3.4056,-3.4056,-3.3804,-3.2208,-3.2778,-3.393,-3.3194,-3.3522,-3.4139,-3.4347,-3.4979,-3.5615,-3.579,-3.6401,-3.6978,-3.6978,-3.6978,-3.6978,-3.6978,-3.6978,-3.6978,-3.6978,-3.6978,-3.6978,-3.6978,-3.6978,-3.7007,-3.7063,-3.754,-3.792,-3.7976,-3.8593,-3.8986,-3.8986,-3.8639,-3.8232,-3.7939,-3.8644,-3.8257,-3.6414,-3.632,-3.5858,-3.4823,-3.4775,-3.4775,-3.4775,-3.4775,-3.4775,-3.4775,-3.4775,-3.4775,-3.4775,-3.4775,-3.4775,-3.4775,-3.4823,-3.5473,-3.6411,-3.6459,-3.7072,-3.7986,-3.7986,-3.7986,-3.7986,-3.7986,-3.7986,-3.7986,-3.1705,-3.1705,-3.1705,-3.1705,-3.1705,-3.1705,-3.1705,-3.1705,-3.1705,-3.1705,-3.1749,-3.1805,-3.1937,-3.2069,-3.2213,-3.24,-3.2475,-3.2531,-3.2388,-3.2431,-3.2344,-3.2081,-3.23,-3.2431,-3.2475,-3.2431,-3.2313,-3.2081,-3.2081,-3.1937,-3.1705,-3.1749,-3.1749,-3.1705,-3.1705,-3.1705,-3.1705,-3.1705,-3.1793,-3.1957,-3.1793,-3.1913,-3.2239,-3.2033,-3.212,-3.2239,-3.2239,-3.2239,-3.2239,-3.2239,-3.2239,-3.2208,-3.1837,-3.1957,-3.237,-3.2864,-3.2661,-3.2704,-3.4828,-3.502,-3.4938,-3.6348,-3.6861,-3.6978,-3.6978,-3.6978,-3.6978,-3.6978,-3.6978,-3.6978,-3.6978,-3.6978,-3.6978,-3.6978,-3.6978,-3.7161,-3.7639,-3.7821,-3.8088,-3.8635,-3.9254,-3.9578,-3.9578,-3.9259,-3.8973,-3.8885,-3.8419,-3.7566,-3.6367,-3.632,-3.5858,-3.4823,-3.4775,-3.4775,-3.4775,-3.4775,-3.4775,-3.4775,-3.4775,-3.4775,-3.4775,-3.4775,-3.4775,-3.4799,-3.5219,-3.5809,-3.6435,-3.6855,-3.7397,-3.7986,-3.7986,-3.7986,-3.7986,-3.7986,-3.7986,-3.7986,-3.1705,-3.1705,-3.1705,-3.1705,-3.1705,-3.1705,-3.1705,-3.1705,-3.1705,-3.1705,-3.1793,-3.1849,-3.1849,-3.2081,-3.2213,-3.2213,-3.2313,-3.23,-3.2069,-3.2169,-3.2169,-3.1994,-3.2125,-3.2257,-3.24,-3.2257,-3.2257,-3.2332,-3.2257,-3.2081,-3.1849,-3.1849,-3.1805,-3.1705,-3.1705,-3.1705,-3.1705,-3.1705,-3.1705,-3.1705,-3.1705,-3.1705,-3.1705,-3.1705,-3.1705,-3.1705,-3.1705,-3.1705,-3.1705,-3.1705,-3.1705,-3.1705,-3.1705,-3.1705,-3.1793,-3.2251,-3.237,-3.2544,-3.3505,-3.4361,-3.5102,-3.5602,-3.6348,-3.6978,-3.6978,-3.6978,-3.6978,-3.6978,-3.6978,-3.6978,-3.6978,-3.6978,-3.6978,-3.6978,-3.7231,-3.754,-3.7864,-3.8426,-3.8931,-3.931,-3.9845,-3.9856,-3.8921,-3.8662,-3.8134,-3.7158,-3.7091,-3.6649,-3.5619,-3.5571,-3.5343,-3.4835,-3.4775,-3.4775,-3.4775,-3.4775,-3.4775,-3.4775,-3.4775,-3.4775,-3.4775,-3.4775,-3.4775,-3.4811,-3.5388,-3.5918,-3.6447,-3.6976,-3.7505,-3.7986,-3.7986,-3.7986,-3.7986,-3.7986,-3.7986,-3.7986,-3.1705,-3.1705,-3.1705,-3.1705,-3.1705,-3.1705,-3.1705,-3.1705,-3.1705,-3.1705,-3.1849,-3.1893,-3.1705,-3.2025,-3.2213,-3.1994,-3.2169,-3.2125,-3.1705,-3.1849,-3.1937,-3.1937,-3.2038,-3.2169,-3.24,-3.2257,-3.2332,-3.2636,-3.2431,-3.2257,-3.2081,-3.2038,-3.1937,-3.1805,-3.1749,-3.1761,-3.1793,-3.1793,-3.1793,-3.1805,-3.1749,-3.1761,-3.1761,-3.1705,-3.1705,-3.1705,-3.1705,-3.1705,-3.1705,-3.1705,-3.1705,-3.1705,-3.1705,-3.1705,-3.1705,-3.1705,-3.2326,-3.2864,-3.2283,-3.3872,-3.5534,-3.4938,-3.5896,-3.694,-3.6822,-3.69,-3.6978,-3.6978,-3.6978,-3.6978,-3.6978,-3.7063,-3.7133,-3.7133,-3.7667,-3.8102,-3.8201,-3.9128,-3.9816,-3.9929,-4.0251,-3.9823,-3.8206,-3.7763,-3.6824,-3.5199,-3.5667,-3.5667,-3.4823,-3.4775,-3.4775,-3.4775,-3.4775,-3.4775,-3.4775,-3.4775,-3.4775,-3.4775,-3.4775,-3.4775,-3.4775,-3.4775,-3.4823,-3.4943,-3.5521,-3.605,-3.6579,-3.7108,-3.7589,-3.7986,-3.7986,-3.7986,-3.7986,-3.7986,-3.7986,-3.7986,-3.1705,-3.1705,-3.1705,-3.1705,-3.1705,-3.1705,-3.1705,-3.1705,-3.1705,-3.1705,-3.1705,-3.1705,-3.1705,-3.1761,-3.1793,-3.1749,-3.1749,-3.1749,-3.1705,-3.1705,-3.1749,-3.1749,-3.2125,-3.2344,-3.24,-3.2779,-3.2779,-3.2431,-3.2169,-3.2169,-3.2344,-3.2125,-3.2125,-3.2313,-3.2081,-3.2081,-3.23,-3.23,-3.23,-3.23,-3.2038,-3.195,-3.1937,-3.1761,-3.1705,-3.1705,-3.1705,-3.1705,-3.1705,-3.1705,-3.1705,-3.1705,-3.1705,-3.1705,-3.1705,-3.1705,-3.2326,-3.3152,-3.3762,-3.4815,-3.587,-3.648,-3.6822,-3.6822,-3.6044,-3.6455,-3.6978,-3.6978,-3.6978,-3.6978,-3.6978,-3.7428,-3.7779,-3.7779,-3.8313,-3.8958,-3.9451,-3.9676,-3.9971,-4.0519,-3.9899,-3.9299,-3.9033,-3.7507,-3.6414,-3.6131,-3.5427,-3.492,-3.4823,-3.4775,-3.4775,-3.4775,-3.4775,-3.4775,-3.4775,-3.4775,-3.4775,-3.4775,-3.4775,-3.4775,-3.4775,-3.4775,-3.5027,-3.5533,-3.6062,-3.6603,-3.7132,-3.7661,-3.7914,-3.7986,-3.7986,-3.7986,-3.7986,-3.7986,-3.7986,-3.7986,-3.1705,-3.1705,-3.1705,-3.1705,-3.1705,-3.1705,-3.1705,-3.1705,-3.1705,-3.1705,-3.1705,-3.1705,-3.1705,-3.1705,-3.1705,-3.1705,-3.1805,-3.1805,-3.1717,-3.1937,-3.2069,-3.2069,-3.2376,-3.2649,-3.2779,-3.2853,-3.2853,-3.2779,-3.268,-3.2593,-3.255,-3.2463,-3.2376,-3.2388,-3.2257,-3.23,-3.24,-3.24,-3.23,-3.2169,-3.2038,-3.1937,-3.1805,-3.1705,-3.1705,-3.1705,-3.1705,-3.1705,-3.1705,-3.1705,-3.1705,-3.1705,-3.1705,-3.1705,-3.1705,-3.1705,-3.2326,-3.2993,-3.2864,-3.3859,-3.4977,-3.5156,-3.5994,-3.6741,-3.6661,-3.6948,-3.7152,-3.6848,-3.7167,-3.7611,-3.8002,-3.8297,-3.844,-3.844,-3.9015,-3.9521,-3.9746,-4.0083,-4.0208,-3.9927,-3.9002,-3.8192,-3.7632,-3.6307,-3.5488,-3.5488,-3.5054,-3.4775,-3.4775,-3.4775,-3.4775,-3.4775,-3.4775,-3.4775,-3.4775,-3.4775,-3.4775,-3.4775,-3.4775,-3.4775,-3.4775,-3.4775,-3.5063,-3.5653,-3.6182,-3.6699,-3.7228,-3.7757,-3.7986,-3.7986,-3.7986,-3.7986,-3.7986,-3.7986,-3.7986,-3.7986]}]]